[[[{"header":{"parameterUnit":"kt","parameterCategory":2,"dx":1,"dy":1,"la1":29.46422004699707,"la2":30.564109802246094,"lo1":-89.4342041015625,"lo2":-87.934326171875,"nx":46,"ny":34,"refTime":"2022-09-27T00:00:00:Z","depth":"0","parameterNumber":2,"parameterNumberName":"U-component_of_CURRENTS"},"data":[-0.1356,-0.1292,-0.1175,-0.102,-0.0838,-0.0619,-0.0502,0,-0.0529,-0.0822,-0.0529,-0.078,-0.1164,-0.1372,-0.1666,-0.2018,-0.2365,-0.2744,-0.3342,-0.4341,-0.5462,-0.6076,-0.6103,-0.6038,-0.6263,-0.677,-0.7096,-0.7224,-0.7416,-0.7608,-0.7758,-0.7913,-0.8126,-0.8334,-0.8398,-0.8222,-0.7763,-0.7122,-0.6482,-0.5894,-0.5334,-0.4794,-0.4309,-0.3903,-0.362,-0.3454,-0.1319,-0.1255,-0.1159,-0.1073,-0.102,-0.1062,-0.1239,-0.1361,0,-0.0182,-0.0272,-0.0982,-0.1676,-0.1623,-0.1842,-0.2178,-0.2499,-0.2776,-0.3001,-0.3316,-0.4031,-0.5045,-0.5574,-0.5478,-0.5441,-0.5777,-0.6177,-0.6418,-0.6647,-0.6877,-0.7058,-0.7128,-0.7064,-0.6951,-0.6887,-0.6903,-0.6994,-0.7016,-0.6845,-0.6508,-0.6124,-0.5761,-0.5366,-0.4981,-0.4666,-0.4389,-0.1175,-0.1175,-0.1127,-0.1089,-0.1062,-0.1052,-0.1025,-0.0918,-0.0278,0.0037,-0.0198,0,-0.0609,-0.1479,-0.1981,-0.2381,-0.2664,-0.2867,-0.3022,-0.3129,-0.3251,-0.3609,-0.4325,-0.4811,-0.456,-0.4415,-0.4885,-0.5286,-0.5419,-0.5569,-0.5809,-0.6087,-0.6305,-0.6407,-0.6391,-0.6337,-0.6343,-0.6428,-0.6519,-0.6524,-0.6391,-0.6145,-0.5846,-0.5553,-0.5307,-0.5179,-0.0774,-0.0945,-0.1004,-0.1041,-0.1062,-0.1078,-0.1068,-0.0998,-0.0918,-0.1046,-0.1511,-0.1308,-0.1095,-0.1698,-0.2371,-0.2798,-0.2894,-0.2958,-0.3022,-0.307,-0.3123,-0.3182,-0.3358,-0.3807,-0.4106,-0.3657,-0.3428,-0.3924,-0.4351,-0.4645,-0.5051,-0.5494,-0.5889,-0.6177,-0.6225,-0.6135,-0.6113,-0.6193,-0.6332,-0.638,-0.6279,-0.6124,-0.6017,-0.6012,-0.6071,-0.614,0.0,-0.0448,-0.0742,-0.0897,-0.0998,-0.1062,-0.11,-0.1105,-0.1089,-0.1105,-0.1175,-0.1223,-0.1351,-0.1831,-0.2883,-0.3385,-0.3107,-0.3006,-0.2963,-0.2942,-0.2958,-0.2974,-0.2979,-0.3059,-0.3337,-0.3438,-0.2936,-0.2776,-0.3294,-0.3801,-0.4277,-0.473,-0.5083,-0.536,-0.5537,-0.5638,-0.5734,-0.591,-0.6177,-0.6343,-0.6273,-0.6097,-0.5953,-0.5953,-0.6103,-0.6279,0.0219,0.0043,-0.039,-0.0726,-0.0929,-0.1078,-0.1148,-0.1153,-0.1132,-0.1127,-0.1148,-0.1148,-0.1046,-0.0961,0,-0.149,-0.2979,-0.2947,-0.2856,-0.2766,-0.2728,-0.2718,-0.2696,-0.2675,-0.2734,-0.2888,-0.2734,-0.2397,-0.2541,-0.3022,-0.3567,-0.4079,-0.4442,-0.4624,-0.4746,-0.4939,-0.519,-0.5387,-0.5563,-0.5707,-0.5675,-0.5467,-0.5291,-0.5291,-0.5435,-0.5595,0.0956,0.063,-0.0053,-0.0566,-0.087,-0.1143,-0.1239,-0.1175,-0.1121,-0.1095,-0.11,-0.1132,-0.1201,-0.1281,-0.1313,0,-0.1431,-0.2856,-0.2723,-0.2541,-0.2461,-0.2424,-0.2397,-0.2376,-0.2381,-0.2467,-0.2515,-0.2322,-0.2274,-0.2616,-0.3113,-0.3567,-0.3828,-0.3988,-0.4154,-0.4319,-0.4496,-0.4725,-0.5008,-0.5238,-0.5259,-0.5024,-0.4592,-0.4197,-0.4047,-0.4132,0,-0.0192,-0.031,-0.0342,-0.0609,-0.1116,-0.1292,-0.1073,-0.1009,-0.0993,-0.1004,-0.1014,-0.1036,-0.1116,-0.1217,-0.1255,0,-0.1372,-0.2525,-0.2232,-0.2141,-0.2114,-0.2104,-0.2098,-0.2109,-0.2157,-0.2317,-0.2328,-0.2168,-0.2333,-0.275,-0.3075,-0.3235,-0.3364,-0.3556,-0.3753,-0.394,-0.417,-0.4399,-0.4431,-0.4298,-0.4143,-0.3865,-0.3502,-0.3209,-0.3022,0,-0.0646,0,0.0016,0.0027,0,-0.032,-0.0705,-0.079,-0.0838,-0.0849,-0.0838,-0.0812,-0.0966,-0.1127,-0.1148,-0.118,0,-0.0817,-0.1709,-0.1789,-0.1805,-0.1815,-0.1826,-0.1842,-0.189,-0.2109,-0.228,-0.2216,-0.2184,-0.2392,-0.2584,-0.2595,-0.2691,-0.2969,-0.3262,-0.3396,-0.3438,-0.347,-0.3422,-0.3342,-0.3348,-0.3353,-0.323,-0.3001,-0.2712,0,0.0342,0.0427,0.0406,0,-0.0059,-0.0315,-0.0582,-0.0694,-0.0753,-0.0747,-0.0657,-0.0454,-0.0763,-0.0998,-0.0683,-0.0571,0,-0.1025,-0.1837,-0.1564,-0.1511,-0.1527,-0.1559,-0.158,-0.1628,-0.1847,-0.2125,-0.2136,-0.1954,-0.1885,-0.1895,-0.1933,-0.2082,-0.2333,-0.2621,-0.276,-0.2766,-0.2728,-0.2712,-0.2755,-0.2819,-0.2867,-0.291,-0.2883,-0.2739,0,0,0,0,0,-0.0368,-0.071,-0.0699,-0.0742,-0.0785,-0.078,-0.0673,-0.0598,0,-0.0101,-0.0144,-0.008,0,0,-0.0438,-0.0982,-0.1148,-0.1249,-0.1308,-0.1345,-0.1426,-0.1671,-0.1959,-0.1981,-0.1778,-0.1538,-0.1367,-0.1399,-0.1618,-0.1922,-0.2216,-0.2413,-0.244,-0.236,-0.2355,-0.2445,-0.2643,-0.2739,-0.2712,-0.275,-0.2755,0,0,0,0,0,0,-0.0294,-0.0662,-0.0774,-0.0849,-0.0897,-0.0988,-0.1175,-0.0587,0.0091,0.0288,0.0502,0,0,-0.0342,-0.078,-0.095,-0.1073,-0.1153,-0.1228,-0.1372,-0.166,-0.1991,-0.2007,-0.1789,-0.1676,-0.1805,-0.2002,-0.2082,-0.212,-0.2184,-0.2189,-0.213,-0.2114,-0.2136,-0.229,-0.2734,-0.3134,-0.3059,-0.2808,-0.2744,0,0,0,0,0,0,-0.0368,-0.0822,-0.0897,-0.0876,-0.0865,-0.0833,-0.078,-0.0657,-0.0507,-0.0443,0,0,0,-0.0304,-0.0705,-0.0881,-0.1014,-0.1116,-0.1217,-0.1372,-0.1618,-0.1938,-0.2162,-0.2162,-0.2109,-0.2109,-0.2077,-0.1959,-0.1847,-0.1799,-0.1821,-0.1885,-0.1927,-0.2056,-0.2584,-0.3326,-0.355,-0.3273,-0.2947,-0.2776,0,0,0,0,0,0,-0.0566,-0.1191,-0.1089,-0.0886,-0.0822,-0.0812,-0.0865,-0.0961,-0.1201,-0.1757,-0.1628,-0.1127,0,-0.031,-0.0726,-0.0918,-0.1062,-0.1164,-0.1255,-0.1324,-0.1388,-0.15,-0.166,-0.1725,-0.1719,-0.1719,-0.1698,-0.1692,-0.1751,-0.1869,-0.2002,-0.212,-0.229,-0.2744,-0.3385,-0.3663,-0.3412,-0.3118,-0.2963,-0.2819,0,0,0,0,0,0,0,-0.0753,-0.1148,-0.0737,-0.0689,-0.0731,-0.0812,-0.0881,-0.0924,-0.0918,-0.0769,-0.0635,0,-0.0352,-0.0828,-0.1036,-0.1153,-0.1233,-0.1292,-0.1292,-0.1223,-0.1164,-0.1271,-0.1586,-0.205,-0.2408,-0.2557,-0.2659,-0.2734,-0.2782,-0.2856,-0.2985,-0.3177,-0.3454,-0.3663,-0.3599,-0.3406,-0.331,-0.3161,-0.2936,0,0,0,-0.0005,-0.0016,0,0,0,-0.0139,-0.0342,-0.0497,-0.0662,-0.078,-0.0812,-0.0726,-0.0545,-0.0272,-0.0128,0,-0.0438,-0.1014,-0.1191,-0.126,-0.1329,-0.1388,-0.1383,-0.134,-0.1484,-0.2157,-0.299,-0.3289,-0.3209,-0.315,-0.3134,-0.3123,-0.3139,-0.3203,-0.3337,-0.3518,-0.3673,-0.3727,-0.3695,-0.3673,-0.3534,-0.3235,-0.299,0,0,0.0208,-0.0326,-0.166,-0.1975,-0.1879,-0.204,-0.149,-0.0763,-0.0625,-0.0758,-0.0886,-0.0908,-0.078,-0.0448,0.0187,0.0598,0,-0.0603,-0.1308,-0.142,-0.1463,-0.157,-0.1703,-0.189,-0.2322,-0.3289,-0.4159,-0.4197,-0.3743,-0.3316,-0.3139,-0.3145,-0.3193,-0.3182,-0.3134,-0.3177,-0.3353,-0.3604,-0.3796,-0.3796,-0.3615,-0.3342,-0.3102,-0.2931,0,0,-0.0769,-0.0817,0.0059,0.0214,0,0,-0.031,-0.0683,-0.0801,-0.095,-0.1132,-0.126,-0.1292,-0.1159,-0.103,0,-0.1009,-0.1954,-0.1847,-0.1831,-0.1911,-0.205,-0.2253,-0.2621,-0.3284,-0.4042,-0.4266,-0.3871,-0.3438,-0.3225,-0.3086,-0.3049,-0.315,-0.3182,-0.3107,-0.3129,-0.3326,-0.3593,-0.3711,-0.3593,-0.3348,-0.3113,-0.2936,-0.2803,-0.0235,-0.0545,-0.0614,0,0,0,0,0,-0.0432,-0.0977,-0.1127,-0.1255,-0.1484,-0.1783,-0.2232,-0.3033,-0.4453,-0.5008,-0.3898,-0.2846,-0.2461,-0.2333,-0.2355,-0.2451,-0.2627,-0.291,-0.3385,-0.3849,-0.3892,-0.3652,-0.3465,-0.3326,-0.3214,-0.3273,-0.3524,-0.3673,-0.3599,-0.3545,-0.3641,-0.3727,-0.3647,-0.3422,-0.3145,-0.2904,-0.2744,-0.2643,-0.1612,-0.1799,-0.2237,-0.1511,-0.0902,0,0,0,-0.0464,-0.11,-0.1351,-0.1527,-0.173,-0.2056,-0.2557,-0.3177,-0.3801,-0.4042,-0.3636,-0.307,-0.2744,-0.26,-0.2589,-0.2648,-0.2707,-0.2803,-0.3075,-0.3534,-0.3839,-0.3828,-0.3583,-0.33,-0.3316,-0.3791,-0.4266,-0.4293,-0.41,-0.3908,-0.378,-0.3689,-0.3502,-0.3219,-0.292,-0.2686,-0.2547,-0.2499,0,-0.0358,-0.0844,-0.1137,-0.1265,-0.1239,0,0,-0.0406,-0.1078,-0.1506,-0.1751,-0.1869,-0.2088,-0.2584,-0.3177,-0.3492,-0.3481,-0.3278,-0.3006,-0.2792,-0.2643,-0.2579,-0.2552,-0.2536,-0.2638,-0.3257,-0.433,-0.4912,-0.4688,-0.4106,-0.3657,-0.3785,-0.4314,-0.4474,-0.4223,-0.4036,-0.3727,-0.331,-0.3102,-0.3022,-0.2888,-0.267,-0.2509,-0.2435,-0.2429,-0.0486,-0.0427,-0.0454,-0.0769,-0.1393,-0.2045,-0.1959,-0.1111,-0.0646,-0.0998,-0.1554,-0.2002,-0.2194,-0.2312,-0.268,-0.3203,-0.3187,-0.2819,-0.2739,-0.2744,-0.2707,-0.2547,-0.2387,-0.2312,-0.26,-0.3705,-0.4768,-0.5163,-0.5115,-0.4634,-0.4031,-0.3588,-0.3871,-0.4544,-0.4629,-0.4277,-0.3785,-0.3406,-0.3481,-0.4127,-0.4437,-0.3449,-0.2563,-0.244,-0.2413,-0.2419,-0.0048,-0.0069,-0.0128,-0.0315,-0.047,-0.0561,-0.063,-0.0518,-0.0315,-0.0502,-0.1068,-0.1794,-0.189,-0.1586,0,0,-0.0924,-0.2114,-0.3075,-0.409,-0.3604,-0.2536,-0.2098,-0.1805,-0.1922,-0.2696,-0.2894,-0.2552,0,0,0,-0.1746,-0.4223,-0.5254,-0.5302,-0.465,-0.3844,-0.3855,-0.4159,-0.3796,-0.3534,0,-0.1511,-0.2835,-0.2557,-0.2429,0,0.0299,0.0491,0.0283,0.0144,0.0032,-0.0096,-0.0149,-0.0149,0,0,0,-0.078,-0.1954,-0.1778,-0.1201,0,-0.0881,-0.2162,-0.2557,0,0,0,0,0,0,0,-0.2002,-0.3262,-0.2659,-0.3139,-0.3193,-0.307,-0.3235,0,0,-0.1959,-0.4255,-0.4453,-0.4047,-0.3769,-0.2461,-0.1164,0,0,0,0,0,0.0384,0.0694,0.0545,0.0374,0.0155,-0.0171,-0.0646,-0.087,-0.078,-0.0625,-0.0705,-0.1084,-0.1468,-0.2013,-0.2515,-0.291,-0.3663,-0.4282,-0.4175,-0.3892,-0.3396,-0.2718,-0.2648,-0.3289,-0.4261,-0.3882,-0.283,-0.2568,-0.267,-0.3086,-0.3561,-0.3679,-0.3166,-0.3043,-0.3187,-0.3086,0,0,0,-0.0998,-0.1554,-0.0571,0.0182,0,0,0,0,0.0347,0.0833,0.0897,0.0662,0.0304,-0.0096,-0.0379,-0.0481,-0.0566,-0.078,-0.1068,-0.1351,-0.1628,-0.1933,-0.2258,-0.2638,-0.2846,-0.2904,-0.2958,-0.2856,-0.2846,-0.3251,-0.3518,-0.2926,-0.1991,-0.1714,-0.1853,-0.1778,-0.173,-0.1821,-0.1757,-0.1746,-0.2547,-0.3721,-0.4362,-0.4154,-0.3278,-0.1911,-0.1121,-0.0876,-0.0267,0.0096,0,0,0,0,0,0,0,0,0,0.0,0.0005,-0.0053,-0.0214,-0.0454,-0.071,-0.0924,-0.1057,-0.1062,-0.0918,-0.0785,-0.0518,-0.0288,-0.0224,-0.0288,-0.0881,-0.1901,-0.2472,0,0,0,0,-0.0016,0.0304,0.04,-0.0107,-0.0374,0,0,0,0,0,-0.0651,-0.1287,-0.1164,-0.094,-0.0673,0,0,0,0,0,0,0,0,0,0,0,0,-0.0021,-0.0107,-0.0288,-0.0481,-0.0577,-0.0497,-0.0214,0.0128,0.0272,0,0,0,0,0,0,0,0,0,0,0,0,0.0171,0.0326,0.0315,0,0,0,0,0,-0.055,-0.1303,-0.1415,-0.1175,-0.0838,0,0,0,0,0,0,0,0,0,0,0,0,0,0,0,0,0,0,0,0,0,0,0,0,0,0,0,0,0,0,0,0,0,0,0,0,0,0,0,0,0,-0.0667,-0.1511,-0.157,-0.1361,-0.1175,0,0,0,0,0,0,0,0,0,0,0,0,0,0,0,0,0,0,0,0,0,0,0,0,0,0,0,0,0,0,0,0,0,0,0,0,0,0,0,0,0,-0.047,-0.1159,-0.1367,-0.1287,-0.1137,0,0,0,0,0,0,0,0,0,0,0,0,0,0,0,0,0,0,0,0,0,0,0,0,0,0,0,0,0,0,0,0,0,0,0,0,0,0,0,0,0,0,0.0689,-0.0192,-0.0902,-0.0977,0,0,0,0,0,0,0,0,0,0,0,0,0,0,0,0,0,0,0,0,0,0,0,0,0,0,0,0,0,0,0,0,0,0,0,0,0,0,0,0,0,0,-0.0101,-0.0395,-0.0721,-0.0785,0,0,0,0,0,0,0,0,0,0,0,0,0,0,0,0,0,0,0,0,0,0,0,0,0,0,0,0,0,0,0,0,0,0,0,0,0,0,0,0,0,0,-0.0139,-0.0304,-0.0464,-0.0523,0,0,0,0,0,0,0,0,0,0,0,0,0,0,0,0,0,0,0,0,0,0,0,0,0,0,0,0,0,0,0,0,0,0,0,0,0,0,0,0,0,0,0.016,0.0048,-0.0459,-0.0448,0]}],[{"header":{"parameterUnit":"kt","parameterCategory":2,"dx":1,"dy":1,"la1":29.46422004699707,"la2":30.564109802246094,"lo1":-89.4342041015625,"lo2":-87.934326171875,"nx":46,"ny":34,"refTime":"2022-09-27T00:00:00:Z","depth":"0","parameterNumber":3,"parameterNumberName":"V-component_of_CURRENTS"},"data":[-0.0977,-0.126,-0.1484,-0.1618,-0.1741,-0.1933,-0.2264,0,-0.1244,-0.275,-0.2915,-0.2766,-0.3502,-0.3695,-0.3823,-0.3972,-0.4106,-0.4202,-0.4394,-0.4917,-0.5355,-0.5184,-0.3978,-0.2563,-0.1863,-0.1383,-0.0715,-0.0043,0.0352,0.0438,0.031,0.0075,-0.0075,-0.0043,0.0198,0.0539,0.094,0.1356,0.1778,0.2178,0.2573,0.2953,0.3294,0.3615,0.3898,0.4116,-0.1084,-0.142,-0.1623,-0.1751,-0.1847,-0.1965,-0.2066,-0.086,0,-0.3043,-0.3001,-0.2424,-0.3502,-0.3465,-0.355,-0.3737,-0.3914,-0.402,-0.4074,-0.4154,-0.4522,-0.5003,-0.5104,-0.3972,-0.2531,-0.1709,-0.1249,-0.0785,-0.0427,-0.0304,-0.0336,-0.0448,-0.0539,-0.055,-0.0432,-0.0182,0.016,0.0523,0.0865,0.1164,0.1426,0.1719,0.2077,0.2472,0.2894,0.3316,-0.1127,-0.1516,-0.1709,-0.181,-0.1863,-0.1895,-0.1911,-0.1826,-0.0988,-0.2776,-0.2888,0,-0.3091,-0.3017,-0.3129,-0.3465,-0.37,-0.3865,-0.3972,-0.3988,-0.3994,-0.4154,-0.464,-0.48,-0.3737,-0.2141,-0.1249,-0.1041,-0.0897,-0.0838,-0.0876,-0.086,-0.0763,-0.0619,-0.0438,-0.0198,0.0091,0.0416,0.0731,0.0966,0.1121,0.1265,0.1484,0.1805,0.2152,0.2515,-0.0982,-0.1522,-0.1741,-0.1831,-0.1874,-0.1901,-0.1933,-0.1959,-0.2002,-0.2264,-0.2376,-0.0886,-0.2216,-0.2312,-0.2467,-0.3251,-0.354,-0.3732,-0.3865,-0.3924,-0.3892,-0.3828,-0.3935,-0.4394,-0.4517,-0.3401,-0.1815,-0.1361,-0.1548,-0.1741,-0.2013,-0.2141,-0.205,-0.1709,-0.1164,-0.0475,0.0128,0.0571,0.0854,0.0993,0.1089,0.1212,0.141,0.1746,0.2093,0.2424,-0.0577,-0.1281,-0.165,-0.1789,-0.1831,-0.1869,-0.1938,-0.1975,-0.2007,-0.2018,-0.1986,-0.1789,-0.1741,-0.1554,-0.2077,-0.3406,-0.3534,-0.3657,-0.378,-0.3839,-0.3823,-0.3748,-0.3689,-0.3828,-0.425,-0.4245,-0.2894,-0.1676,-0.1991,-0.2397,-0.2696,-0.2814,-0.2771,-0.2504,-0.1954,-0.118,-0.0502,0.0,0.024,0.0379,0.0529,0.0769,0.11,0.15,0.1895,0.2258,-0.0358,-0.0833,-0.1324,-0.1628,-0.1692,-0.1783,-0.1933,-0.1965,-0.1975,-0.1959,-0.1938,-0.1863,-0.1762,-0.1463,0,-0.3631,-0.354,-0.3599,-0.3727,-0.3769,-0.3737,-0.3657,-0.3577,-0.3561,-0.3775,-0.4213,-0.378,-0.166,-0.15,-0.1901,-0.2061,-0.1981,-0.1901,-0.1767,-0.142,-0.0918,-0.0464,-0.0149,-0.0032,0.0027,0.0117,0.031,0.0673,0.1121,0.1548,0.1895,-0.0411,-0.0219,-0.071,-0.1329,-0.1463,-0.157,-0.1986,-0.2029,-0.1991,-0.1959,-0.1949,-0.1933,-0.189,-0.1773,-0.0881,0,-0.3502,-0.3497,-0.3764,-0.3727,-0.3652,-0.3561,-0.3454,-0.3396,-0.3476,-0.3828,-0.4095,-0.1863,-0.0849,-0.0934,-0.0993,-0.0806,-0.0705,-0.0598,-0.0427,-0.0198,0.0032,0.016,0.0128,0.0021,-0.0069,-0.0069,0.0123,0.0582,0.1084,0.1474,0,0.0251,-0.0331,-0.1025,-0.1148,-0.142,-0.2221,-0.2168,-0.2056,-0.2002,-0.1991,-0.1965,-0.1901,-0.1757,-0.1783,-0.0854,0,-0.3428,-0.4015,-0.3732,-0.3572,-0.3454,-0.3332,-0.323,-0.3241,-0.3454,-0.3892,-0.2242,-0.0769,-0.0352,-0.0411,-0.04,-0.0427,-0.0267,-0.0144,-0.0053,0.0091,0.0208,0.0139,0.0043,-0.0069,-0.0128,-0.0112,0.0198,0.0625,0.0934,0,0.0101,0,-0.1084,-0.0972,0,-0.2296,-0.2205,-0.2104,-0.2072,-0.2077,-0.2045,-0.1959,-0.1602,-0.1858,-0.1741,-0.0801,0,-0.3428,-0.3604,-0.3465,-0.3337,-0.3193,-0.3059,-0.3011,-0.3123,-0.3497,-0.2339,-0.1052,-0.0251,-0.031,-0.055,-0.0715,-0.0481,-0.0256,-0.0187,-0.0075,0.0128,0.0133,0.0117,0.0048,-0.0064,-0.0144,0.0032,0.0384,0.0598,0,-0.0133,0.0,-0.126,0,-0.047,-0.1991,-0.2104,-0.2141,-0.2173,-0.2226,-0.2221,-0.2146,-0.1468,-0.2152,-0.1959,-0.1746,0,-0.2638,-0.3663,-0.3406,-0.3203,-0.3027,-0.2872,-0.2787,-0.284,-0.3102,-0.2194,-0.126,-0.0513,-0.0523,-0.0801,-0.0956,-0.0678,-0.0315,-0.0155,-0.0069,0.0101,0.0117,0.016,0.0085,-0.0101,-0.023,-0.0133,0.0139,0.0358,0,0,0,0,0,-0.0934,-0.1885,-0.2093,-0.2221,-0.2285,-0.2376,-0.2456,-0.2461,0,-0.2525,-0.2253,-0.173,0,0,-0.3556,-0.3251,-0.2995,-0.2814,-0.2664,-0.2573,-0.26,-0.2771,-0.205,-0.1201,-0.0854,-0.0785,-0.0886,-0.0785,-0.0464,-0.0117,0.0053,0.0059,0.0043,0.0075,0.016,0.0032,-0.0149,-0.0182,-0.0182,-0.0053,0.0091,0,0,0,0,0,0,-0.1874,-0.212,-0.2301,-0.2355,-0.2429,-0.2499,-0.2531,-0.1185,-0.2659,-0.267,-0.1575,0,0,-0.3049,-0.2936,-0.2712,-0.2557,-0.2435,-0.2355,-0.2349,-0.2445,-0.2077,-0.1159,-0.0966,-0.0828,-0.0769,-0.0609,-0.0304,-0.0075,0.0037,0.0,-0.0032,0.0059,0.0117,0.0032,-0.0021,0.0,-0.0107,-0.0069,-0.0011,0,0,0,0,0,0,-0.1602,-0.2072,-0.2344,-0.2408,-0.2451,-0.2461,-0.2499,-0.2515,-0.2787,-0.307,0,0,0,-0.2696,-0.2638,-0.2397,-0.2274,-0.22,-0.213,-0.2088,-0.2109,-0.2018,-0.134,-0.0956,-0.0838,-0.0758,-0.0737,-0.0491,-0.0283,-0.0112,-0.0048,0.0005,0.0069,0.0133,0.0262,0.0283,0.0139,-0.0053,-0.0037,0.0032,0,0,0,0,0,0,-0.1426,-0.1991,-0.2531,-0.2531,-0.252,-0.2515,-0.2557,-0.2621,-0.2744,-0.2776,-0.0908,-0.0785,0,-0.2355,-0.2306,-0.2045,-0.1975,-0.1965,-0.1938,-0.1895,-0.1869,-0.1794,-0.1474,-0.1057,-0.0961,-0.0918,-0.0876,-0.0662,-0.0438,-0.023,-0.0101,-0.0037,0.0069,0.0288,0.0529,0.0406,0.0123,0.0037,0.0053,0.0037,0,0,0,0,0,0,0,-0.1943,-0.3225,-0.2696,-0.2595,-0.2552,-0.2557,-0.2589,-0.2563,-0.2424,-0.1997,-0.1762,0,-0.1954,-0.189,-0.166,-0.1682,-0.1741,-0.1783,-0.181,-0.181,-0.1671,-0.1372,-0.1004,-0.0966,-0.1046,-0.1014,-0.0838,-0.0614,-0.04,-0.0251,-0.0155,0.0048,0.0368,0.0518,0.0331,0.0176,0.0176,0.0075,-0.0053,0,0,0,-0.0454,-0.0262,0,0,0,-0.4031,-0.2782,-0.2563,-0.2568,-0.2584,-0.2638,-0.2664,-0.2627,-0.2397,-0.1831,0,-0.141,-0.1372,-0.1297,-0.1436,-0.1543,-0.166,-0.1799,-0.1858,-0.1559,-0.1014,-0.0833,-0.1025,-0.1217,-0.1223,-0.1068,-0.0822,-0.055,-0.0304,-0.016,0.0016,0.0278,0.0427,0.0406,0.039,0.0219,-0.0027,-0.0187,0,0,-0.0486,-0.0016,-0.0443,-0.0491,0.0,0.0,-0.4784,-0.3257,-0.2461,-0.2531,-0.2605,-0.2728,-0.2915,-0.3118,-0.3166,-0.1709,0,-0.0539,-0.0838,-0.102,-0.1239,-0.1372,-0.1527,-0.1703,-0.1746,-0.1377,-0.0913,-0.1062,-0.1255,-0.1361,-0.1281,-0.1116,-0.0844,-0.0529,-0.0235,-0.0053,0.008,0.0288,0.0518,0.0598,0.0497,0.0182,-0.0117,-0.0294,0,0,-0.0774,0.087,-0.0363,-0.0988,0,0,-0.4885,-0.3668,-0.2376,-0.244,-0.2568,-0.2766,-0.3123,-0.3652,-0.4154,0,0.0689,0.0037,-0.0464,-0.0812,-0.1052,-0.118,-0.1292,-0.1415,-0.1495,-0.1319,-0.1207,-0.1393,-0.1297,-0.1287,-0.1073,-0.0886,-0.0678,-0.0427,-0.0149,0.0107,0.0294,0.0475,0.063,0.0609,0.0406,0.0101,-0.0187,-0.0368,0.0149,-0.0705,-0.0657,0,0,0,0,0,-0.41,-0.3428,-0.2312,-0.2306,-0.2429,-0.26,-0.2904,-0.3326,-0.3588,-0.0683,0.063,-0.0053,-0.0331,-0.063,-0.0838,-0.0945,-0.1014,-0.11,-0.1287,-0.1308,-0.1255,-0.1335,-0.1143,-0.1041,-0.0817,-0.0625,-0.0486,-0.0411,-0.0171,0.023,0.0502,0.0619,0.0603,0.0448,0.0214,-0.0053,-0.0299,-0.0448,0.0304,-0.0945,-0.0721,-0.0694,-0.0603,0,0,0,-0.3246,-0.3054,-0.2232,-0.2184,-0.2253,-0.2253,-0.2322,-0.2413,-0.2274,-0.1324,-0.0342,-0.0256,-0.0315,-0.047,-0.0614,-0.0726,-0.0806,-0.0892,-0.1089,-0.1153,-0.1095,-0.1233,-0.1164,-0.087,-0.0598,-0.0422,-0.0406,-0.0529,-0.0272,0.0272,0.0614,0.0651,0.0523,0.0272,-0.0016,-0.0267,-0.0448,-0.0529,0,-0.0112,-0.0481,-0.1116,-0.1324,-0.0801,0,0,-0.236,-0.244,-0.2029,-0.204,-0.221,-0.1938,-0.1692,-0.1725,-0.1917,-0.1223,-0.0545,-0.0294,-0.0294,-0.0352,-0.0432,-0.055,-0.0699,-0.0806,-0.086,-0.0966,-0.1255,-0.1575,-0.1543,-0.0865,-0.0416,-0.0374,-0.0432,-0.0598,-0.0224,0.0374,0.0635,0.0635,0.0523,0.0101,-0.0203,-0.0422,-0.0582,-0.0582,-0.0171,0.0299,-0.0123,-0.0566,-0.1004,-0.1404,-0.0763,-0.079,-0.173,-0.1586,-0.1618,-0.1714,-0.2488,-0.1981,-0.1367,-0.1404,-0.2184,-0.1207,-0.0502,-0.0048,-0.0224,-0.0294,-0.0358,-0.0411,-0.0667,-0.1324,-0.142,-0.1201,-0.1484,-0.189,-0.181,-0.103,-0.0091,-0.0422,-0.0763,-0.0918,-0.031,0.0609,0.0619,0.0032,0.0037,0.0005,-0.0363,-0.0454,-0.0635,-0.0614,-0.0342,0.0384,0.0149,-0.0144,-0.047,-0.11,-0.142,-0.1548,-0.1623,-0.1143,-0.1351,-0.1474,-0.3086,-0.2675,0,0,-0.2488,-0.1062,-0.0689,0.0171,-0.0187,-0.0288,-0.0352,-0.0342,-0.0662,-0.1847,-0.2104,-0.1901,0,0,0,0.0454,0.0336,0.0406,-0.1068,-0.1255,-0.086,0.0315,-0.0422,-0.142,-0.1735,0,0.0902,-0.0438,-0.063,-0.0625,0,0.0432,0.0475,0.0139,-0.032,-0.0892,-0.1223,-0.1479,-0.1602,0,0,0,-0.26,-0.252,-0.0828,-0.0812,0,-0.0235,-0.1276,-0.0892,0,0,0,0,0,0,0,0.0005,-0.0502,-0.0085,-0.0027,0.1356,-0.024,-0.023,0,0,0.0,-0.0651,-0.1458,-0.2301,-0.2985,-0.1709,0.1773,0,0,0,0,0,0.0662,0.0443,-0.0166,-0.0689,-0.0988,-0.1185,-0.1164,-0.0288,-0.0267,-0.0368,-0.1516,-0.1586,-0.142,-0.1281,-0.0198,0.0267,-0.0998,-0.1207,-0.0406,-0.047,-0.0625,-0.039,-0.0133,0.0048,-0.0112,0.1404,-0.0812,-0.0267,0.0048,0.0603,-0.0683,-0.1351,-0.0432,-0.0267,-0.0166,-0.2157,0,0,0,-0.2248,0.0411,-0.0689,-0.0577,0,0,0,0,0.0598,-0.0059,-0.0587,-0.0844,-0.0929,-0.055,-0.0497,-0.0539,-0.0678,-0.1095,-0.1143,-0.1004,-0.0742,-0.0235,0.0251,-0.0091,-0.0411,-0.0689,-0.0918,-0.1009,-0.0929,-0.1153,-0.1068,-0.0224,0.0502,-0.0619,-0.0363,-0.0011,0.0566,-0.0267,-0.1052,-0.0918,-0.0534,-0.1559,-0.3118,0.0,0.0,-0.1447,-0.0731,-0.0721,-0.1495,-0.1276,0,0,0,0,0,0,0,0,0,-0.0272,-0.0416,-0.0534,-0.0464,-0.071,-0.079,-0.0689,-0.0459,-0.0085,0.0272,0.0107,-0.0529,-0.0571,-0.0892,-0.0763,-0.1084,-0.204,-0.2226,0,0,0,0,-0.0166,0.0555,0.0085,-0.0646,-0.0828,0,0,0,0,0,-0.2178,-0.0411,-0.1041,-0.1687,-0.1543,0,0,0,0,0,0,0,0,0,0,0,0,-0.0304,-0.0513,-0.0619,-0.055,-0.0374,-0.0096,0.0176,0.0053,-0.0689,0,0,0,0,0,0,0,0,0,0,0,0,0.0336,-0.023,-0.0678,0,0,0,0,0,-0.1025,-0.0454,-0.1143,-0.1906,-0.1917,0,0,0,0,0,0,0,0,0,0,0,0,0,0,0,0,0,0,0,0,0,0,0,0,0,0,0,0,0,0,0,0,0,0,0,0,0,0,0,0,0,-0.0192,-0.0432,-0.1281,-0.2232,-0.2595,0,0,0,0,0,0,0,0,0,0,0,0,0,0,0,0,0,0,0,0,0,0,0,0,0,0,0,0,0,0,0,0,0,0,0,0,0,0,0,0,0,0.031,-0.0283,-0.1271,-0.2509,-0.33,0,0,0,0,0,0,0,0,0,0,0,0,0,0,0,0,0,0,0,0,0,0,0,0,0,0,0,0,0,0,0,0,0,0,0,0,0,0,0,0,0,0,0.0144,-0.0582,-0.2397,-0.3588,0,0,0,0,0,0,0,0,0,0,0,0,0,0,0,0,0,0,0,0,0,0,0,0,0,0,0,0,0,0,0,0,0,0,0,0,0,0,0,0,0,0,0.0262,0.0166,-0.2013,-0.3609,0,0,0,0,0,0,0,0,0,0,0,0,0,0,0,0,0,0,0,0,0,0,0,0,0,0,0,0,0,0,0,0,0,0,0,0,0,0,0,0,0,0,0.0027,0.0149,-0.166,-0.3588,0,0,0,0,0,0,0,0,0,0,0,0,0,0,0,0,0,0,0,0,0,0,0,0,0,0,0,0,0,0,0,0,0,0,0,0,0,0,0,0,0,0,-0.0016,-0.023,-0.15,-0.3759,0]}]],[[{"header":{"parameterUnit":"kt","parameterCategory":2,"dx":1,"dy":1,"la1":29.46422004699707,"la2":30.564109802246094,"lo1":-89.4342041015625,"lo2":-87.934326171875,"nx":46,"ny":34,"refTime":"2022-09-27T00:00:00:Z","depth":"2","parameterNumber":2,"parameterNumberName":"U-component_of_CURRENTS"},"data":[-0.0982,-0.0892,-0.0763,-0.0609,-0.0427,-0.0214,-0.0101,0,-0.0331,-0.0427,-0.0155,-0.04,-0.078,-0.0988,-0.1297,-0.1644,-0.1981,-0.2355,-0.2947,-0.394,-0.5072,-0.5686,-0.5718,-0.5649,-0.5873,-0.6386,-0.6717,-0.6839,-0.7037,-0.7224,-0.7373,-0.7528,-0.7747,-0.7955,-0.8019,-0.7838,-0.7379,-0.6743,-0.6103,-0.5515,-0.4949,-0.4415,-0.3924,-0.3518,-0.323,-0.3059,-0.0961,-0.0876,-0.0769,-0.0678,-0.0625,-0.0673,-0.086,-0.0993,0,0.0,0.0085,-0.0619,-0.1303,-0.1249,-0.1468,-0.1799,-0.2114,-0.2392,-0.2611,-0.292,-0.3631,-0.465,-0.519,-0.5099,-0.5056,-0.5392,-0.5798,-0.6038,-0.6263,-0.6498,-0.6674,-0.6733,-0.6674,-0.6567,-0.6503,-0.6524,-0.661,-0.6631,-0.646,-0.6119,-0.5734,-0.5366,-0.4976,-0.4592,-0.4271,-0.3994,-0.0838,-0.0817,-0.0758,-0.071,-0.0678,-0.0667,-0.0646,-0.055,0.0085,0.0395,0.016,0,-0.0432,-0.1121,-0.1607,-0.1997,-0.2274,-0.2477,-0.2632,-0.2734,-0.2856,-0.3209,-0.393,-0.4426,-0.4186,-0.4042,-0.4506,-0.4907,-0.504,-0.519,-0.5425,-0.5697,-0.5921,-0.6028,-0.6012,-0.5958,-0.5958,-0.6044,-0.614,-0.614,-0.6001,-0.5756,-0.5457,-0.5158,-0.4917,-0.4778,-0.0475,-0.0619,-0.0657,-0.0673,-0.0689,-0.0699,-0.0683,-0.0625,-0.055,-0.0689,-0.1159,-0.0961,-0.0747,-0.1345,-0.1997,-0.2397,-0.2493,-0.2568,-0.2627,-0.268,-0.2734,-0.2787,-0.2963,-0.3417,-0.3721,-0.3278,-0.3043,-0.354,-0.3967,-0.4261,-0.4656,-0.5104,-0.5499,-0.5793,-0.5841,-0.5756,-0.5734,-0.5814,-0.5948,-0.5996,-0.5894,-0.574,-0.5633,-0.5622,-0.5681,-0.5745,0.0251,-0.016,-0.0422,-0.055,-0.0635,-0.0699,-0.0726,-0.0737,-0.0731,-0.0758,-0.0828,-0.0881,-0.1004,-0.1484,-0.252,-0.2985,-0.2696,-0.2611,-0.2573,-0.2557,-0.2568,-0.2584,-0.2584,-0.2664,-0.2953,-0.3059,-0.2557,-0.2397,-0.2915,-0.3417,-0.3887,-0.4335,-0.4688,-0.4965,-0.5142,-0.5248,-0.535,-0.5521,-0.5788,-0.5948,-0.5884,-0.5707,-0.5558,-0.5558,-0.5702,-0.5878,0.0432,0.0299,-0.0096,-0.0406,-0.0587,-0.0726,-0.079,-0.0796,-0.0785,-0.0785,-0.0812,-0.0806,-0.0699,-0.0609,0,-0.1303,-0.2589,-0.2547,-0.2472,-0.2381,-0.2349,-0.2333,-0.2312,-0.229,-0.2349,-0.2509,-0.2355,-0.2018,-0.2157,-0.2638,-0.3177,-0.3689,-0.4047,-0.4229,-0.4351,-0.4549,-0.48,-0.4997,-0.5168,-0.5312,-0.528,-0.5077,-0.4901,-0.4896,-0.5035,-0.5195,0.1127,0.0844,0.0214,-0.0267,-0.0545,-0.0801,-0.0892,-0.0828,-0.0785,-0.0763,-0.0769,-0.0796,-0.086,-0.094,-0.0977,0,-0.1244,-0.2467,-0.2339,-0.2162,-0.2088,-0.205,-0.2018,-0.1997,-0.2002,-0.2082,-0.2136,-0.1949,-0.1895,-0.2237,-0.2734,-0.3177,-0.3438,-0.3599,-0.3769,-0.3935,-0.4106,-0.4335,-0.4618,-0.4843,-0.4864,-0.4634,-0.4202,-0.3801,-0.3652,-0.3732,0,-0.008,-0.0069,-0.0069,-0.031,-0.079,-0.0961,-0.0742,-0.0678,-0.0667,-0.0667,-0.0678,-0.0699,-0.0774,-0.0876,-0.0918,0,-0.1185,-0.2152,-0.1863,-0.1778,-0.1746,-0.173,-0.173,-0.1735,-0.1783,-0.1943,-0.1959,-0.1794,-0.1949,-0.2365,-0.2686,-0.2846,-0.2974,-0.3166,-0.3369,-0.355,-0.378,-0.4004,-0.4036,-0.3903,-0.3748,-0.3476,-0.3113,-0.2819,-0.2632,0,-0.0481,0,0.0139,0.0278,0,-0.0166,-0.039,-0.0475,-0.0513,-0.0518,-0.0502,-0.0486,-0.0635,-0.0785,-0.0812,-0.0849,0,-0.063,-0.1345,-0.1431,-0.1442,-0.1447,-0.1463,-0.1479,-0.1527,-0.1741,-0.1911,-0.1842,-0.1799,-0.2002,-0.2194,-0.2205,-0.2296,-0.2568,-0.2862,-0.2995,-0.3038,-0.3081,-0.3027,-0.2947,-0.2958,-0.2963,-0.2835,-0.2605,-0.2317,0,0.0497,0.0609,0.0603,0,0.008,-0.0021,-0.0278,-0.0384,-0.0432,-0.0416,-0.0331,-0.0144,-0.0443,-0.0667,-0.0352,-0.024,0,-0.0849,-0.1484,-0.1212,-0.1159,-0.1175,-0.1201,-0.1223,-0.1271,-0.1484,-0.1757,-0.1762,-0.157,-0.15,-0.1506,-0.1543,-0.1687,-0.1938,-0.2221,-0.236,-0.2365,-0.2333,-0.2317,-0.2365,-0.2429,-0.2472,-0.2515,-0.2483,-0.2344,0,0,0,0,0,-0.0235,-0.0432,-0.0406,-0.0432,-0.0464,-0.0448,-0.0352,-0.0283,0,0.0053,0.0171,0.024,0,0,-0.0262,-0.0635,-0.0801,-0.0902,-0.0961,-0.0998,-0.1073,-0.1308,-0.1591,-0.1602,-0.1399,-0.1153,-0.0982,-0.1014,-0.1228,-0.1532,-0.1815,-0.2013,-0.204,-0.1959,-0.1959,-0.205,-0.2242,-0.2339,-0.2312,-0.2349,-0.2355,0,0,0,0,0,0,-0.0155,-0.0374,-0.047,-0.0534,-0.0582,-0.0678,-0.087,-0.0288,0.039,0.0587,0.0801,0,0,-0.0171,-0.0443,-0.0614,-0.0737,-0.0817,-0.0892,-0.103,-0.1308,-0.1623,-0.1634,-0.1415,-0.1303,-0.1426,-0.1618,-0.1692,-0.1725,-0.1783,-0.1783,-0.1725,-0.1714,-0.1741,-0.1895,-0.2328,-0.2723,-0.2654,-0.2403,-0.2349,0,0,0,0,0,0,-0.023,-0.0534,-0.0598,-0.0582,-0.0566,-0.0539,-0.0481,-0.0363,-0.0214,-0.0144,0,0,0,-0.0139,-0.0374,-0.0555,-0.0689,-0.079,-0.0886,-0.103,-0.1265,-0.1575,-0.1794,-0.1794,-0.1735,-0.1735,-0.1692,-0.157,-0.1458,-0.1404,-0.142,-0.1484,-0.1527,-0.1655,-0.2178,-0.2904,-0.3129,-0.2862,-0.2547,-0.2381,0,0,0,0,0,0,-0.0427,-0.0908,-0.0806,-0.0609,-0.0539,-0.0529,-0.0571,-0.0662,-0.0902,-0.1447,-0.1324,-0.0833,0,-0.0144,-0.0395,-0.0598,-0.0742,-0.0849,-0.0929,-0.0993,-0.1052,-0.1153,-0.1303,-0.1361,-0.1351,-0.1345,-0.1319,-0.1308,-0.1361,-0.1474,-0.1602,-0.1719,-0.189,-0.2328,-0.2963,-0.3235,-0.299,-0.2712,-0.2563,-0.2419,0,0,0,0,0,0,0,-0.0625,-0.0886,-0.047,-0.0422,-0.0459,-0.0523,-0.0587,-0.063,-0.0625,-0.047,-0.0336,0,-0.0187,-0.0507,-0.0721,-0.0844,-0.0918,-0.0972,-0.0966,-0.0886,-0.0828,-0.0924,-0.1228,-0.1682,-0.2034,-0.2178,-0.2274,-0.2339,-0.2387,-0.2456,-0.2573,-0.276,-0.3027,-0.3235,-0.3171,-0.299,-0.2904,-0.276,-0.2541,0,0,0,0.0075,0.0155,0,0,0,-0.0011,-0.0085,-0.024,-0.0395,-0.0491,-0.0518,-0.0438,-0.0251,0.0021,0.0171,0,-0.0278,-0.0705,-0.0892,-0.0961,-0.102,-0.1068,-0.1057,-0.1014,-0.1148,-0.1799,-0.2611,-0.2904,-0.283,-0.2771,-0.275,-0.2728,-0.2734,-0.2792,-0.2915,-0.3091,-0.3246,-0.33,-0.3273,-0.3262,-0.3129,-0.2835,-0.2595,0,0,0.0304,-0.0139,-0.1447,-0.1746,-0.165,-0.1778,-0.1223,-0.0507,-0.0363,-0.0497,-0.0603,-0.0619,-0.0497,-0.0166,0.047,0.0881,0,-0.0448,-0.1014,-0.1127,-0.1164,-0.126,-0.1388,-0.1564,-0.1986,-0.2926,-0.378,-0.3812,-0.3358,-0.2942,-0.2766,-0.276,-0.2798,-0.2776,-0.2723,-0.276,-0.2931,-0.3177,-0.3364,-0.3369,-0.3193,-0.2936,-0.2707,-0.2541,0,0,-0.0657,-0.0609,0.0256,0.0406,0,0,-0.0192,-0.0443,-0.055,-0.0694,-0.086,-0.0972,-0.1004,-0.086,-0.0731,0,-0.0865,-0.1655,-0.1559,-0.1532,-0.1607,-0.1741,-0.1938,-0.229,-0.2931,-0.3673,-0.3887,-0.3497,-0.307,-0.2856,-0.2723,-0.267,-0.2755,-0.2776,-0.2702,-0.2718,-0.291,-0.3161,-0.3273,-0.3166,-0.2931,-0.2707,-0.2541,-0.2413,-0.0144,-0.0342,-0.0395,0,0,0,0,0,-0.0315,-0.0742,-0.0886,-0.1004,-0.1212,-0.1495,-0.1933,-0.2712,-0.41,-0.4656,-0.3561,-0.2541,-0.2162,-0.2034,-0.205,-0.2146,-0.2312,-0.2584,-0.3038,-0.3486,-0.3529,-0.3294,-0.3113,-0.2974,-0.2846,-0.2894,-0.3129,-0.3273,-0.3198,-0.3139,-0.3225,-0.33,-0.3219,-0.3001,-0.2739,-0.2509,-0.2349,-0.2253,-0.141,-0.1564,-0.197,-0.126,-0.0673,0,0,0,-0.0352,-0.087,-0.1111,-0.1276,-0.1468,-0.1773,-0.2253,-0.2867,-0.3476,-0.3711,-0.3321,-0.2766,-0.2445,-0.2296,-0.2285,-0.2339,-0.2403,-0.2483,-0.2744,-0.3182,-0.3481,-0.3476,-0.3241,-0.2947,-0.2942,-0.3406,-0.3871,-0.3898,-0.37,-0.3492,-0.3358,-0.3268,-0.3086,-0.2808,-0.252,-0.229,-0.2162,-0.2114,0,-0.0256,-0.063,-0.0897,-0.1025,-0.0998,0,0,-0.0299,-0.086,-0.1265,-0.1495,-0.1612,-0.1815,-0.229,-0.2872,-0.3187,-0.3177,-0.2979,-0.2712,-0.2499,-0.2349,-0.228,-0.2258,-0.2242,-0.2333,-0.2926,-0.3951,-0.4517,-0.4314,-0.3748,-0.3305,-0.3417,-0.393,-0.4095,-0.3844,-0.3647,-0.3321,-0.2904,-0.2696,-0.2621,-0.2488,-0.228,-0.212,-0.205,-0.2045,-0.0342,-0.0267,-0.0288,-0.0582,-0.1185,-0.1826,-0.1746,-0.0902,-0.0432,-0.078,-0.1313,-0.1751,-0.1938,-0.2056,-0.2408,-0.2926,-0.291,-0.2541,-0.2456,-0.2467,-0.2435,-0.2269,-0.2109,-0.204,-0.2306,-0.3353,-0.4346,-0.4698,-0.4698,-0.4271,-0.37,-0.3246,-0.3513,-0.4159,-0.4255,-0.3908,-0.3412,-0.3022,-0.3059,-0.3641,-0.3919,-0.3011,-0.2152,-0.2056,-0.2029,-0.204,0.0011,0.0048,0.0,-0.016,-0.0299,-0.0379,-0.0438,-0.032,-0.0117,-0.0304,-0.0854,-0.1559,-0.1639,-0.1335,0,0,-0.0812,-0.1863,-0.276,-0.3743,-0.3321,-0.229,-0.1869,-0.157,-0.1655,-0.236,-0.2488,-0.2066,0,0,0,-0.157,-0.3828,-0.4832,-0.4949,-0.4298,-0.3438,-0.338,-0.3567,-0.3182,-0.2931,0,-0.1308,-0.244,-0.2189,-0.2077,0,0.0336,0.0577,0.039,0.0272,0.0187,0.008,0.0037,0.0043,0,0,0,-0.0662,-0.1719,-0.1554,-0.0993,0,-0.0747,-0.1863,-0.2221,0,0,0,0,0,0,0,-0.1805,-0.2931,-0.2413,-0.2888,-0.2899,-0.2728,-0.2883,0,0,-0.173,-0.3764,-0.3871,-0.3369,-0.3129,-0.1986,-0.0785,0,0,0,0,0,0.0416,0.0769,0.0641,0.0497,0.0304,-0.0005,-0.0475,-0.0694,-0.0609,-0.0454,-0.0518,-0.0886,-0.1271,-0.1815,-0.2306,-0.2654,-0.3342,-0.3972,-0.393,-0.3695,-0.3203,-0.2531,-0.2467,-0.3091,-0.4052,-0.3673,-0.2611,-0.2344,-0.2435,-0.2819,-0.3257,-0.3374,-0.2894,-0.275,-0.2787,-0.2605,0,0,0,-0.0785,-0.11,-0.0155,0.0518,0,0,0,0,0.0379,0.0902,0.0982,0.0763,0.0422,0.0032,-0.024,-0.0326,-0.0406,-0.0614,-0.0902,-0.118,-0.1458,-0.1757,-0.2077,-0.2451,-0.267,-0.2739,-0.2798,-0.2707,-0.2675,-0.2942,-0.3075,-0.2605,-0.1837,-0.157,-0.1698,-0.1612,-0.1554,-0.1644,-0.1575,-0.1532,-0.2226,-0.3054,-0.3497,-0.3561,-0.2915,-0.158,-0.0785,-0.0513,0.0096,0.0427,0,0,0,0,0,0,0,0,0,0.0048,0.0096,0.0048,-0.0101,-0.0336,-0.0593,-0.0801,-0.094,-0.095,-0.0806,-0.0678,-0.0422,-0.0198,-0.0133,-0.0203,-0.0774,-0.1436,-0.1682,0,0,0,0,0.0021,0.039,0.0502,0.0011,-0.0251,0,0,0,0,0,-0.0502,-0.0966,-0.0833,-0.0625,-0.0374,0,0,0,0,0,0,0,0,0,0,0,0,0.0016,-0.0037,-0.0214,-0.0406,-0.0507,-0.0432,-0.0149,0.0182,0.0326,0,0,0,0,0,0,0,0,0,0,0,0,0.0198,0.0379,0.0374,0,0,0,0,0,-0.0427,-0.1025,-0.1116,-0.0892,-0.0582,0,0,0,0,0,0,0,0,0,0,0,0,0,0,0,0,0,0,0,0,0,0,0,0,0,0,0,0,0,0,0,0,0,0,0,0,0,0,0,0,0,-0.0555,-0.126,-0.1297,-0.1095,-0.0902,0,0,0,0,0,0,0,0,0,0,0,0,0,0,0,0,0,0,0,0,0,0,0,0,0,0,0,0,0,0,0,0,0,0,0,0,0,0,0,0,0,-0.0363,-0.094,-0.1127,-0.1046,-0.0886,0,0,0,0,0,0,0,0,0,0,0,0,0,0,0,0,0,0,0,0,0,0,0,0,0,0,0,0,0,0,0,0,0,0,0,0,0,0,0,0,0,0,0.0854,-0.0005,-0.0699,-0.0774,0,0,0,0,0,0,0,0,0,0,0,0,0,0,0,0,0,0,0,0,0,0,0,0,0,0,0,0,0,0,0,0,0,0,0,0,0,0,0,0,0,0,-0.0032,-0.0251,-0.0566,-0.0635,0,0,0,0,0,0,0,0,0,0,0,0,0,0,0,0,0,0,0,0,0,0,0,0,0,0,0,0,0,0,0,0,0,0,0,0,0,0,0,0,0,0,-0.0091,-0.0192,-0.0347,-0.0411,0,0,0,0,0,0,0,0,0,0,0,0,0,0,0,0,0,0,0,0,0,0,0,0,0,0,0,0,0,0,0,0,0,0,0,0,0,0,0,0,0,0,0.0198,0.0149,-0.0336,-0.0358,0]}],[{"header":{"parameterUnit":"kt","parameterCategory":2,"dx":1,"dy":1,"la1":29.46422004699707,"la2":30.564109802246094,"lo1":-89.4342041015625,"lo2":-87.934326171875,"nx":46,"ny":34,"refTime":"2022-09-27T00:00:00:Z","depth":"2","parameterNumber":3,"parameterNumberName":"V-component_of_CURRENTS"},"data":[-0.0454,-0.0721,-0.0934,-0.1068,-0.1196,-0.1388,-0.1725,0,-0.0737,-0.2194,-0.236,-0.2232,-0.2942,-0.3129,-0.3278,-0.3428,-0.3561,-0.3657,-0.3849,-0.4373,-0.4827,-0.4666,-0.3481,-0.2072,-0.1377,-0.0897,-0.0235,0.0432,0.0833,0.0924,0.079,0.0561,0.0406,0.0443,0.0678,0.102,0.142,0.1842,0.2269,0.2675,0.3075,0.3454,0.3801,0.4122,0.441,0.4634,-0.0555,-0.087,-0.1068,-0.1191,-0.1297,-0.142,-0.1522,-0.0598,0,-0.2483,-0.2445,-0.1901,-0.2947,-0.2915,-0.3001,-0.3193,-0.3369,-0.3476,-0.3529,-0.3615,-0.3983,-0.4469,-0.4586,-0.3476,-0.2045,-0.1228,-0.0763,-0.0299,0.0059,0.0182,0.0149,0.0043,-0.0048,-0.0059,0.0059,0.0304,0.0651,0.1009,0.1356,0.166,0.1922,0.2226,0.2584,0.2979,0.3406,0.3833,-0.0603,-0.0972,-0.1148,-0.1249,-0.1308,-0.1345,-0.1361,-0.1287,-0.0715,-0.2226,-0.2349,0,-0.2552,-0.2483,-0.2584,-0.2915,-0.315,-0.3321,-0.3428,-0.3444,-0.3449,-0.3615,-0.4106,-0.4282,-0.3235,-0.165,-0.0763,-0.055,-0.0406,-0.0347,-0.0379,-0.0363,-0.0272,-0.0128,0.0059,0.0294,0.0582,0.0913,0.1223,0.1458,0.1618,0.1767,0.1991,0.2312,0.267,0.3033,-0.0486,-0.0988,-0.1185,-0.1271,-0.1313,-0.1345,-0.1383,-0.141,-0.1458,-0.1719,-0.1842,-0.063,-0.1692,-0.1789,-0.1943,-0.2696,-0.2985,-0.3182,-0.3321,-0.338,-0.3353,-0.3289,-0.3396,-0.3855,-0.3988,-0.2894,-0.1319,-0.087,-0.1052,-0.1244,-0.1516,-0.1639,-0.1548,-0.1212,-0.0662,0.0021,0.0625,0.1068,0.1351,0.1495,0.1591,0.1714,0.1922,0.2258,0.2611,0.2953,-0.0117,-0.0769,-0.1105,-0.1228,-0.1271,-0.1319,-0.1388,-0.1426,-0.1458,-0.1479,-0.1452,-0.1265,-0.1217,-0.102,-0.1559,-0.2856,-0.2963,-0.3097,-0.3225,-0.3289,-0.3278,-0.3209,-0.315,-0.3289,-0.3711,-0.3716,-0.2387,-0.1175,-0.149,-0.1901,-0.2194,-0.2306,-0.2269,-0.2002,-0.1447,-0.0678,0.0,0.0502,0.0747,0.0886,0.1036,0.1276,0.1618,0.2018,0.2419,0.2787,0.0053,-0.0352,-0.0801,-0.1084,-0.1148,-0.1233,-0.1377,-0.142,-0.1436,-0.1426,-0.1404,-0.1329,-0.1228,-0.0924,0,-0.3086,-0.2985,-0.3027,-0.3166,-0.3214,-0.3187,-0.3118,-0.3043,-0.3027,-0.3235,-0.3679,-0.3262,-0.1153,-0.0993,-0.1399,-0.1559,-0.1474,-0.1399,-0.126,-0.0908,-0.0411,0.0043,0.0363,0.0481,0.0545,0.0641,0.0828,0.1191,0.1639,0.2072,0.2429,-0.0027,0.0214,-0.023,-0.0812,-0.0934,-0.1036,-0.1431,-0.1479,-0.1452,-0.142,-0.141,-0.1388,-0.1345,-0.1239,-0.0619,0,-0.2958,-0.2936,-0.3193,-0.3171,-0.3107,-0.3017,-0.292,-0.2862,-0.2942,-0.3294,-0.3577,-0.1345,-0.0342,-0.0427,-0.0486,-0.0299,-0.0192,-0.0085,0.0085,0.0315,0.055,0.0678,0.0651,0.0545,0.0454,0.0459,0.0651,0.1105,0.1612,0.2002,0,0.0635,0.0128,-0.0539,-0.0651,-0.0897,-0.1671,-0.1612,-0.1511,-0.1463,-0.1447,-0.142,-0.1351,-0.1212,-0.1249,-0.0598,0,-0.2883,-0.3438,-0.3171,-0.3022,-0.291,-0.2787,-0.2696,-0.2707,-0.292,-0.3369,-0.1725,-0.0256,0.016,0.0101,0.0117,0.0085,0.0251,0.0374,0.0464,0.0609,0.0731,0.0667,0.0566,0.0459,0.04,0.0416,0.0731,0.1164,0.1474,0,0.0448,0,-0.0641,-0.0497,0,-0.1746,-0.1655,-0.1559,-0.1527,-0.1527,-0.149,-0.1404,-0.1062,-0.1303,-0.1212,-0.0545,0,-0.2872,-0.3038,-0.291,-0.2787,-0.2648,-0.252,-0.2477,-0.2589,-0.2969,-0.1815,-0.0529,0.0267,0.0208,-0.0027,-0.0192,0.0043,0.0262,0.0336,0.0448,0.0651,0.0662,0.0646,0.0577,0.0464,0.0384,0.0566,0.0924,0.1143,0,0.0198,0.0,-0.0844,0,-0.0235,-0.1452,-0.1554,-0.1586,-0.1618,-0.1666,-0.166,-0.1591,-0.094,-0.1596,-0.141,-0.1217,0,-0.2114,-0.3091,-0.2846,-0.2648,-0.2483,-0.2333,-0.2253,-0.2312,-0.2579,-0.1666,-0.0731,0.0016,0.0005,-0.0272,-0.0427,-0.0155,0.0208,0.0374,0.0459,0.0635,0.0646,0.0694,0.0619,0.0432,0.031,0.04,0.0678,0.0897,0,0,0,0,0,-0.0475,-0.1345,-0.1543,-0.166,-0.1725,-0.181,-0.189,-0.1906,0,-0.1975,-0.1703,-0.1201,0,0,-0.2985,-0.2691,-0.2445,-0.2269,-0.2125,-0.204,-0.2072,-0.2242,-0.1527,-0.0673,-0.032,-0.0251,-0.0363,-0.0262,0.0059,0.0411,0.0582,0.0593,0.0582,0.0614,0.0699,0.0571,0.0395,0.0363,0.0363,0.0497,0.0635,0,0,0,0,0,0,-0.134,-0.1559,-0.1725,-0.1789,-0.1869,-0.1943,-0.197,-0.0918,-0.2109,-0.212,-0.1057,0,0,-0.2488,-0.2376,-0.2162,-0.2013,-0.1895,-0.1821,-0.1821,-0.1911,-0.1548,-0.0635,-0.0438,-0.0299,-0.024,-0.008,0.0224,0.0459,0.0577,0.0545,0.0513,0.0603,0.0662,0.0582,0.0534,0.0555,0.0448,0.0486,0.0539,0,0,0,0,0,0,-0.1089,-0.1506,-0.1773,-0.1847,-0.1895,-0.1917,-0.1949,-0.197,-0.2237,-0.2515,0,0,0,-0.2136,-0.2077,-0.1847,-0.173,-0.166,-0.1596,-0.1548,-0.1564,-0.1479,-0.0812,-0.0427,-0.0304,-0.0224,-0.0198,0.0048,0.0256,0.0427,0.0497,0.0555,0.0619,0.0683,0.0817,0.0838,0.0699,0.0507,0.0523,0.0587,0,0,0,0,0,0,-0.0918,-0.1447,-0.1975,-0.1986,-0.1981,-0.1975,-0.2018,-0.2077,-0.2189,-0.2221,-0.0635,-0.0523,0,-0.1799,-0.1746,-0.15,-0.1431,-0.1426,-0.1393,-0.1351,-0.1324,-0.1255,-0.094,-0.0523,-0.0427,-0.0379,-0.0331,-0.0117,0.0112,0.032,0.0448,0.0513,0.0625,0.0849,0.1089,0.0977,0.0689,0.0603,0.0614,0.0593,0,0,0,0,0,0,0,-0.1415,-0.267,-0.2157,-0.2061,-0.2024,-0.2024,-0.2045,-0.2013,-0.1869,-0.1458,-0.1228,0,-0.1404,-0.1329,-0.1116,-0.1143,-0.1201,-0.1239,-0.1271,-0.1271,-0.1132,-0.0833,-0.0464,-0.0416,-0.0497,-0.0459,-0.0283,-0.0059,0.0155,0.031,0.0406,0.0619,0.094,0.1089,0.0908,0.0753,0.0742,0.0641,0.0513,0,0,0,-0.024,-0.0048,0,0,0,-0.3444,-0.2232,-0.2024,-0.2029,-0.2045,-0.2088,-0.2114,-0.2077,-0.1847,-0.1292,0,-0.086,-0.0817,-0.0758,-0.0897,-0.1004,-0.1116,-0.1255,-0.1313,-0.1014,-0.0464,-0.0272,-0.0454,-0.0646,-0.0651,-0.0497,-0.0251,0.0021,0.0267,0.0411,0.0593,0.086,0.1014,0.0993,0.0972,0.0801,0.055,0.0379,0,0,-0.0288,0.0411,0.0011,-0.0262,0.0,0.0,-0.4164,-0.2675,-0.1911,-0.1981,-0.2056,-0.2178,-0.236,-0.2557,-0.2595,-0.1175,0,0.0011,-0.0288,-0.0481,-0.0699,-0.0828,-0.0972,-0.1148,-0.1185,-0.0812,-0.0336,-0.0481,-0.0673,-0.078,-0.0705,-0.0539,-0.0267,0.0053,0.0347,0.0523,0.0657,0.0876,0.1111,0.1191,0.1089,0.0774,0.0464,0.0283,0,0,-0.0331,0.1303,0.0117,-0.0523,0,0,-0.4282,-0.307,-0.1821,-0.1885,-0.2013,-0.221,-0.2557,-0.307,-0.3556,0,0.0945,0.0593,0.0085,-0.0262,-0.0497,-0.0619,-0.0731,-0.0849,-0.0918,-0.0731,-0.0619,-0.0806,-0.0715,-0.0705,-0.0497,-0.031,-0.0091,0.0166,0.0438,0.0689,0.0881,0.1068,0.1223,0.1201,0.0998,0.0694,0.04,0.0214,0.0342,-0.0481,-0.016,0,0,0,0,0,-0.3518,-0.2851,-0.1757,-0.1746,-0.1869,-0.2034,-0.2328,-0.2734,-0.299,-0.0406,0.1164,0.0497,0.023,-0.0064,-0.0267,-0.0374,-0.0438,-0.0523,-0.071,-0.0721,-0.0662,-0.0742,-0.0566,-0.0464,-0.024,-0.0043,0.0112,0.0192,0.0427,0.0822,0.1095,0.1212,0.1196,0.1041,0.0801,0.0534,0.0288,0.0139,0.0689,-0.0491,-0.0224,-0.0448,-0.0368,0,0,0,-0.2686,-0.2488,-0.1671,-0.1618,-0.1682,-0.1687,-0.1746,-0.1831,-0.1692,-0.0758,0.0208,0.0299,0.0246,0.0101,-0.0037,-0.0149,-0.023,-0.0315,-0.0513,-0.0571,-0.0497,-0.0635,-0.0577,-0.0294,-0.0016,0.0166,0.0192,0.0075,0.0331,0.087,0.1207,0.1249,0.1116,0.086,0.0571,0.032,0.0133,0.0059,0,0.0326,-0.0027,-0.0657,-0.0854,-0.0561,0,0,-0.1831,-0.1901,-0.1474,-0.1474,-0.1628,-0.1361,-0.1127,-0.1159,-0.134,-0.0657,0.0,0.0256,0.0262,0.0208,0.0133,0.0016,-0.0133,-0.0224,-0.0267,-0.0368,-0.063,-0.0966,-0.0945,-0.0299,0.0155,0.0219,0.0166,0.0,0.0368,0.0961,0.1217,0.1244,0.1127,0.0705,0.0384,0.016,0.0005,0.0005,-0.0021,0.0667,0.0272,-0.0149,-0.0561,-0.0929,-0.0534,-0.055,-0.1223,-0.1084,-0.1095,-0.1175,-0.1901,-0.1393,-0.0817,-0.0854,-0.1628,-0.0657,0.0064,0.0502,0.0326,0.024,0.0182,0.0123,-0.0123,-0.071,-0.0742,-0.0507,-0.0801,-0.1265,-0.1201,-0.0475,0.0481,0.0182,-0.0171,-0.0331,0.0272,0.1185,0.1212,0.0726,0.0747,0.0646,0.0256,0.0133,-0.0043,-0.0032,-0.0048,0.0673,0.0481,0.0224,-0.0069,-0.0657,-0.0956,-0.1068,-0.1127,-0.0662,-0.0849,-0.0956,-0.2525,-0.2109,0,0,-0.1959,-0.0534,-0.0075,0.0774,0.0379,0.0235,0.0171,0.0182,-0.0117,-0.1175,-0.1276,-0.1046,0,0,0,0.0972,0.0934,0.1025,-0.0464,-0.0641,-0.023,0.0998,0.0326,-0.0523,-0.0844,0,0.1564,0.0166,-0.0032,-0.0037,0,0.0689,0.0726,0.0448,0.0032,-0.0486,-0.0785,-0.102,-0.1132,0,0,0,-0.2104,-0.2018,-0.0603,-0.0598,0,0.0262,-0.0619,-0.0246,0,0,0,0,0,0,0,0.063,-0.0251,0.0117,0.0187,0.1821,0.0336,0.0331,0,0,0.0646,0.0123,-0.0614,-0.1367,-0.205,-0.1319,0.2451,0,0,0,0,0,0.0876,0.0683,0.0133,-0.0331,-0.0598,-0.078,-0.0753,-0.0101,-0.0085,-0.0182,-0.1084,-0.1148,-0.0982,-0.0854,0.0005,0.0726,-0.0427,-0.0646,-0.0192,-0.0278,-0.0432,-0.0203,0.0085,0.0262,0.0123,0.1805,-0.0374,0.0112,0.0448,0.103,-0.0171,-0.0865,-0.0224,-0.0053,0.0507,-0.1233,0,0,0,-0.1527,0.1116,-0.0368,-0.0294,0,0,0,0,0.0796,0.0214,-0.0256,-0.0481,-0.055,-0.0198,-0.0144,-0.0182,-0.031,-0.071,-0.0758,-0.0614,-0.0352,0.0144,0.0635,0.032,0.0,-0.0315,-0.0561,-0.0657,-0.0577,-0.0427,-0.0107,0.0251,0.0838,-0.0246,-0.0005,0.0326,0.0902,0.0107,-0.0667,-0.0529,-0.0112,-0.0849,-0.2029,0.0,0.0,-0.1143,-0.0107,-0.0053,-0.087,-0.0694,0,0,0,0,0,0,0,0,0,0.0048,-0.0085,-0.0198,-0.0139,-0.039,-0.0464,-0.0368,-0.0144,0.0224,0.0571,0.04,-0.0235,-0.0251,-0.0571,-0.0443,-0.0747,-0.102,-0.0742,0,0,0,0,0.0123,0.0844,0.0347,-0.0358,-0.0523,0,0,0,0,0,-0.1602,0.0155,-0.0427,-0.1084,-0.0966,0,0,0,0,0,0,0,0,0,0,0,0,-0.0021,-0.023,-0.0331,-0.0262,-0.0096,0.0171,0.0427,0.0294,-0.0448,0,0,0,0,0,0,0,0,0,0,0,0,0.055,0.0,-0.0443,0,0,0,0,0,-0.0518,0.0091,-0.0571,-0.1329,-0.1345,0,0,0,0,0,0,0,0,0,0,0,0,0,0,0,0,0,0,0,0,0,0,0,0,0,0,0,0,0,0,0,0,0,0,0,0,0,0,0,0,0,0.0256,0.008,-0.0742,-0.1682,-0.1986,0,0,0,0,0,0,0,0,0,0,0,0,0,0,0,0,0,0,0,0,0,0,0,0,0,0,0,0,0,0,0,0,0,0,0,0,0,0,0,0,0,0.071,0.0176,-0.078,-0.1986,-0.2686,0,0,0,0,0,0,0,0,0,0,0,0,0,0,0,0,0,0,0,0,0,0,0,0,0,0,0,0,0,0,0,0,0,0,0,0,0,0,0,0,0,0,0.055,-0.0149,-0.1927,-0.3038,0,0,0,0,0,0,0,0,0,0,0,0,0,0,0,0,0,0,0,0,0,0,0,0,0,0,0,0,0,0,0,0,0,0,0,0,0,0,0,0,0,0,0.0603,0.0539,-0.1612,-0.3145,0,0,0,0,0,0,0,0,0,0,0,0,0,0,0,0,0,0,0,0,0,0,0,0,0,0,0,0,0,0,0,0,0,0,0,0,0,0,0,0,0,0,0.0304,0.047,-0.1308,-0.3187,0,0,0,0,0,0,0,0,0,0,0,0,0,0,0,0,0,0,0,0,0,0,0,0,0,0,0,0,0,0,0,0,0,0,0,0,0,0,0,0,0,0,0.0235,0.0091,-0.1084,-0.3332,0]}]],[[{"header":{"parameterUnit":"kt","parameterCategory":2,"dx":1,"dy":1,"la1":29.46422004699707,"la2":30.564109802246094,"lo1":-89.4342041015625,"lo2":-87.934326171875,"nx":46,"ny":34,"refTime":"2022-09-27T00:00:00:Z","depth":"4","parameterNumber":2,"parameterNumberName":"U-component_of_CURRENTS"},"data":[-0.0865,-0.0763,-0.0625,-0.047,-0.0288,-0.0085,0.0021,0,-0.0262,-0.0299,-0.0048,-0.0294,-0.0657,-0.0876,-0.1196,-0.1538,-0.1869,-0.2237,-0.2819,-0.3812,-0.4944,-0.5569,-0.5601,-0.5526,-0.575,-0.6263,-0.6594,-0.6717,-0.6909,-0.7101,-0.7245,-0.74,-0.7619,-0.7832,-0.7902,-0.772,-0.7261,-0.6626,-0.5985,-0.5398,-0.4837,-0.4298,-0.3812,-0.3401,-0.3113,-0.2936,-0.0849,-0.0753,-0.0635,-0.0545,-0.0497,-0.0545,-0.0742,-0.0886,0,0.0053,0.0176,-0.0523,-0.1185,-0.1143,-0.1361,-0.1687,-0.1991,-0.2264,-0.2483,-0.2787,-0.3502,-0.4522,-0.5072,-0.4987,-0.4944,-0.5275,-0.5681,-0.5921,-0.6145,-0.637,-0.6546,-0.6604,-0.6546,-0.6439,-0.638,-0.6407,-0.6492,-0.6514,-0.6343,-0.6001,-0.5611,-0.5243,-0.4853,-0.4474,-0.4154,-0.3876,-0.0731,-0.0699,-0.0635,-0.0582,-0.055,-0.0534,-0.0518,-0.0432,0.0187,0.0497,0.0256,0,-0.0384,-0.1025,-0.1495,-0.1869,-0.2141,-0.2344,-0.2499,-0.26,-0.2723,-0.3081,-0.3807,-0.4314,-0.4079,-0.393,-0.4394,-0.4794,-0.4923,-0.5072,-0.5307,-0.5579,-0.5804,-0.591,-0.5894,-0.5841,-0.5846,-0.5932,-0.6022,-0.6022,-0.5889,-0.5638,-0.5334,-0.504,-0.4794,-0.4656,-0.0384,-0.0518,-0.0545,-0.0555,-0.0561,-0.0571,-0.0555,-0.0502,-0.0443,-0.0587,-0.1057,-0.0865,-0.0662,-0.1249,-0.1874,-0.2242,-0.2344,-0.2424,-0.2488,-0.2547,-0.2595,-0.2654,-0.283,-0.3294,-0.3609,-0.3171,-0.2931,-0.3422,-0.3855,-0.4143,-0.4533,-0.4976,-0.5376,-0.5665,-0.5718,-0.5638,-0.5622,-0.5707,-0.5841,-0.5884,-0.5782,-0.5633,-0.5521,-0.551,-0.5563,-0.5627,0.032,-0.0075,-0.032,-0.0438,-0.0513,-0.0571,-0.0603,-0.0614,-0.0625,-0.0662,-0.0742,-0.079,-0.0913,-0.1393,-0.2392,-0.2814,-0.2525,-0.2456,-0.2435,-0.2424,-0.2435,-0.2451,-0.2456,-0.2541,-0.284,-0.2953,-0.2445,-0.228,-0.2798,-0.33,-0.3764,-0.4207,-0.456,-0.4837,-0.5013,-0.5126,-0.5238,-0.5403,-0.567,-0.5825,-0.5766,-0.559,-0.5441,-0.5435,-0.5574,-0.575,0.0486,0.0368,-0.0011,-0.0299,-0.047,-0.0603,-0.0667,-0.0678,-0.0683,-0.0694,-0.0721,-0.0715,-0.0603,-0.0513,0,-0.1228,-0.2429,-0.2387,-0.2328,-0.2253,-0.2221,-0.2205,-0.2189,-0.2168,-0.2232,-0.2408,-0.2253,-0.1906,-0.204,-0.2525,-0.3059,-0.3567,-0.3924,-0.4111,-0.4239,-0.4437,-0.4688,-0.4885,-0.5051,-0.519,-0.5163,-0.496,-0.4784,-0.4773,-0.4912,-0.5072,0.1153,0.0892,0.0288,-0.0166,-0.0432,-0.0678,-0.0774,-0.0721,-0.0683,-0.0673,-0.0678,-0.0699,-0.0758,-0.0838,-0.0876,0,-0.1169,-0.2317,-0.2194,-0.2034,-0.1965,-0.1927,-0.1901,-0.1885,-0.189,-0.1975,-0.2034,-0.1842,-0.1783,-0.213,-0.2621,-0.3065,-0.3326,-0.3492,-0.3663,-0.3828,-0.3999,-0.4218,-0.4501,-0.4725,-0.4746,-0.4517,-0.4084,-0.3689,-0.354,-0.3615,0,-0.0053,0.0,0.0016,-0.0208,-0.0673,-0.0849,-0.0646,-0.0587,-0.0577,-0.0577,-0.0582,-0.0603,-0.0678,-0.0774,-0.0817,0,-0.1111,-0.2013,-0.1741,-0.166,-0.1634,-0.1623,-0.1618,-0.1628,-0.1682,-0.1847,-0.1858,-0.1687,-0.1842,-0.2258,-0.2573,-0.2734,-0.2862,-0.3059,-0.3262,-0.3444,-0.3668,-0.3887,-0.3919,-0.3791,-0.3636,-0.3364,-0.3006,-0.2712,-0.252,0,-0.0432,0,0.0176,0.0347,0,-0.0117,-0.0299,-0.0384,-0.0422,-0.0422,-0.0406,-0.0395,-0.0539,-0.0678,-0.0715,-0.0747,0,-0.0571,-0.1233,-0.1324,-0.1335,-0.1345,-0.1361,-0.1377,-0.1431,-0.1644,-0.1815,-0.1741,-0.1692,-0.1885,-0.2077,-0.2093,-0.2184,-0.2451,-0.2739,-0.2872,-0.292,-0.2963,-0.2915,-0.2835,-0.2851,-0.2851,-0.2723,-0.2499,-0.221,0,0.0539,0.0657,0.0651,0,0.0123,0.0064,-0.0192,-0.0299,-0.0331,-0.0315,-0.023,-0.0064,-0.0358,-0.0571,-0.0267,-0.0144,0,-0.079,-0.1367,-0.1105,-0.1052,-0.1073,-0.1105,-0.1132,-0.118,-0.1388,-0.1655,-0.1655,-0.1463,-0.1383,-0.1388,-0.1431,-0.157,-0.1815,-0.2098,-0.2237,-0.2253,-0.2221,-0.221,-0.2258,-0.2322,-0.2365,-0.2403,-0.2376,-0.2232,0,0,0,0,0,-0.0192,-0.0347,-0.032,-0.0336,-0.0358,-0.0342,-0.0256,-0.0192,0,0.0091,0.0251,0.032,0,0,-0.0214,-0.0539,-0.0705,-0.0806,-0.087,-0.0918,-0.0993,-0.1217,-0.1484,-0.1495,-0.1287,-0.1041,-0.0876,-0.0908,-0.1121,-0.142,-0.1698,-0.1895,-0.1922,-0.1847,-0.1847,-0.1943,-0.213,-0.2221,-0.2194,-0.2237,-0.2242,0,0,0,0,0,0,-0.0112,-0.0283,-0.0374,-0.0427,-0.0481,-0.0593,-0.079,-0.0208,0.0464,0.0657,0.0876,0,0,-0.0123,-0.0352,-0.0523,-0.0646,-0.0737,-0.0817,-0.095,-0.1217,-0.1516,-0.1527,-0.1308,-0.1207,-0.1324,-0.1516,-0.1586,-0.1607,-0.1666,-0.1666,-0.1612,-0.1602,-0.1634,-0.1789,-0.221,-0.26,-0.2531,-0.229,-0.2237,0,0,0,0,0,0,-0.0182,-0.0432,-0.0502,-0.0491,-0.0475,-0.0459,-0.0406,-0.0288,-0.0139,-0.0069,0,0,0,-0.0091,-0.0283,-0.0464,-0.0609,-0.0715,-0.0812,-0.095,-0.1175,-0.1479,-0.1687,-0.1692,-0.1639,-0.1634,-0.1586,-0.1463,-0.1345,-0.1292,-0.1308,-0.1372,-0.142,-0.1548,-0.2061,-0.2771,-0.2995,-0.2739,-0.2435,-0.2269,0,0,0,0,0,0,-0.0384,-0.0812,-0.0721,-0.0534,-0.047,-0.0459,-0.0497,-0.0587,-0.0817,-0.1356,-0.1233,-0.0753,0,-0.0101,-0.031,-0.0513,-0.0667,-0.0769,-0.0854,-0.0908,-0.0961,-0.1068,-0.1207,-0.1265,-0.1249,-0.1244,-0.1217,-0.1201,-0.1255,-0.1361,-0.1495,-0.1607,-0.1773,-0.2205,-0.2824,-0.3091,-0.2851,-0.2589,-0.2451,-0.2312,0,0,0,0,0,0,0,-0.0587,-0.0812,-0.0406,-0.0363,-0.039,-0.0443,-0.0502,-0.0545,-0.0545,-0.0384,-0.0251,0,-0.0144,-0.0422,-0.0646,-0.0774,-0.0849,-0.0897,-0.0881,-0.0806,-0.0747,-0.0833,-0.1132,-0.158,-0.1927,-0.2077,-0.2162,-0.2226,-0.2269,-0.2333,-0.2451,-0.2632,-0.2888,-0.3081,-0.3022,-0.2856,-0.2792,-0.2648,-0.2429,0,0,0,0.0096,0.0192,0,0,0,0.0016,-0.0032,-0.0187,-0.0331,-0.0411,-0.0432,-0.0358,-0.0176,0.0096,0.0251,0,-0.0235,-0.0625,-0.0817,-0.0886,-0.095,-0.0993,-0.0977,-0.0934,-0.1057,-0.1692,-0.2488,-0.2776,-0.2712,-0.2654,-0.2632,-0.2611,-0.2605,-0.2659,-0.2776,-0.2947,-0.3097,-0.315,-0.3134,-0.3139,-0.3011,-0.2723,-0.2488,0,0,0.0331,-0.0091,-0.1383,-0.166,-0.1564,-0.1644,-0.1111,-0.0443,-0.0304,-0.0427,-0.0523,-0.0534,-0.0416,-0.0091,0.055,0.0956,0,-0.0411,-0.094,-0.1057,-0.1089,-0.118,-0.1303,-0.1479,-0.1885,-0.2798,-0.3631,-0.3663,-0.3225,-0.2819,-0.2648,-0.2648,-0.2675,-0.2648,-0.2589,-0.2632,-0.2798,-0.3027,-0.3214,-0.3225,-0.3065,-0.2819,-0.2595,-0.2429,0,0,-0.0619,-0.0545,0.0294,0.0438,0,0,-0.0171,-0.039,-0.0497,-0.0635,-0.0785,-0.0886,-0.0913,-0.0763,-0.063,0,-0.0817,-0.157,-0.1479,-0.1458,-0.1522,-0.165,-0.1847,-0.2189,-0.2803,-0.3518,-0.3727,-0.3348,-0.2942,-0.2739,-0.2611,-0.2552,-0.2627,-0.2643,-0.2568,-0.2595,-0.2776,-0.3011,-0.3123,-0.3022,-0.2803,-0.2589,-0.2429,-0.2306,-0.0133,-0.0288,-0.031,0,0,0,0,0,-0.0294,-0.0699,-0.0833,-0.0945,-0.1137,-0.1399,-0.1815,-0.2563,-0.3898,-0.4453,-0.3417,-0.244,-0.2072,-0.1938,-0.1954,-0.205,-0.2216,-0.2472,-0.2904,-0.3332,-0.3374,-0.3161,-0.3006,-0.2862,-0.2734,-0.2771,-0.2995,-0.3134,-0.3059,-0.3001,-0.3081,-0.315,-0.3075,-0.2862,-0.2611,-0.2392,-0.2242,-0.2146,-0.1351,-0.1468,-0.181,-0.1132,-0.0593,0,0,0,-0.0336,-0.0828,-0.1057,-0.1207,-0.1388,-0.1671,-0.213,-0.2723,-0.3321,-0.3556,-0.3193,-0.2659,-0.2344,-0.22,-0.2189,-0.2242,-0.2301,-0.2381,-0.2627,-0.3049,-0.3348,-0.3364,-0.3134,-0.2835,-0.2819,-0.3262,-0.3721,-0.3759,-0.3561,-0.3348,-0.3209,-0.3118,-0.2942,-0.268,-0.2403,-0.2184,-0.205,-0.2002,0,-0.0235,-0.0571,-0.0817,-0.0924,-0.0897,0,0,-0.0278,-0.0817,-0.1207,-0.142,-0.1532,-0.1719,-0.2173,-0.2739,-0.3049,-0.3038,-0.2862,-0.2605,-0.2397,-0.2248,-0.2184,-0.2162,-0.2157,-0.2237,-0.2771,-0.3647,-0.4132,-0.4015,-0.3561,-0.3171,-0.3278,-0.3764,-0.394,-0.3705,-0.3502,-0.3171,-0.2771,-0.26,-0.2536,-0.2403,-0.2184,-0.2013,-0.1938,-0.1933,-0.031,-0.024,-0.0256,-0.0534,-0.1121,-0.1746,-0.1676,-0.0849,-0.0379,-0.0726,-0.1249,-0.1655,-0.1831,-0.1938,-0.2285,-0.2798,-0.2798,-0.2451,-0.2381,-0.2397,-0.236,-0.2189,-0.2018,-0.1954,-0.22,-0.2846,-0.3332,-0.3609,-0.3823,-0.3748,-0.3465,-0.3107,-0.3342,-0.3919,-0.4036,-0.3737,-0.3273,-0.2915,-0.2931,-0.315,-0.2915,-0.2568,-0.205,-0.1954,-0.1911,-0.1917,0.0027,0.0069,0.0021,-0.0128,-0.0256,-0.0336,-0.039,-0.0272,-0.0075,-0.0256,-0.0796,-0.1468,-0.1532,-0.1223,0,0,-0.0774,-0.1762,-0.2285,-0.2926,-0.2974,-0.2205,-0.1799,-0.149,-0.1452,-0.1442,-0.1041,-0.0961,0,0,0,-0.1447,-0.3273,-0.3951,-0.4533,-0.394,-0.307,-0.26,-0.22,-0.1479,-0.0966,0,-0.1233,-0.2312,-0.2082,-0.1965,0,0.0342,0.0587,0.04,0.0294,0.0219,0.0117,0.0085,0.0091,0,0,0,-0.0609,-0.1607,-0.1463,-0.0929,0,-0.0667,-0.1287,-0.1249,0,0,0,0,0,0,0,-0.1404,-0.2483,-0.2322,-0.2798,-0.2712,-0.2162,-0.1991,0,0,-0.1287,-0.236,-0.134,-0.0539,-0.0721,-0.0742,-0.0609,0,0,0,0,0,0.0416,0.0769,0.0646,0.0518,0.0336,0.0032,-0.0432,-0.0651,-0.0566,-0.0416,-0.047,-0.0828,-0.1212,-0.1746,-0.2205,-0.2371,-0.2718,-0.3171,-0.347,-0.3577,-0.3113,-0.2445,-0.2392,-0.299,-0.393,-0.3567,-0.2515,-0.2258,-0.2333,-0.2616,-0.2819,-0.2798,-0.2557,-0.2589,-0.1751,-0.0726,0,0,0,-0.0486,-0.0518,0.0203,0.0641,0,0,0,0,0.0379,0.0902,0.0988,0.078,0.0443,0.0053,-0.0214,-0.0294,-0.0363,-0.0566,-0.0849,-0.1121,-0.1399,-0.1682,-0.1943,-0.2237,-0.2477,-0.2616,-0.2707,-0.2611,-0.252,-0.2589,-0.2611,-0.2344,-0.1767,-0.1516,-0.1634,-0.1543,-0.1474,-0.1564,-0.1511,-0.1436,-0.1345,-0.1223,-0.1212,-0.1276,-0.15,-0.1111,-0.0651,-0.0336,0.0267,0.0545,0,0,0,0,0,0,0,0,0,0.0059,0.0117,0.0075,-0.0069,-0.0304,-0.0555,-0.0758,-0.0897,-0.0908,-0.0763,-0.063,-0.0374,-0.0144,-0.008,-0.016,-0.0651,-0.0683,-0.0336,0,0,0,0,0.0037,0.0411,0.0539,0.0075,-0.0171,0,0,0,0,0,-0.0422,-0.0812,-0.0683,-0.0497,-0.0267,0,0,0,0,0,0,0,0,0,0,0,0,0.0021,-0.0021,-0.0198,-0.0384,-0.0481,-0.0411,-0.0128,0.0203,0.0342,0,0,0,0,0,0,0,0,0,0,0,0,0.0203,0.0395,0.039,0,0,0,0,0,-0.0384,-0.0902,-0.0972,-0.079,-0.0513,0,0,0,0,0,0,0,0,0,0,0,0,0,0,0,0,0,0,0,0,0,0,0,0,0,0,0,0,0,0,0,0,0,0,0,0,0,0,0,0,0,-0.0497,-0.11,-0.1127,-0.094,-0.0667,0,0,0,0,0,0,0,0,0,0,0,0,0,0,0,0,0,0,0,0,0,0,0,0,0,0,0,0,0,0,0,0,0,0,0,0,0,0,0,0,0,-0.0288,-0.0758,-0.0929,-0.0838,-0.0566,0,0,0,0,0,0,0,0,0,0,0,0,0,0,0,0,0,0,0,0,0,0,0,0,0,0,0,0,0,0,0,0,0,0,0,0,0,0,0,0,0,0,0.0961,0.0144,-0.0507,-0.0502,0,0,0,0,0,0,0,0,0,0,0,0,0,0,0,0,0,0,0,0,0,0,0,0,0,0,0,0,0,0,0,0,0,0,0,0,0,0,0,0,0,0,0.0048,-0.0101,-0.0427,-0.0406,0,0,0,0,0,0,0,0,0,0,0,0,0,0,0,0,0,0,0,0,0,0,0,0,0,0,0,0,0,0,0,0,0,0,0,0,0,0,0,0,0,0,0.0,-0.0037,-0.0219,-0.024,0,0,0,0,0,0,0,0,0,0,0,0,0,0,0,0,0,0,0,0,0,0,0,0,0,0,0,0,0,0,0,0,0,0,0,0,0,0,0,0,0,0,0.023,0.0358,-0.0016,-0.0187,0]}],[{"header":{"parameterUnit":"kt","parameterCategory":2,"dx":1,"dy":1,"la1":29.46422004699707,"la2":30.564109802246094,"lo1":-89.4342041015625,"lo2":-87.934326171875,"nx":46,"ny":34,"refTime":"2022-09-27T00:00:00:Z","depth":"4","parameterNumber":3,"parameterNumberName":"V-component_of_CURRENTS"},"data":[-0.031,-0.0561,-0.0758,-0.0892,-0.1014,-0.1207,-0.1543,0,-0.0587,-0.1986,-0.2162,-0.2056,-0.2728,-0.2915,-0.3081,-0.3246,-0.338,-0.3476,-0.3663,-0.4191,-0.4661,-0.4512,-0.3342,-0.1943,-0.1244,-0.0763,-0.0101,0.0566,0.0966,0.1057,0.0929,0.0699,0.0545,0.0577,0.0812,0.1153,0.1554,0.1975,0.2403,0.2814,0.3214,0.3599,0.3946,0.4271,0.456,0.4789,-0.0395,-0.0699,-0.0892,-0.1014,-0.1121,-0.1244,-0.1345,-0.0513,0,-0.2274,-0.2253,-0.1741,-0.2739,-0.2718,-0.2808,-0.3006,-0.3182,-0.3289,-0.3348,-0.3433,-0.3812,-0.4298,-0.4426,-0.3337,-0.1911,-0.1095,-0.063,-0.016,0.0198,0.032,0.0294,0.0187,0.0096,0.0085,0.0198,0.0443,0.0785,0.1143,0.1484,0.1789,0.2056,0.236,0.2723,0.3118,0.355,0.3978,-0.0448,-0.0806,-0.0982,-0.1078,-0.1137,-0.1175,-0.1185,-0.1111,-0.063,-0.2034,-0.2168,0,-0.2365,-0.2301,-0.2403,-0.2718,-0.2953,-0.3129,-0.3241,-0.3262,-0.3273,-0.3444,-0.3935,-0.4127,-0.3097,-0.1522,-0.063,-0.0416,-0.0272,-0.0214,-0.024,-0.0224,-0.0128,0.0016,0.0198,0.0438,0.0721,0.1046,0.1356,0.1591,0.1751,0.1895,0.213,0.2451,0.2803,0.3171,-0.0342,-0.0828,-0.1014,-0.11,-0.1143,-0.1169,-0.1207,-0.1228,-0.1281,-0.1548,-0.1676,-0.0555,-0.1538,-0.1628,-0.1778,-0.2488,-0.2776,-0.2985,-0.3129,-0.3198,-0.3171,-0.3118,-0.3225,-0.3689,-0.3839,-0.2755,-0.1185,-0.0737,-0.0918,-0.1105,-0.1377,-0.1495,-0.1404,-0.1068,-0.0523,0.016,0.0763,0.1207,0.1484,0.1628,0.1725,0.1847,0.2061,0.2397,0.275,0.3091,0.0016,-0.0614,-0.094,-0.1057,-0.11,-0.1143,-0.1212,-0.1255,-0.1292,-0.1319,-0.1292,-0.1116,-0.1062,-0.086,-0.1404,-0.2648,-0.2744,-0.2888,-0.3033,-0.3102,-0.3097,-0.3033,-0.2985,-0.3123,-0.355,-0.3572,-0.2248,-0.1046,-0.1356,-0.1762,-0.2056,-0.2162,-0.2125,-0.1858,-0.1303,-0.0545,0.0139,0.0641,0.0886,0.1025,0.1175,0.1415,0.1757,0.2162,0.2557,0.2931,0.0171,-0.0214,-0.0651,-0.0918,-0.0982,-0.1062,-0.1201,-0.1244,-0.1265,-0.126,-0.1244,-0.1164,-0.1062,-0.0758,0,-0.2878,-0.2771,-0.2803,-0.2963,-0.3027,-0.3006,-0.2942,-0.2872,-0.2867,-0.3075,-0.3529,-0.3118,-0.102,-0.086,-0.1265,-0.142,-0.1335,-0.1255,-0.1116,-0.0769,-0.0278,0.0182,0.0502,0.0625,0.0689,0.0785,0.0972,0.1329,0.1778,0.221,0.2573,0.0091,0.0331,-0.0091,-0.0657,-0.0774,-0.087,-0.1249,-0.1303,-0.1287,-0.126,-0.1244,-0.1217,-0.1175,-0.1068,-0.0545,0,-0.276,-0.2723,-0.2974,-0.2974,-0.2926,-0.284,-0.2755,-0.2702,-0.2787,-0.3139,-0.3433,-0.1212,-0.0208,-0.0294,-0.0352,-0.016,-0.0059,0.0053,0.0224,0.0454,0.0689,0.0822,0.0796,0.0694,0.0603,0.0603,0.0796,0.1249,0.1757,0.2146,0,0.0731,0.0251,-0.04,-0.0507,-0.0737,-0.149,-0.1442,-0.1345,-0.1297,-0.1276,-0.1244,-0.1175,-0.1041,-0.1084,-0.0518,0,-0.268,-0.3209,-0.2969,-0.284,-0.2734,-0.2621,-0.2536,-0.2552,-0.2766,-0.323,-0.1591,-0.0123,0.0294,0.0235,0.0251,0.0224,0.0384,0.0513,0.0603,0.0747,0.087,0.0812,0.071,0.0603,0.0545,0.0561,0.0876,0.1308,0.1623,0,0.0539,0,-0.0518,-0.0368,0,-0.1575,-0.1484,-0.1393,-0.1356,-0.1351,-0.1308,-0.1223,-0.0902,-0.1121,-0.1046,-0.047,0,-0.267,-0.283,-0.2728,-0.2616,-0.2483,-0.2365,-0.2328,-0.244,-0.283,-0.1682,-0.039,0.0406,0.0347,0.0117,-0.0053,0.0182,0.04,0.0475,0.0593,0.0796,0.0801,0.0785,0.0715,0.0603,0.0518,0.0699,0.1068,0.1287,0,0.0283,0.0,-0.0731,0,-0.0176,-0.1287,-0.1388,-0.142,-0.1442,-0.1474,-0.1468,-0.141,-0.0785,-0.141,-0.1233,-0.1062,0,-0.1943,-0.2878,-0.2664,-0.2483,-0.2322,-0.2178,-0.2109,-0.2168,-0.244,-0.1532,-0.0587,0.0155,0.0149,-0.0128,-0.0283,-0.0016,0.0347,0.0518,0.0603,0.0774,0.079,0.0833,0.0758,0.0571,0.0443,0.0539,0.0817,0.1036,0,0,0,0,0,-0.0347,-0.1185,-0.1367,-0.1474,-0.1532,-0.1612,-0.1698,-0.1725,0,-0.1794,-0.1532,-0.1046,0,0,-0.2776,-0.2504,-0.228,-0.2109,-0.197,-0.1901,-0.1933,-0.2109,-0.1393,-0.0534,-0.0176,-0.0112,-0.0224,-0.0128,0.0192,0.055,0.0721,0.0737,0.0721,0.0758,0.0844,0.0715,0.0539,0.0502,0.0507,0.0635,0.078,0,0,0,0,0,0,-0.118,-0.1377,-0.1527,-0.1591,-0.1676,-0.1757,-0.1794,-0.0838,-0.1938,-0.1943,-0.0908,0,0,-0.2301,-0.22,-0.2002,-0.1858,-0.1751,-0.1682,-0.1682,-0.1773,-0.141,-0.0497,-0.0294,-0.0166,-0.0107,0.0059,0.0363,0.0598,0.0715,0.0683,0.0651,0.0747,0.0801,0.0721,0.0683,0.0705,0.0598,0.063,0.0683,0,0,0,0,0,0,-0.0934,-0.1319,-0.1575,-0.166,-0.1725,-0.1751,-0.1783,-0.181,-0.2066,-0.2333,0,0,0,-0.1959,-0.1901,-0.1692,-0.158,-0.1516,-0.1452,-0.1404,-0.142,-0.1335,-0.0678,-0.0288,-0.0171,-0.0085,-0.0053,0.0187,0.04,0.0566,0.0635,0.0694,0.0758,0.0822,0.0961,0.0998,0.0854,0.0662,0.0667,0.0731,0,0,0,0,0,0,-0.0769,-0.1271,-0.1794,-0.1815,-0.1826,-0.1826,-0.1869,-0.1911,-0.2018,-0.204,-0.0561,-0.0448,0,-0.1628,-0.1575,-0.1351,-0.1287,-0.1281,-0.1249,-0.1207,-0.118,-0.1111,-0.0801,-0.039,-0.0288,-0.024,-0.0187,0.0021,0.0251,0.0459,0.0587,0.0657,0.0769,0.0998,0.1249,0.1137,0.0844,0.0758,0.0763,0.0731,0,0,0,0,0,0,0,-0.126,-0.2483,-0.2002,-0.1917,-0.1879,-0.1874,-0.189,-0.1853,-0.1703,-0.1297,-0.1078,0,-0.1239,-0.1164,-0.0972,-0.1004,-0.1062,-0.1095,-0.1127,-0.1127,-0.0993,-0.0694,-0.032,-0.0267,-0.0347,-0.031,-0.0133,0.0091,0.0304,0.0459,0.0561,0.0774,0.11,0.1255,0.1073,0.0913,0.0902,0.079,0.0657,0,0,0,-0.0171,0.0016,0,0,0,-0.3209,-0.2061,-0.1879,-0.1874,-0.189,-0.1933,-0.1954,-0.1917,-0.1682,-0.1143,0,-0.0699,-0.0667,-0.0625,-0.0763,-0.087,-0.0977,-0.1111,-0.1169,-0.0865,-0.031,-0.0101,-0.0278,-0.047,-0.0481,-0.0331,-0.0085,0.0187,0.0427,0.0571,0.0753,0.102,0.1185,0.1164,0.1132,0.0961,0.0705,0.0534,0,0,-0.0235,0.0545,0.0155,-0.0198,0.0,0.0,-0.3865,-0.2435,-0.1757,-0.1821,-0.1895,-0.2018,-0.2194,-0.2381,-0.2408,-0.1025,0,0.016,-0.0149,-0.0347,-0.0561,-0.0683,-0.0828,-0.0998,-0.1025,-0.0635,-0.0144,-0.0283,-0.0481,-0.0593,-0.0523,-0.0363,-0.0091,0.0224,0.0513,0.0683,0.0817,0.1036,0.1276,0.1356,0.1249,0.0934,0.0619,0.0438,0,0,-0.0166,0.1431,0.0278,-0.0395,0,0,-0.3988,-0.2808,-0.1655,-0.1714,-0.1842,-0.204,-0.2376,-0.2867,-0.3326,0,0.0993,0.0726,0.0224,-0.0112,-0.0342,-0.0459,-0.0566,-0.0683,-0.0742,-0.0529,-0.04,-0.0593,-0.0529,-0.0518,-0.0326,-0.0133,0.0091,0.0342,0.0614,0.0854,0.1041,0.1228,0.1388,0.1361,0.1159,0.0849,0.0555,0.0368,0.0379,-0.0406,0.0085,0,0,0,0,0,-0.3289,-0.2632,-0.1586,-0.1575,-0.1692,-0.1858,-0.2136,-0.252,-0.276,-0.032,0.1281,0.0641,0.0379,0.0096,-0.0096,-0.0203,-0.0267,-0.0347,-0.0523,-0.0513,-0.0454,-0.0539,-0.039,-0.0283,-0.0075,0.0133,0.0304,0.0379,0.0609,0.0993,0.1265,0.1377,0.1361,0.1201,0.0956,0.0689,0.0443,0.0294,0.0763,-0.0336,-0.0005,-0.0374,-0.0304,0,0,0,-0.2488,-0.2296,-0.1506,-0.1436,-0.15,-0.1506,-0.1554,-0.1628,-0.149,-0.0587,0.0358,0.0448,0.0406,0.0262,0.0133,0.0027,-0.0059,-0.0144,-0.0331,-0.0368,-0.0288,-0.0416,-0.0379,-0.0123,0.0155,0.0358,0.04,0.0272,0.0529,0.1052,0.1377,0.141,0.1271,0.1009,0.0721,0.0475,0.0294,0.0219,0,0.0459,0.0112,-0.0529,-0.0731,-0.0486,0,0,-0.1666,-0.1725,-0.1308,-0.1287,-0.141,-0.1159,-0.094,-0.0977,-0.1143,-0.0491,0.0149,0.0395,0.0411,0.0368,0.0299,0.0176,0.0021,-0.0037,-0.0043,-0.0027,-0.0203,-0.0609,-0.0678,-0.0133,0.0336,0.0448,0.0395,0.0214,0.0571,0.1137,0.1367,0.1399,0.126,0.0844,0.0518,0.0315,0.016,0.0166,0.0005,0.0753,0.0368,-0.0053,-0.0443,-0.079,-0.0464,-0.047,-0.1078,-0.0945,-0.094,-0.0998,-0.1628,-0.1121,-0.0625,-0.0678,-0.1442,-0.0507,0.0214,0.063,0.0464,0.0374,0.0331,0.0272,0.0027,-0.0085,0.0256,0.0347,-0.0117,-0.0737,-0.0844,-0.031,0.0694,0.0513,0.0112,-0.0053,0.0486,0.1351,0.1351,0.1308,0.1538,0.078,0.0384,0.0272,0.0117,0.0133,0.0016,0.0742,0.0561,0.031,0.0027,-0.0534,-0.0822,-0.0908,-0.0972,-0.0539,-0.0705,-0.0796,-0.2253,-0.1821,0,0,-0.1778,-0.0384,0.0513,0.1388,0.0529,0.0347,0.0315,0.031,0.0043,0.0064,0.071,0.0416,0,0,0,0.1127,0.141,0.1751,-0.0037,-0.008,0.0187,0.1682,0.1527,0.1265,0.1207,0,0.1783,0.0283,0.0128,0.0123,0,0.0747,0.079,0.0529,0.0123,-0.0379,-0.0657,-0.0876,-0.0988,0,0,0,-0.1901,-0.1815,-0.0529,-0.0545,0,0.0459,0.0416,0.1057,0,0,0,0,0,0,0,0.1463,-0.0128,0.016,0.0246,0.1991,0.1143,0.1308,0,0,0.1522,0.1837,0.166,0.0865,0.0486,-0.0278,0.2787,0,0,0,0,0,0.0929,0.0747,0.0224,-0.0224,-0.0486,-0.0657,-0.0635,-0.0053,-0.0037,-0.0128,-0.0945,-0.1004,-0.0844,-0.0726,0.0069,0.095,0.0347,0.0336,-0.0059,-0.0208,-0.0347,-0.0133,0.0149,0.0336,0.024,0.1933,-0.0187,0.0208,0.0566,0.1212,0.0427,-0.0149,-0.0133,0.0037,0.1911,0.1089,0,0,0,-0.0326,0.1554,-0.0203,-0.0203,0,0,0,0,0.0849,0.0294,-0.0149,-0.0368,-0.0438,-0.0096,-0.0048,-0.0085,-0.0203,-0.0593,-0.0641,-0.0491,-0.0224,0.0262,0.0806,0.0641,0.0315,-0.0117,-0.0427,-0.0518,-0.0384,0.0171,0.0705,0.0475,0.0918,-0.0123,0.0091,0.0422,0.1025,0.0304,-0.0454,-0.0342,0.008,0.0737,0.0497,0.0,0.0,-0.0747,0.0149,0.0358,-0.0571,-0.0502,0,0,0,0,0,0,0,0,0,0.0139,0.0016,-0.0091,-0.0037,-0.0288,-0.0363,-0.0267,-0.0043,0.032,0.0667,0.0523,-0.0101,-0.0112,-0.0432,-0.0336,-0.0502,0.0037,0.0742,0,0,0,0,0.0208,0.0929,0.0432,-0.0214,-0.0374,0,0,0,0,0,-0.1004,0.0368,-0.0133,-0.0838,-0.0769,0,0,0,0,0,0,0,0,0,0,0,0,0.0069,-0.0139,-0.024,-0.0171,-0.0011,0.0256,0.0502,0.0374,-0.0358,0,0,0,0,0,0,0,0,0,0,0,0,0.0619,0.0101,-0.032,0,0,0,0,0,-0.0192,0.0352,-0.0288,-0.1095,-0.1127,0,0,0,0,0,0,0,0,0,0,0,0,0,0,0,0,0,0,0,0,0,0,0,0,0,0,0,0,0,0,0,0,0,0,0,0,0,0,0,0,0,0.0513,0.039,-0.0422,-0.1404,-0.1442,0,0,0,0,0,0,0,0,0,0,0,0,0,0,0,0,0,0,0,0,0,0,0,0,0,0,0,0,0,0,0,0,0,0,0,0,0,0,0,0,0,0.0982,0.0491,-0.0448,-0.1634,-0.1863,0,0,0,0,0,0,0,0,0,0,0,0,0,0,0,0,0,0,0,0,0,0,0,0,0,0,0,0,0,0,0,0,0,0,0,0,0,0,0,0,0,0,0.0849,0.0149,-0.1559,-0.2253,0,0,0,0,0,0,0,0,0,0,0,0,0,0,0,0,0,0,0,0,0,0,0,0,0,0,0,0,0,0,0,0,0,0,0,0,0,0,0,0,0,0,0.0982,0.086,-0.1313,-0.2419,0,0,0,0,0,0,0,0,0,0,0,0,0,0,0,0,0,0,0,0,0,0,0,0,0,0,0,0,0,0,0,0,0,0,0,0,0,0,0,0,0,0,0.063,0.0822,-0.0998,-0.2509,0,0,0,0,0,0,0,0,0,0,0,0,0,0,0,0,0,0,0,0,0,0,0,0,0,0,0,0,0,0,0,0,0,0,0,0,0,0,0,0,0,0,0.0448,0.0598,-0.0331,-0.2483,0]}]],[[{"header":{"parameterUnit":"kt","parameterCategory":2,"dx":1,"dy":1,"la1":29.46422004699707,"la2":30.564109802246094,"lo1":-89.4342041015625,"lo2":-87.934326171875,"nx":46,"ny":34,"refTime":"2022-09-27T00:00:00:Z","depth":"6","parameterNumber":2,"parameterNumberName":"U-component_of_CURRENTS"},"data":[-0.0796,-0.0683,-0.0534,-0.0374,-0.0198,0.0,0.0101,0,-0.0208,-0.0214,0.0011,-0.023,-0.0577,-0.0801,-0.1132,-0.1474,-0.1799,-0.2162,-0.2739,-0.3727,-0.4864,-0.5494,-0.5531,-0.5457,-0.567,-0.6193,-0.6524,-0.6647,-0.6834,-0.7021,-0.7165,-0.732,-0.7539,-0.7758,-0.7827,-0.7651,-0.7192,-0.6562,-0.5921,-0.5334,-0.4773,-0.4239,-0.3748,-0.3342,-0.3049,-0.2867,-0.0769,-0.0667,-0.055,-0.0459,-0.0406,-0.0459,-0.0667,-0.0812,0,0.0085,0.0219,-0.0464,-0.11,-0.1062,-0.1281,-0.1607,-0.1911,-0.2178,-0.2397,-0.2707,-0.3417,-0.4442,-0.5003,-0.4923,-0.4875,-0.5206,-0.5611,-0.5852,-0.6071,-0.6295,-0.6466,-0.6524,-0.646,-0.6359,-0.6305,-0.6332,-0.6423,-0.6444,-0.6273,-0.5932,-0.5537,-0.5168,-0.4784,-0.441,-0.409,-0.3812,-0.0662,-0.0625,-0.0555,-0.0502,-0.0464,-0.0448,-0.0438,-0.0363,0.024,0.0545,0.0304,0,-0.0352,-0.0961,-0.141,-0.1767,-0.204,-0.2248,-0.2403,-0.2509,-0.2632,-0.2995,-0.3727,-0.425,-0.402,-0.3871,-0.4335,-0.473,-0.4864,-0.5013,-0.5243,-0.551,-0.5734,-0.5841,-0.583,-0.5777,-0.5782,-0.5868,-0.5958,-0.5964,-0.5825,-0.5569,-0.527,-0.4971,-0.4725,-0.4586,-0.0326,-0.0448,-0.047,-0.0475,-0.0475,-0.0481,-0.047,-0.0427,-0.0374,-0.0529,-0.0998,-0.0812,-0.0614,-0.1191,-0.1778,-0.2109,-0.2221,-0.2317,-0.2392,-0.2451,-0.2504,-0.2563,-0.275,-0.3219,-0.355,-0.3107,-0.2867,-0.3358,-0.3785,-0.4079,-0.4458,-0.4896,-0.5296,-0.559,-0.5649,-0.5579,-0.5569,-0.5649,-0.5782,-0.582,-0.5723,-0.5574,-0.5462,-0.5446,-0.5499,-0.5563,0.0358,-0.0021,-0.0256,-0.0358,-0.0427,-0.0486,-0.0518,-0.0534,-0.0561,-0.0609,-0.0694,-0.0742,-0.086,-0.1335,-0.228,-0.2648,-0.2365,-0.2333,-0.2328,-0.2328,-0.2344,-0.2365,-0.2371,-0.2467,-0.2771,-0.2894,-0.2387,-0.2216,-0.2734,-0.323,-0.3695,-0.4127,-0.4479,-0.4757,-0.4933,-0.5051,-0.5174,-0.5344,-0.5601,-0.575,-0.5697,-0.5531,-0.5376,-0.5366,-0.5505,-0.5675,0.0518,0.0406,0.0043,-0.023,-0.039,-0.0518,-0.0587,-0.0603,-0.0614,-0.0641,-0.0673,-0.0662,-0.0545,-0.0454,0,-0.1159,-0.228,-0.2242,-0.2216,-0.2157,-0.2136,-0.2125,-0.2109,-0.2093,-0.2168,-0.2349,-0.22,-0.1847,-0.1975,-0.2461,-0.2995,-0.3497,-0.3855,-0.4036,-0.417,-0.4373,-0.4624,-0.4821,-0.4981,-0.512,-0.5099,-0.4896,-0.472,-0.4709,-0.4843,-0.4997,0.1159,0.0908,0.0331,-0.0107,-0.0352,-0.0587,-0.0694,-0.0651,-0.0619,-0.0619,-0.0625,-0.0646,-0.0699,-0.078,-0.0812,0,-0.1105,-0.2173,-0.2072,-0.1943,-0.1885,-0.1853,-0.1831,-0.1815,-0.1831,-0.1917,-0.1981,-0.1789,-0.1725,-0.2072,-0.2563,-0.3006,-0.3262,-0.3433,-0.3604,-0.3769,-0.394,-0.4159,-0.4437,-0.4656,-0.4682,-0.4453,-0.4026,-0.3625,-0.3476,-0.355,0,-0.0032,0.0043,0.0069,-0.0133,-0.0587,-0.0774,-0.0582,-0.0529,-0.0523,-0.0518,-0.0529,-0.055,-0.0619,-0.071,-0.0753,0,-0.1046,-0.1901,-0.1655,-0.1586,-0.1564,-0.1554,-0.1559,-0.157,-0.1628,-0.1799,-0.181,-0.1634,-0.1783,-0.22,-0.252,-0.2675,-0.2808,-0.3001,-0.3203,-0.3385,-0.3609,-0.3828,-0.386,-0.3732,-0.3577,-0.3305,-0.2953,-0.2664,-0.2467,0,-0.04,0,0.0198,0.0395,0,-0.0091,-0.0246,-0.0336,-0.0368,-0.0363,-0.0347,-0.0347,-0.0481,-0.0614,-0.0651,-0.0689,0,-0.0523,-0.1153,-0.1255,-0.1271,-0.1281,-0.1303,-0.1329,-0.1383,-0.1596,-0.1767,-0.1687,-0.1639,-0.1821,-0.2013,-0.2034,-0.212,-0.2381,-0.267,-0.2803,-0.2856,-0.2904,-0.2851,-0.2776,-0.2798,-0.2798,-0.2664,-0.244,-0.2157,0,0.0561,0.0683,0.0683,0,0.0144,0.0112,-0.0144,-0.0246,-0.0272,-0.0246,-0.0166,-0.0027,-0.031,-0.0513,-0.0214,-0.0091,0,-0.0742,-0.1287,-0.1036,-0.0993,-0.102,-0.1052,-0.1084,-0.1137,-0.134,-0.1602,-0.1602,-0.1404,-0.1319,-0.1329,-0.1367,-0.1506,-0.1751,-0.2029,-0.2173,-0.2189,-0.2162,-0.2152,-0.2205,-0.2269,-0.2306,-0.2344,-0.2317,-0.2173,0,0,0,0,0,-0.0166,-0.0299,-0.0272,-0.0283,-0.0283,-0.0272,-0.0203,-0.0144,0,0.0112,0.0288,0.0358,0,0,-0.0187,-0.0486,-0.0651,-0.0758,-0.0828,-0.0876,-0.095,-0.1169,-0.1431,-0.1436,-0.1223,-0.0977,-0.0822,-0.0854,-0.1068,-0.1361,-0.1634,-0.1831,-0.1858,-0.1783,-0.1794,-0.189,-0.2072,-0.2157,-0.213,-0.2178,-0.2189,0,0,0,0,0,0,-0.0085,-0.0224,-0.031,-0.0358,-0.0411,-0.0539,-0.0737,-0.0171,0.0491,0.0689,0.0902,0,0,-0.0091,-0.0299,-0.0475,-0.0603,-0.0694,-0.078,-0.0913,-0.1169,-0.1463,-0.1468,-0.1255,-0.1153,-0.1276,-0.1463,-0.1527,-0.1548,-0.1596,-0.1596,-0.1548,-0.1548,-0.1575,-0.1735,-0.2152,-0.2525,-0.2461,-0.2232,-0.2178,0,0,0,0,0,0,-0.0149,-0.0363,-0.0438,-0.0432,-0.0422,-0.0411,-0.0368,-0.0251,-0.0101,-0.0032,0,0,0,-0.0064,-0.023,-0.0422,-0.0566,-0.0678,-0.0774,-0.0913,-0.1132,-0.1426,-0.1634,-0.1639,-0.1591,-0.1586,-0.1532,-0.1404,-0.1287,-0.1233,-0.1249,-0.1313,-0.1361,-0.149,-0.1991,-0.2686,-0.291,-0.267,-0.2376,-0.2216,0,0,0,0,0,0,-0.0347,-0.0737,-0.0662,-0.0491,-0.0427,-0.0422,-0.0454,-0.0539,-0.0769,-0.1287,-0.1164,-0.0699,0,-0.0075,-0.0256,-0.047,-0.063,-0.0737,-0.0817,-0.087,-0.0924,-0.1025,-0.1159,-0.1212,-0.1196,-0.1191,-0.1164,-0.1148,-0.1201,-0.1308,-0.1436,-0.1548,-0.1709,-0.213,-0.2739,-0.3001,-0.2771,-0.252,-0.2392,-0.2253,0,0,0,0,0,0,0,-0.0561,-0.0769,-0.0374,-0.0336,-0.0358,-0.0395,-0.0448,-0.0497,-0.0497,-0.0342,-0.0203,0,-0.0117,-0.0374,-0.0603,-0.0737,-0.0812,-0.086,-0.0844,-0.0769,-0.071,-0.0796,-0.1084,-0.1522,-0.1869,-0.2018,-0.2109,-0.2168,-0.2205,-0.2269,-0.2381,-0.2557,-0.2803,-0.2985,-0.2926,-0.2776,-0.2728,-0.2589,-0.2371,0,0,0,0.0107,0.0214,0,0,0,0.0032,-0.0005,-0.0166,-0.0294,-0.0363,-0.0374,-0.0315,-0.0133,0.0139,0.0294,0,-0.0214,-0.0582,-0.0785,-0.0854,-0.0913,-0.0956,-0.094,-0.0892,-0.1014,-0.1634,-0.2408,-0.2702,-0.2643,-0.2589,-0.2568,-0.2541,-0.2536,-0.2579,-0.2696,-0.2862,-0.3006,-0.3054,-0.3043,-0.3065,-0.2947,-0.2664,-0.2429,0,0,0.0347,-0.0091,-0.1057,-0.1062,-0.1014,-0.0988,-0.0726,-0.0406,-0.0272,-0.0395,-0.047,-0.0481,-0.0368,-0.0043,0.0587,0.0993,0,-0.039,-0.0902,-0.102,-0.1057,-0.1143,-0.1265,-0.1436,-0.1826,-0.2712,-0.3518,-0.355,-0.3129,-0.2744,-0.2584,-0.2579,-0.2605,-0.2573,-0.2515,-0.2552,-0.2712,-0.2936,-0.3118,-0.3139,-0.2995,-0.2755,-0.2531,-0.2376,0,0,-0.0518,-0.0427,0.0315,0.0443,0,0,-0.0176,-0.0379,-0.047,-0.0603,-0.0731,-0.0828,-0.0844,-0.0689,-0.0555,0,-0.0785,-0.1511,-0.1436,-0.1415,-0.1474,-0.1602,-0.1794,-0.213,-0.2712,-0.339,-0.3577,-0.3219,-0.2846,-0.2664,-0.2541,-0.2483,-0.2547,-0.2557,-0.2493,-0.252,-0.2691,-0.292,-0.3022,-0.2931,-0.2723,-0.252,-0.2371,-0.2248,-0.0149,-0.0123,0.0075,0,0,0,0,0,-0.0288,-0.0683,-0.0812,-0.0913,-0.1084,-0.1324,-0.1714,-0.2408,-0.3668,-0.4207,-0.3257,-0.236,-0.2013,-0.1885,-0.1901,-0.1997,-0.2157,-0.2403,-0.2803,-0.3193,-0.323,-0.3059,-0.2931,-0.2798,-0.2664,-0.2696,-0.2904,-0.3043,-0.2979,-0.292,-0.299,-0.3054,-0.2979,-0.2782,-0.2541,-0.2328,-0.2178,-0.2088,-0.1319,-0.1313,-0.1393,-0.0822,-0.0518,0,0,0,-0.0331,-0.0812,-0.103,-0.1169,-0.1329,-0.1591,-0.2018,-0.2584,-0.3155,-0.3385,-0.3075,-0.2579,-0.2274,-0.2136,-0.2125,-0.2178,-0.2242,-0.2317,-0.2541,-0.2936,-0.3241,-0.3278,-0.3065,-0.2771,-0.2739,-0.3155,-0.3609,-0.3652,-0.346,-0.3246,-0.3107,-0.3017,-0.2846,-0.2595,-0.2328,-0.212,-0.1991,-0.1938,0,-0.0219,-0.0534,-0.0737,-0.071,-0.0571,0,0,-0.0272,-0.0796,-0.1169,-0.1372,-0.1474,-0.1644,-0.2072,-0.2611,-0.291,-0.2904,-0.276,-0.2525,-0.2322,-0.2178,-0.2114,-0.2109,-0.2114,-0.2189,-0.26,-0.323,-0.3508,-0.3422,-0.3278,-0.3081,-0.3161,-0.3609,-0.3801,-0.3599,-0.3385,-0.3065,-0.2702,-0.2552,-0.2499,-0.2365,-0.2141,-0.1954,-0.1869,-0.1863,-0.0299,-0.023,-0.0251,-0.0513,-0.1046,-0.1575,-0.1458,-0.071,-0.0342,-0.0694,-0.1201,-0.158,-0.1698,-0.1741,-0.2098,-0.2659,-0.2686,-0.2365,-0.2317,-0.2355,-0.2317,-0.2141,-0.1965,-0.1901,-0.197,-0.2173,-0.2312,-0.2408,-0.252,-0.2419,-0.2782,-0.2824,-0.3123,-0.347,-0.3561,-0.3422,-0.3102,-0.2835,-0.2835,-0.2659,-0.236,-0.2237,-0.2002,-0.1906,-0.1842,-0.1842,0.0032,0.008,0.0027,-0.0117,-0.024,-0.031,-0.0342,-0.0235,-0.0064,-0.0235,-0.0758,-0.1393,-0.1388,-0.1036,0,0,-0.0747,-0.1666,-0.1853,-0.22,-0.2488,-0.2152,-0.1757,-0.1436,-0.103,-0.0432,0.0283,0.039,0,0,0,-0.1233,-0.2445,-0.2584,-0.3422,-0.3219,-0.244,-0.1975,-0.1522,-0.0651,0.0043,0,-0.1191,-0.2237,-0.2007,-0.189,0,0.0342,0.0582,0.04,0.0299,0.0224,0.0128,0.0101,0.0112,0,0,0,-0.0518,-0.1404,-0.1324,-0.087,0,-0.0566,-0.0635,-0.0133,0,0,0,0,0,0,0,-0.079,-0.1826,-0.2253,-0.2696,-0.2472,-0.1329,-0.0683,0,0,-0.1004,-0.1559,-0.0518,0.0171,0.0908,0.0587,-0.039,0,0,0,0,0,0.0416,0.0758,0.0641,0.0523,0.0352,0.0053,-0.0411,-0.063,-0.055,-0.04,-0.0448,-0.0796,-0.1175,-0.1687,-0.2093,-0.197,-0.1917,-0.1975,-0.228,-0.2696,-0.2493,-0.2205,-0.2312,-0.2819,-0.3433,-0.2979,-0.2237,-0.2173,-0.2226,-0.2312,-0.2226,-0.2029,-0.2066,-0.2397,-0.1153,0.0256,0,0,0,-0.0069,0.0475,0.087,0.0753,0,0,0,0,0.0379,0.0897,0.0982,0.0774,0.0443,0.0059,-0.0208,-0.0278,-0.0336,-0.0539,-0.0817,-0.1078,-0.1345,-0.1607,-0.1741,-0.1826,-0.1874,-0.2018,-0.2269,-0.2301,-0.2136,-0.1922,-0.1938,-0.204,-0.1698,-0.1463,-0.158,-0.1479,-0.1383,-0.1452,-0.1383,-0.1228,-0.087,0.0021,0.1345,0.1885,0.0812,-0.0262,-0.0411,-0.0005,0.0534,0.0641,0,0,0,0,0,0,0,0,0,0.0059,0.0123,0.0085,-0.0053,-0.0288,-0.0534,-0.0731,-0.0865,-0.0876,-0.0726,-0.0582,-0.0294,0.0037,0.0091,-0.0085,-0.0192,0.016,0.0448,0,0,0,0,0.0043,0.0427,0.0566,0.0272,0.0187,0,0,0,0,0,-0.031,-0.0598,-0.0518,-0.0384,-0.0187,0,0,0,0,0,0,0,0,0,0,0,0,0.0027,-0.0016,-0.0187,-0.0374,-0.047,-0.0395,-0.0112,0.0214,0.0352,0,0,0,0,0,0,0,0,0,0,0,0,0.0208,0.0406,0.0395,0,0,0,0,0,-0.0315,-0.0705,-0.0774,-0.0689,-0.0454,0,0,0,0,0,0,0,0,0,0,0,0,0,0,0,0,0,0,0,0,0,0,0,0,0,0,0,0,0,0,0,0,0,0,0,0,0,0,0,0,0,-0.0336,-0.0737,-0.079,-0.0721,-0.0523,0,0,0,0,0,0,0,0,0,0,0,0,0,0,0,0,0,0,0,0,0,0,0,0,0,0,0,0,0,0,0,0,0,0,0,0,0,0,0,0,0,-0.0101,-0.0304,-0.0454,-0.0443,-0.0214,0,0,0,0,0,0,0,0,0,0,0,0,0,0,0,0,0,0,0,0,0,0,0,0,0,0,0,0,0,0,0,0,0,0,0,0,0,0,0,0,0,0,0.1532,0.055,-0.0069,0.0032,0,0,0,0,0,0,0,0,0,0,0,0,0,0,0,0,0,0,0,0,0,0,0,0,0,0,0,0,0,0,0,0,0,0,0,0,0,0,0,0,0,0,0.0182,0.0133,-0.0128,-0.0027,0,0,0,0,0,0,0,0,0,0,0,0,0,0,0,0,0,0,0,0,0,0,0,0,0,0,0,0,0,0,0,0,0,0,0,0,0,0,0,0,0,0,0.0251,0.0518,0.0294,0.0187,0,0,0,0,0,0,0,0,0,0,0,0,0,0,0,0,0,0,0,0,0,0,0,0,0,0,0,0,0,0,0,0,0,0,0,0,0,0,0,0,0,0,0.0678,0.1452,0.1303,0.0705,0]}],[{"header":{"parameterUnit":"kt","parameterCategory":2,"dx":1,"dy":1,"la1":29.46422004699707,"la2":30.564109802246094,"lo1":-89.4342041015625,"lo2":-87.934326171875,"nx":46,"ny":34,"refTime":"2022-09-27T00:00:00:Z","depth":"6","parameterNumber":3,"parameterNumberName":"V-component_of_CURRENTS"},"data":[-0.0224,-0.0464,-0.0651,-0.0774,-0.0897,-0.1078,-0.141,0,-0.0497,-0.1826,-0.2007,-0.1922,-0.2547,-0.2734,-0.2936,-0.3113,-0.3251,-0.3353,-0.354,-0.4068,-0.456,-0.4415,-0.3262,-0.1874,-0.1175,-0.0694,-0.0027,0.0635,0.1036,0.1127,0.1004,0.0774,0.0619,0.0651,0.0881,0.1223,0.1618,0.2045,0.2477,0.2883,0.3289,0.3673,0.402,0.4346,0.464,0.4869,-0.0304,-0.0593,-0.078,-0.0902,-0.1009,-0.1127,-0.1228,-0.0459,0,-0.2114,-0.2098,-0.1623,-0.2563,-0.2552,-0.2654,-0.2867,-0.3049,-0.3161,-0.3225,-0.3321,-0.3705,-0.4191,-0.4335,-0.3262,-0.1847,-0.1025,-0.0555,-0.0091,0.0267,0.0395,0.0368,0.0267,0.0171,0.016,0.0278,0.0518,0.0854,0.1207,0.1554,0.1858,0.2125,0.2429,0.2792,0.3193,0.3625,0.4052,-0.0352,-0.0699,-0.0876,-0.0966,-0.1025,-0.1062,-0.1068,-0.0998,-0.0571,-0.189,-0.2029,0,-0.2221,-0.2168,-0.2258,-0.2563,-0.2808,-0.299,-0.3107,-0.3139,-0.3161,-0.3337,-0.3828,-0.4036,-0.3022,-0.1452,-0.0561,-0.0347,-0.0203,-0.0139,-0.0166,-0.0144,-0.0053,0.0091,0.0278,0.0513,0.079,0.1111,0.142,0.1655,0.1815,0.1959,0.2194,0.2515,0.2872,0.3241,-0.0251,-0.0726,-0.0913,-0.0993,-0.103,-0.1057,-0.1089,-0.1111,-0.1169,-0.1431,-0.1559,-0.0513,-0.1436,-0.1516,-0.1655,-0.2317,-0.2611,-0.283,-0.299,-0.307,-0.3054,-0.3006,-0.3118,-0.3588,-0.3753,-0.268,-0.1121,-0.0667,-0.0849,-0.1036,-0.1303,-0.142,-0.1324,-0.0988,-0.0443,0.023,0.0833,0.1271,0.1554,0.1692,0.1794,0.1917,0.213,0.2467,0.2824,0.3161,0.0096,-0.0523,-0.0838,-0.095,-0.0988,-0.103,-0.1095,-0.1143,-0.118,-0.1207,-0.1185,-0.102,-0.0961,-0.0747,-0.1292,-0.2467,-0.2552,-0.2718,-0.2883,-0.2974,-0.2974,-0.292,-0.2878,-0.3022,-0.346,-0.3486,-0.2178,-0.0977,-0.1287,-0.1692,-0.1981,-0.2088,-0.2045,-0.1783,-0.1228,-0.0475,0.0208,0.0705,0.0956,0.1095,0.1244,0.1484,0.1831,0.2232,0.2632,0.3006,0.0246,-0.0133,-0.0555,-0.0817,-0.0876,-0.095,-0.1084,-0.1132,-0.1159,-0.1159,-0.1137,-0.1057,-0.095,-0.0651,0,-0.2696,-0.2584,-0.2616,-0.2803,-0.2888,-0.2883,-0.283,-0.2771,-0.2771,-0.2985,-0.3444,-0.3049,-0.0956,-0.0796,-0.1201,-0.1351,-0.126,-0.1185,-0.1046,-0.0699,-0.0208,0.0251,0.0571,0.0699,0.0763,0.086,0.1046,0.1404,0.1847,0.228,0.2643,0.016,0.04,-0.0011,-0.0561,-0.0678,-0.0763,-0.1127,-0.1191,-0.1175,-0.1153,-0.1132,-0.11,-0.1057,-0.0961,-0.0491,0,-0.2584,-0.2536,-0.2798,-0.2835,-0.2798,-0.2728,-0.2648,-0.2611,-0.2696,-0.3049,-0.3364,-0.1143,-0.0144,-0.023,-0.0288,-0.0091,0.0011,0.0123,0.0294,0.0523,0.0758,0.0897,0.0876,0.0769,0.0683,0.0683,0.0876,0.1324,0.1826,0.2216,0,0.0785,0.0326,-0.0315,-0.0422,-0.0635,-0.1367,-0.1324,-0.1239,-0.1191,-0.1164,-0.1121,-0.1052,-0.0929,-0.0972,-0.047,0,-0.2509,-0.3011,-0.2819,-0.2718,-0.2627,-0.2525,-0.2445,-0.2467,-0.2686,-0.3155,-0.1522,-0.0059,0.0363,0.0304,0.032,0.0299,0.0454,0.0582,0.0673,0.0822,0.0945,0.0886,0.0785,0.0678,0.0619,0.0635,0.095,0.1383,0.1698,0,0.0587,0,-0.0448,-0.0288,0,-0.1452,-0.1367,-0.1287,-0.1249,-0.1228,-0.1185,-0.1095,-0.0801,-0.0998,-0.094,-0.0422,0,-0.2504,-0.267,-0.26,-0.2504,-0.2387,-0.2274,-0.2242,-0.236,-0.276,-0.1612,-0.032,0.0475,0.0416,0.0187,0.0021,0.0246,0.0464,0.055,0.0662,0.0865,0.0876,0.0854,0.0785,0.0667,0.0582,0.0769,0.1137,0.1361,0,0.0336,0.0,-0.0662,0,-0.0133,-0.1175,-0.1281,-0.1308,-0.1319,-0.134,-0.1335,-0.1281,-0.0689,-0.1281,-0.1116,-0.0961,0,-0.1821,-0.2707,-0.2531,-0.2371,-0.2226,-0.2093,-0.2029,-0.2093,-0.2371,-0.1463,-0.0513,0.023,0.0224,-0.0053,-0.0208,0.0053,0.0411,0.0587,0.0678,0.0844,0.086,0.0902,0.0828,0.0641,0.0507,0.0603,0.0881,0.1105,0,0,0,0,0,-0.0272,-0.1078,-0.1255,-0.1345,-0.1393,-0.1474,-0.1564,-0.1596,0,-0.166,-0.141,-0.0945,0,0,-0.2611,-0.2376,-0.2173,-0.2018,-0.189,-0.1826,-0.1863,-0.2045,-0.1324,-0.0459,-0.0101,-0.0037,-0.016,-0.0059,0.0256,0.0614,0.079,0.0806,0.079,0.0828,0.0913,0.0785,0.0614,0.0577,0.0577,0.0705,0.0849,0,0,0,0,0,0,-0.1073,-0.1249,-0.1383,-0.1452,-0.1543,-0.1628,-0.1666,-0.078,-0.1815,-0.1821,-0.0812,0,0,-0.2152,-0.2077,-0.1901,-0.1767,-0.1671,-0.1607,-0.1607,-0.1703,-0.1345,-0.0432,-0.0224,-0.0101,-0.0043,0.0123,0.0427,0.0667,0.078,0.0758,0.0721,0.0817,0.0876,0.0796,0.0758,0.078,0.0678,0.0705,0.0758,0,0,0,0,0,0,-0.0833,-0.1191,-0.1431,-0.1532,-0.1602,-0.1634,-0.1666,-0.1698,-0.1943,-0.22,0,0,0,-0.1826,-0.1783,-0.1602,-0.1495,-0.1436,-0.1377,-0.1329,-0.1345,-0.1265,-0.0609,-0.0224,-0.0107,-0.0016,0.0021,0.0256,0.0464,0.0635,0.0705,0.0763,0.0828,0.0892,0.1036,0.1078,0.0929,0.0742,0.0742,0.0801,0,0,0,0,0,0,-0.0678,-0.1153,-0.1666,-0.1698,-0.1719,-0.173,-0.1762,-0.1805,-0.189,-0.1906,-0.0513,-0.0406,0,-0.1511,-0.1463,-0.1265,-0.1207,-0.1207,-0.1175,-0.1127,-0.11,-0.1036,-0.0731,-0.032,-0.0219,-0.0171,-0.0117,0.0091,0.0315,0.0529,0.0657,0.0726,0.0838,0.1073,0.1329,0.1223,0.0924,0.0838,0.0838,0.0801,0,0,0,0,0,0,0,-0.1159,-0.2312,-0.1906,-0.1821,-0.1783,-0.1778,-0.1783,-0.1741,-0.1586,-0.1196,-0.0982,0,-0.1132,-0.1068,-0.0897,-0.0934,-0.0988,-0.1025,-0.1052,-0.1052,-0.0918,-0.0619,-0.0246,-0.0187,-0.0267,-0.023,-0.0059,0.0166,0.0384,0.0534,0.0641,0.0854,0.1185,0.1351,0.1164,0.0993,0.0982,0.0865,0.0726,0,0,0,-0.0107,0.0064,0,0,0,-0.2707,-0.1943,-0.1783,-0.1773,-0.1789,-0.1826,-0.1847,-0.181,-0.1575,-0.1046,0,-0.0603,-0.0582,-0.055,-0.0699,-0.0801,-0.0908,-0.1041,-0.11,-0.079,-0.0219,-0.0005,-0.0176,-0.0374,-0.0384,-0.0235,0.0005,0.0272,0.0513,0.0657,0.0838,0.1111,0.1276,0.1255,0.1217,0.1052,0.078,0.0609,0,0,-0.0203,0.0726,0.0315,-0.016,0.0,0.0,-0.2995,-0.2136,-0.166,-0.1709,-0.1783,-0.1906,-0.2077,-0.2253,-0.2269,-0.0934,0,0.024,-0.0069,-0.0278,-0.0491,-0.0609,-0.0747,-0.0918,-0.094,-0.0529,-0.0021,-0.0149,-0.0358,-0.0475,-0.0422,-0.0262,0.0005,0.032,0.0603,0.0769,0.0902,0.1121,0.1367,0.1442,0.1335,0.102,0.0699,0.0518,0,0,0.031,0.1666,0.0497,-0.0315,0,0,-0.3273,-0.2451,-0.1554,-0.1596,-0.173,-0.1922,-0.2237,-0.2696,-0.3123,0,0.1004,0.0796,0.0299,-0.0037,-0.0256,-0.0368,-0.0481,-0.0587,-0.063,-0.0384,-0.024,-0.0438,-0.0406,-0.04,-0.023,-0.0032,0.0192,0.0448,0.071,0.094,0.1127,0.1319,0.1474,0.1447,0.1239,0.0934,0.0635,0.0448,0.0395,-0.0315,0.0945,0,0,0,0,0,-0.2931,-0.2413,-0.1484,-0.1458,-0.1575,-0.1735,-0.1986,-0.2339,-0.2563,-0.0262,0.1324,0.071,0.0459,0.0187,0.0,-0.0107,-0.0171,-0.0246,-0.0411,-0.0363,-0.0288,-0.039,-0.0278,-0.0176,0.0021,0.0235,0.0416,0.0497,0.0715,0.1084,0.1351,0.1468,0.1452,0.1281,0.1036,0.0769,0.0523,0.0374,0.0785,-0.0182,0.0491,-0.0304,-0.0262,0,0,0,-0.2285,-0.212,-0.1399,-0.1313,-0.1372,-0.1377,-0.1415,-0.1474,-0.1335,-0.0475,0.0432,0.0529,0.0486,0.0352,0.023,0.0123,0.0032,-0.0053,-0.0214,-0.0214,-0.0128,-0.0262,-0.0246,-0.0027,0.0256,0.0481,0.0534,0.0406,0.0657,0.1159,0.1463,0.1484,0.134,0.1078,0.079,0.0555,0.0374,0.0299,0,0.0545,0.0219,-0.0438,-0.0619,-0.0326,0,0,-0.1511,-0.1586,-0.1196,-0.1164,-0.1233,-0.1009,-0.0801,-0.0849,-0.0998,-0.0384,0.0224,0.0464,0.0481,0.0448,0.039,0.0267,0.0096,0.0048,0.0182,0.0278,0.0198,-0.0096,-0.0288,-0.0048,0.0459,0.0651,0.0587,0.0374,0.0726,0.1239,0.1431,0.1463,0.1313,0.0902,0.0577,0.039,0.0251,0.0251,0.0021,0.0796,0.0416,-0.0011,-0.0352,-0.0571,-0.0384,-0.0342,-0.0972,-0.0854,-0.0833,-0.0886,-0.1281,-0.0758,-0.0475,-0.0566,-0.1303,-0.0406,0.0294,0.0689,0.0529,0.0432,0.0422,0.0336,0.0299,0.047,0.0929,0.1319,0.0598,0.0198,0.0027,-0.0053,0.0881,0.1025,0.0657,0.0379,0.0737,0.1442,0.142,0.173,0.1901,0.0849,0.0443,0.0326,0.0208,0.0219,0.0043,0.0769,0.0603,0.0358,0.0075,-0.0438,-0.0699,-0.0726,-0.0892,-0.0464,-0.0609,-0.0694,-0.181,-0.134,0,0,-0.1644,-0.0256,0.0908,0.1709,0.0598,0.0395,0.04,0.0368,0.0507,0.1009,0.1607,0.1869,0,0,0,0.1313,0.1826,0.2397,0.0854,0.0609,0.0822,0.2114,0.1815,0.1741,0.2403,0,0.1938,0.0326,0.0219,0.0214,0,0.0769,0.0822,0.0577,0.0176,-0.0315,-0.0587,-0.0785,-0.0908,0,0,0,-0.1644,-0.1543,-0.0475,-0.0507,0,0.0651,0.1249,0.2285,0,0,0,0,0,0,0,0.2456,0.0112,0.0187,0.0278,0.2146,0.1895,0.2226,0,0,0.2157,0.2771,0.2104,0.1367,0.2344,0.0956,0.3161,0,0,0,0,0,0.095,0.078,0.0278,-0.016,-0.0411,-0.0587,-0.0566,-0.0027,-0.0016,-0.0101,-0.0849,-0.0913,-0.0753,-0.0646,0.0112,0.1191,0.1062,0.1591,0.0363,0.0011,-0.0117,-0.0037,0.0182,0.0374,0.0374,0.2104,0.0112,0.0256,0.063,0.1399,0.1116,0.0731,0.0064,0.0117,0.2477,0.2814,0,0,0,0.1233,0.2226,0.0064,-0.0128,0,0,0,0,0.087,0.0347,-0.008,-0.0288,-0.0363,-0.0032,0.0011,-0.0027,-0.0139,-0.0518,-0.0566,-0.0416,-0.0144,0.0336,0.0972,0.095,0.0758,0.0486,0.0096,-0.0214,0.0037,0.0737,0.1212,0.0747,0.0977,0.0,0.0144,0.0481,0.1132,0.0529,-0.0016,0.0144,0.023,0.1351,0.2702,0.0,0.0,-0.0112,0.0614,0.0966,-0.0171,-0.0342,0,0,0,0,0,0,0,0,0,0.0192,0.008,-0.0021,0.0032,-0.0219,-0.0299,-0.0198,0.0021,0.0379,0.0731,0.0625,0.0053,0.0208,0.0166,-0.0198,0.0149,0.1111,0.1682,0,0,0,0,0.0267,0.0982,0.0497,0.0069,-0.0027,0,0,0,0,0,-0.0053,0.0726,0.0214,-0.0593,-0.0603,0,0,0,0,0,0,0,0,0,0,0,0,0.0133,-0.0075,-0.0176,-0.0112,0.0048,0.031,0.055,0.0438,-0.0283,0,0,0,0,0,0,0,0,0,0,0,0,0.0662,0.0187,-0.0208,0,0,0,0,0,0.0384,0.0817,0.0048,-0.0822,-0.0945,0,0,0,0,0,0,0,0,0,0,0,0,0,0,0,0,0,0,0,0,0,0,0,0,0,0,0,0,0,0,0,0,0,0,0,0,0,0,0,0,0,0.1196,0.0982,0.0059,-0.0966,-0.1068,0,0,0,0,0,0,0,0,0,0,0,0,0,0,0,0,0,0,0,0,0,0,0,0,0,0,0,0,0,0,0,0,0,0,0,0,0,0,0,0,0,0.2082,0.1244,0.0128,-0.0972,-0.1084,0,0,0,0,0,0,0,0,0,0,0,0,0,0,0,0,0,0,0,0,0,0,0,0,0,0,0,0,0,0,0,0,0,0,0,0,0,0,0,0,0,0,0.1741,0.063,-0.0838,-0.1116,0,0,0,0,0,0,0,0,0,0,0,0,0,0,0,0,0,0,0,0,0,0,0,0,0,0,0,0,0,0,0,0,0,0,0,0,0,0,0,0,0,0,0.1863,0.1319,-0.0683,-0.1137,0,0,0,0,0,0,0,0,0,0,0,0,0,0,0,0,0,0,0,0,0,0,0,0,0,0,0,0,0,0,0,0,0,0,0,0,0,0,0,0,0,0,0.1789,0.1543,-0.0256,-0.11,0,0,0,0,0,0,0,0,0,0,0,0,0,0,0,0,0,0,0,0,0,0,0,0,0,0,0,0,0,0,0,0,0,0,0,0,0,0,0,0,0,0,0.1874,0.1879,0.103,-0.0459,0]}]],[[{"header":{"parameterUnit":"kt","parameterCategory":2,"dx":1,"dy":1,"la1":29.46422004699707,"la2":30.564109802246094,"lo1":-89.4342041015625,"lo2":-87.934326171875,"nx":46,"ny":34,"refTime":"2022-09-27T00:00:00:Z","depth":"8","parameterNumber":2,"parameterNumberName":"U-component_of_CURRENTS"},"data":[-0.0731,-0.0609,-0.0454,-0.0288,-0.0112,0.0075,0.0171,0,-0.0155,-0.0128,0.0053,-0.0171,-0.0491,-0.0715,-0.1073,-0.1415,-0.1735,-0.2098,-0.267,-0.3652,-0.4794,-0.5435,-0.5478,-0.5398,-0.5611,-0.6135,-0.6471,-0.6594,-0.6775,-0.6957,-0.7096,-0.725,-0.7475,-0.7699,-0.7774,-0.7598,-0.7144,-0.6508,-0.5873,-0.5291,-0.473,-0.4191,-0.3705,-0.3294,-0.3001,-0.2814,-0.0699,-0.0587,-0.047,-0.0374,-0.0326,-0.0379,-0.0593,-0.0742,0,0.0107,0.0246,-0.04,-0.0993,-0.0966,-0.1191,-0.1527,-0.1826,-0.2098,-0.2317,-0.2632,-0.3348,-0.4367,-0.4944,-0.488,-0.4827,-0.5152,-0.5558,-0.5798,-0.6017,-0.6236,-0.6402,-0.6455,-0.6391,-0.6295,-0.6247,-0.6279,-0.6364,-0.6391,-0.622,-0.5878,-0.5483,-0.5115,-0.4736,-0.4362,-0.4047,-0.3769,-0.0593,-0.055,-0.0475,-0.0422,-0.0384,-0.0368,-0.0363,-0.0304,0.0283,0.0571,0.0336,0,-0.032,-0.0881,-0.1292,-0.1639,-0.1927,-0.2146,-0.2312,-0.2424,-0.2552,-0.2926,-0.3663,-0.4197,-0.3978,-0.3828,-0.4287,-0.4688,-0.4816,-0.4965,-0.5195,-0.5462,-0.5686,-0.5793,-0.5782,-0.5734,-0.5734,-0.5825,-0.5916,-0.5916,-0.5777,-0.5521,-0.5216,-0.4917,-0.4677,-0.4538,-0.0278,-0.039,-0.0406,-0.0395,-0.039,-0.0395,-0.0384,-0.0352,-0.0315,-0.0475,-0.0929,-0.0753,-0.0571,-0.1116,-0.1639,-0.1911,-0.2056,-0.2189,-0.2285,-0.236,-0.2419,-0.2483,-0.268,-0.3161,-0.3502,-0.3065,-0.2819,-0.331,-0.3737,-0.4026,-0.4399,-0.4832,-0.5232,-0.5526,-0.559,-0.5531,-0.5526,-0.5611,-0.574,-0.5777,-0.5686,-0.5537,-0.5419,-0.5403,-0.5457,-0.5515,0.039,0.0021,-0.0198,-0.0288,-0.0347,-0.04,-0.0432,-0.0459,-0.0491,-0.0561,-0.0646,-0.0694,-0.0812,-0.1265,-0.2109,-0.2397,-0.2125,-0.2168,-0.221,-0.2232,-0.2258,-0.2285,-0.2301,-0.2403,-0.2723,-0.2851,-0.2339,-0.2162,-0.268,-0.3182,-0.3636,-0.4058,-0.4405,-0.4688,-0.4864,-0.4997,-0.5126,-0.5296,-0.5547,-0.5697,-0.5649,-0.5483,-0.5328,-0.5312,-0.5451,-0.5622,0.0534,0.0432,0.0085,-0.0166,-0.031,-0.0432,-0.0502,-0.0523,-0.0555,-0.0593,-0.0625,-0.0614,-0.0497,-0.04,0,-0.1052,-0.2056,-0.2034,-0.2082,-0.2061,-0.205,-0.205,-0.2045,-0.2034,-0.2114,-0.2312,-0.2168,-0.1805,-0.1927,-0.2413,-0.2942,-0.3438,-0.3796,-0.3983,-0.4122,-0.433,-0.4581,-0.4773,-0.4933,-0.5067,-0.5045,-0.4848,-0.4672,-0.4661,-0.4789,-0.4944,0.1137,0.0908,0.0363,-0.0048,-0.0278,-0.0497,-0.0609,-0.0577,-0.0561,-0.0571,-0.0577,-0.0593,-0.0646,-0.0715,-0.0747,0,-0.1004,-0.1959,-0.1922,-0.1847,-0.1805,-0.1789,-0.1773,-0.1762,-0.1783,-0.1874,-0.1943,-0.1751,-0.1682,-0.2029,-0.2525,-0.2963,-0.3219,-0.339,-0.3561,-0.3732,-0.3898,-0.4116,-0.4389,-0.4608,-0.4634,-0.441,-0.3983,-0.3583,-0.3433,-0.3502,0,-0.0021,0.0075,0.0117,-0.0069,-0.0497,-0.0689,-0.0518,-0.0475,-0.0475,-0.047,-0.0475,-0.0502,-0.0561,-0.0646,-0.0689,0,-0.095,-0.1741,-0.1554,-0.1516,-0.1506,-0.15,-0.1511,-0.1527,-0.1591,-0.1762,-0.1778,-0.1596,-0.1746,-0.2162,-0.2477,-0.2638,-0.2766,-0.2969,-0.3171,-0.3348,-0.3567,-0.3785,-0.3817,-0.3689,-0.3534,-0.3262,-0.2915,-0.2627,-0.2429,0,-0.0368,0,0.0214,0.0427,0,-0.0064,-0.0198,-0.0294,-0.0315,-0.0304,-0.0294,-0.0304,-0.0432,-0.0555,-0.0593,-0.0625,0,-0.047,-0.1062,-0.1191,-0.1217,-0.1233,-0.126,-0.1292,-0.1345,-0.1564,-0.1735,-0.1655,-0.1596,-0.1778,-0.197,-0.1991,-0.2077,-0.2333,-0.2621,-0.2755,-0.2814,-0.2862,-0.2808,-0.2739,-0.276,-0.2755,-0.2627,-0.2403,-0.2125,0,0.0571,0.0699,0.0699,0,0.0166,0.0149,-0.0107,-0.0203,-0.0214,-0.0182,-0.0112,0.0,-0.0272,-0.0454,-0.0176,-0.0048,0,-0.0678,-0.1185,-0.0972,-0.0945,-0.0977,-0.1014,-0.1052,-0.1105,-0.1308,-0.1564,-0.1564,-0.1361,-0.1276,-0.1281,-0.1324,-0.1463,-0.1698,-0.1981,-0.2125,-0.2146,-0.212,-0.2114,-0.2168,-0.2232,-0.2269,-0.2306,-0.2274,-0.2136,0,0,0,0,0,-0.0139,-0.0251,-0.023,-0.023,-0.0214,-0.0203,-0.0149,-0.0101,0,0.0123,0.031,0.0379,0,0,-0.0155,-0.0438,-0.0614,-0.0721,-0.0796,-0.0854,-0.0929,-0.1137,-0.1393,-0.1399,-0.118,-0.0934,-0.078,-0.0817,-0.103,-0.1319,-0.1591,-0.1783,-0.181,-0.1741,-0.1757,-0.1853,-0.2029,-0.2109,-0.2088,-0.2141,-0.2146,0,0,0,0,0,0,-0.0059,-0.0171,-0.0246,-0.0283,-0.0347,-0.0481,-0.0683,-0.0133,0.0502,0.0689,0.0908,0,0,-0.0069,-0.0251,-0.0438,-0.0571,-0.0673,-0.0758,-0.0892,-0.1137,-0.142,-0.1426,-0.1212,-0.1121,-0.1244,-0.1426,-0.149,-0.1506,-0.1548,-0.1548,-0.1506,-0.1506,-0.1538,-0.1698,-0.2104,-0.2472,-0.2408,-0.2189,-0.2141,0,0,0,0,0,0,-0.0117,-0.0294,-0.0374,-0.0379,-0.0368,-0.0368,-0.0331,-0.0219,-0.0075,-0.0011,0,0,0,-0.0037,-0.0187,-0.0384,-0.0539,-0.0657,-0.0758,-0.0892,-0.1105,-0.1388,-0.1591,-0.1602,-0.1559,-0.1548,-0.1495,-0.1367,-0.1249,-0.1191,-0.1207,-0.1276,-0.1324,-0.1452,-0.1949,-0.2621,-0.2846,-0.2616,-0.2333,-0.2173,0,0,0,0,0,0,-0.031,-0.0657,-0.0598,-0.0448,-0.039,-0.0384,-0.0411,-0.0491,-0.071,-0.1196,-0.1084,-0.0651,0,-0.0048,-0.0214,-0.0438,-0.0603,-0.0715,-0.0796,-0.0844,-0.0897,-0.0993,-0.1127,-0.118,-0.1159,-0.1153,-0.1132,-0.1116,-0.1164,-0.1271,-0.1393,-0.1511,-0.1666,-0.2077,-0.2664,-0.292,-0.2702,-0.2472,-0.2349,-0.2216,0,0,0,0,0,0,0,-0.0529,-0.0715,-0.0342,-0.0315,-0.0326,-0.0352,-0.0395,-0.0448,-0.0448,-0.0299,-0.0166,0,-0.0096,-0.0331,-0.0577,-0.0715,-0.0796,-0.0833,-0.0817,-0.0742,-0.0683,-0.0769,-0.1052,-0.1484,-0.1831,-0.1981,-0.2066,-0.2125,-0.2157,-0.2221,-0.2333,-0.2499,-0.2734,-0.2899,-0.284,-0.2712,-0.268,-0.2552,-0.2333,0,0,0,0.0112,0.023,0,0,0,0.0043,0.0005,-0.0155,-0.0267,-0.031,-0.032,-0.0267,-0.0096,0.0171,0.032,0,-0.0192,-0.055,-0.0758,-0.0833,-0.0892,-0.0929,-0.0913,-0.087,-0.0988,-0.1586,-0.2349,-0.2638,-0.2589,-0.2541,-0.252,-0.2493,-0.2477,-0.252,-0.2632,-0.2792,-0.2926,-0.2969,-0.2969,-0.3006,-0.2899,-0.2621,-0.2392,0,0,-0.0048,-0.0662,-0.0635,-0.0043,0.024,0.0149,-0.0384,-0.0368,-0.0251,-0.0368,-0.0422,-0.0422,-0.032,-0.0011,0.0609,0.1009,0,-0.0368,-0.087,-0.0998,-0.103,-0.1116,-0.1233,-0.1404,-0.1783,-0.2627,-0.339,-0.3422,-0.3033,-0.2675,-0.2531,-0.2525,-0.2547,-0.2509,-0.2451,-0.2493,-0.2648,-0.2867,-0.3043,-0.307,-0.2936,-0.2702,-0.2488,-0.2333,0,0,-0.0133,0.0032,0.0384,0.0422,0,0,-0.0198,-0.0395,-0.0454,-0.0571,-0.0678,-0.0753,-0.0763,-0.0603,-0.0459,0,-0.0737,-0.1442,-0.1404,-0.1383,-0.1442,-0.1564,-0.1757,-0.2082,-0.2627,-0.3235,-0.3385,-0.3065,-0.2744,-0.2595,-0.2488,-0.2429,-0.2483,-0.2488,-0.2429,-0.2461,-0.2627,-0.284,-0.2942,-0.2856,-0.2664,-0.2472,-0.2322,-0.2205,-0.0972,-0.0737,0.0464,0,0,0,0,0,-0.0283,-0.0667,-0.079,-0.0876,-0.1014,-0.1223,-0.1564,-0.2173,-0.3284,-0.378,-0.2979,-0.2264,-0.1954,-0.1837,-0.1853,-0.1954,-0.2114,-0.2344,-0.2691,-0.3006,-0.3033,-0.2931,-0.2862,-0.2744,-0.2611,-0.2632,-0.283,-0.2969,-0.2904,-0.2851,-0.2915,-0.2974,-0.2899,-0.2712,-0.2483,-0.228,-0.2136,-0.204,-0.1089,-0.0753,-0.0395,-0.0278,-0.0448,0,0,0,-0.0304,-0.078,-0.1004,-0.1116,-0.1249,-0.1474,-0.1853,-0.236,-0.2867,-0.3091,-0.2904,-0.2493,-0.221,-0.2077,-0.2072,-0.213,-0.2189,-0.2264,-0.2456,-0.2803,-0.3091,-0.3177,-0.3006,-0.2718,-0.267,-0.3054,-0.3486,-0.354,-0.3358,-0.315,-0.3022,-0.2926,-0.2766,-0.2531,-0.2274,-0.2066,-0.1943,-0.189,0,-0.0214,-0.0459,-0.0545,-0.0395,-0.0187,0,0,-0.0267,-0.078,-0.1132,-0.1303,-0.1393,-0.1543,-0.1927,-0.2413,-0.267,-0.268,-0.2627,-0.2435,-0.2248,-0.2109,-0.2056,-0.2061,-0.2072,-0.2125,-0.2376,-0.2728,-0.2878,-0.2872,-0.2878,-0.2856,-0.299,-0.3342,-0.355,-0.3422,-0.3219,-0.292,-0.2627,-0.2504,-0.2456,-0.2322,-0.2088,-0.1901,-0.1815,-0.1805,-0.0294,-0.0224,-0.0251,-0.0491,-0.094,-0.0897,-0.0278,-0.0053,-0.0262,-0.0667,-0.1153,-0.1474,-0.1484,-0.1388,-0.1778,-0.2435,-0.2488,-0.2205,-0.2162,-0.2253,-0.2253,-0.2082,-0.1906,-0.1847,-0.1895,-0.1725,-0.1383,-0.1265,-0.1543,-0.173,-0.2285,-0.2648,-0.2654,-0.2723,-0.283,-0.2835,-0.2675,-0.2659,-0.267,-0.1981,-0.1853,-0.2125,-0.1933,-0.1853,-0.1783,-0.1767,0.0037,0.008,0.0021,-0.0112,-0.023,-0.0256,-0.0182,-0.0123,-0.0059,-0.0219,-0.0721,-0.1297,-0.1132,-0.0673,0,0,-0.0705,-0.1538,-0.1639,-0.1954,-0.2301,-0.2066,-0.1698,-0.1383,-0.0908,-0.0037,0.0908,0.1297,0,0,0,-0.0908,-0.1639,-0.1511,-0.2066,-0.2125,-0.1436,-0.1062,-0.0416,0.0203,0.0561,0,-0.1116,-0.2114,-0.1927,-0.181,0,0.0331,0.0561,0.0384,0.0294,0.0224,0.0133,0.0107,0.0117,0,0,0,-0.0368,-0.1036,-0.1068,-0.0801,0,-0.0432,-0.0144,0.0561,0,0,0,0,0,0,0,0.0139,-0.0796,-0.2088,-0.2445,-0.1991,-0.0443,0.047,0,0,-0.0133,-0.0064,0.0523,0.1121,0.1527,0.0801,-0.0112,0,0,0,0,0,0.04,0.0731,0.0614,0.0513,0.0358,0.0064,-0.039,-0.0609,-0.0529,-0.039,-0.0432,-0.0763,-0.1127,-0.1602,-0.1911,-0.15,-0.1068,-0.0448,-0.0267,-0.0609,-0.0838,-0.157,-0.2168,-0.2477,-0.2456,-0.1794,-0.1655,-0.2024,-0.205,-0.1901,-0.1185,-0.0422,-0.079,-0.1377,-0.0198,0.0956,0,0,0,0.0336,0.1388,0.1474,0.087,0,0,0,0,0.0368,0.087,0.095,0.0758,0.0432,0.0053,-0.0208,-0.0262,-0.032,-0.0507,-0.0774,-0.1025,-0.1276,-0.1484,-0.1426,-0.1207,-0.0689,-0.032,-0.0683,-0.1244,-0.1591,-0.1564,-0.157,-0.1767,-0.1575,-0.1383,-0.1495,-0.1383,-0.1228,-0.0838,-0.0737,-0.0854,-0.0246,0.0689,0.1644,0.1975,0.1863,0.1436,0.0796,0.079,0.087,0.0742,0,0,0,0,0,0,0,0,0,0.0059,0.0117,0.0091,-0.0043,-0.0278,-0.0513,-0.0699,-0.0828,-0.0833,-0.0678,-0.0326,0.0336,0.0849,0.0571,0.0011,-0.0037,0.0288,0.0464,0,0,0,0,0.0048,0.0432,0.0587,0.031,0.0214,0,0,0,0,0,0.0064,0.0016,-0.0171,-0.0203,-0.0059,0,0,0,0,0,0,0,0,0,0,0,0,0.0027,-0.0011,-0.0176,-0.0358,-0.0448,-0.0379,-0.0101,0.0224,0.0363,0,0,0,0,0,0,0,0,0,0,0,0,0.0214,0.0416,0.04,0,0,0,0,0,-0.0037,-0.0133,-0.0368,-0.0523,-0.0363,0,0,0,0,0,0,0,0,0,0,0,0,0,0,0,0,0,0,0,0,0,0,0,0,0,0,0,0,0,0,0,0,0,0,0,0,0,0,0,0,0,0.0342,0.0678,0.0262,-0.0262,-0.0288,0,0,0,0,0,0,0,0,0,0,0,0,0,0,0,0,0,0,0,0,0,0,0,0,0,0,0,0,0,0,0,0,0,0,0,0,0,0,0,0,0,0.0566,0.1436,0.1335,0.063,0.0432,0,0,0,0,0,0,0,0,0,0,0,0,0,0,0,0,0,0,0,0,0,0,0,0,0,0,0,0,0,0,0,0,0,0,0,0,0,0,0,0,0,0,0.1052,0.165,0.1762,0.102,0,0,0,0,0,0,0,0,0,0,0,0,0,0,0,0,0,0,0,0,0,0,0,0,0,0,0,0,0,0,0,0,0,0,0,0,0,0,0,0,0,0,0.0331,0.1057,0.1516,0.1228,0,0,0,0,0,0,0,0,0,0,0,0,0,0,0,0,0,0,0,0,0,0,0,0,0,0,0,0,0,0,0,0,0,0,0,0,0,0,0,0,0,0,0.0326,0.0913,0.1159,0.0812,0,0,0,0,0,0,0,0,0,0,0,0,0,0,0,0,0,0,0,0,0,0,0,0,0,0,0,0,0,0,0,0,0,0,0,0,0,0,0,0,0,0,0.0518,0.1148,0.0993,0.0507,0]}],[{"header":{"parameterUnit":"kt","parameterCategory":2,"dx":1,"dy":1,"la1":29.46422004699707,"la2":30.564109802246094,"lo1":-89.4342041015625,"lo2":-87.934326171875,"nx":46,"ny":34,"refTime":"2022-09-27T00:00:00:Z","depth":"8","parameterNumber":3,"parameterNumberName":"V-component_of_CURRENTS"},"data":[-0.0155,-0.0379,-0.055,-0.0667,-0.078,-0.095,-0.126,0,-0.0411,-0.1628,-0.1805,-0.1757,-0.2296,-0.2467,-0.2766,-0.2979,-0.3134,-0.3246,-0.3438,-0.3962,-0.4474,-0.4341,-0.3209,-0.1826,-0.1132,-0.0646,0.0016,0.0683,0.1084,0.118,0.1052,0.0828,0.0673,0.0699,0.0929,0.1271,0.1666,0.2088,0.252,0.2936,0.3337,0.3727,0.4074,0.4394,0.4693,0.4928,-0.0224,-0.0497,-0.0678,-0.0796,-0.0897,-0.1009,-0.11,-0.0406,0,-0.1895,-0.1895,-0.1484,-0.2317,-0.2312,-0.2445,-0.2712,-0.291,-0.3033,-0.3107,-0.3214,-0.3615,-0.41,-0.4261,-0.3214,-0.1799,-0.0982,-0.0507,-0.0043,0.032,0.0448,0.0422,0.032,0.023,0.0219,0.0331,0.0566,0.0897,0.1249,0.1596,0.1895,0.2168,0.2472,0.284,0.3241,0.3673,0.4106,-0.0272,-0.0603,-0.0774,-0.0865,-0.0918,-0.095,-0.095,-0.0881,-0.0513,-0.1709,-0.1847,0,-0.2024,-0.1981,-0.2056,-0.2365,-0.2643,-0.2846,-0.2979,-0.3027,-0.3059,-0.3246,-0.3737,-0.3972,-0.2969,-0.1404,-0.0513,-0.0299,-0.0155,-0.0091,-0.0117,-0.0096,0.0,0.0144,0.0331,0.0566,0.0838,0.1159,0.1463,0.1692,0.1853,0.1997,0.2237,0.2563,0.292,0.3289,-0.0171,-0.0635,-0.0812,-0.0886,-0.0918,-0.0945,-0.0977,-0.0993,-0.1046,-0.1297,-0.1426,-0.0464,-0.1313,-0.1383,-0.1495,-0.2072,-0.2403,-0.2664,-0.2846,-0.2947,-0.2947,-0.2904,-0.3033,-0.3508,-0.3684,-0.2627,-0.1073,-0.0625,-0.0801,-0.0988,-0.1249,-0.1361,-0.1265,-0.0929,-0.039,0.0278,0.0876,0.1319,0.1596,0.1735,0.1837,0.1959,0.2178,0.2515,0.2867,0.3209,0.0166,-0.0438,-0.0742,-0.0849,-0.0881,-0.0918,-0.0977,-0.1025,-0.1062,-0.1095,-0.1073,-0.0924,-0.0865,-0.0641,-0.1153,-0.221,-0.2274,-0.2509,-0.2723,-0.284,-0.2862,-0.2819,-0.2787,-0.2942,-0.3385,-0.3428,-0.2125,-0.0934,-0.1239,-0.1644,-0.1933,-0.2029,-0.1986,-0.1725,-0.1175,-0.0432,0.0256,0.0753,0.1004,0.1137,0.1292,0.1532,0.1879,0.228,0.268,0.3054,0.031,-0.0059,-0.0475,-0.0721,-0.0774,-0.0838,-0.0961,-0.102,-0.1046,-0.1052,-0.103,-0.095,-0.0844,-0.055,0,-0.2424,-0.2317,-0.2355,-0.2616,-0.2744,-0.2766,-0.2728,-0.268,-0.2691,-0.2915,-0.338,-0.2995,-0.0908,-0.0747,-0.1153,-0.1308,-0.1212,-0.1132,-0.0993,-0.0651,-0.016,0.0299,0.0619,0.0753,0.0817,0.0913,0.11,0.1452,0.189,0.2322,0.2696,0.0224,0.0448,0.0053,-0.0481,-0.0593,-0.0662,-0.0998,-0.1068,-0.1068,-0.1046,-0.102,-0.0982,-0.094,-0.0854,-0.0438,0,-0.2328,-0.2274,-0.2573,-0.268,-0.268,-0.2632,-0.2563,-0.2536,-0.2627,-0.2985,-0.331,-0.1095,-0.0101,-0.0187,-0.0246,-0.0043,0.0059,0.0171,0.0342,0.0571,0.0806,0.0945,0.0929,0.0822,0.0737,0.0737,0.0924,0.1372,0.1869,0.2264,0,0.0812,0.0384,-0.0246,-0.0352,-0.0539,-0.1228,-0.1196,-0.1127,-0.1084,-0.1046,-0.0998,-0.0929,-0.0822,-0.086,-0.0422,0,-0.2264,-0.2744,-0.2648,-0.2595,-0.2531,-0.244,-0.2371,-0.2403,-0.2621,-0.3102,-0.1474,-0.0016,0.0406,0.0347,0.0368,0.0342,0.0497,0.0625,0.0721,0.0865,0.0993,0.094,0.0833,0.0731,0.0667,0.0683,0.0998,0.1436,0.1746,0,0.0619,0,-0.0384,-0.0224,0,-0.1324,-0.1244,-0.1175,-0.1132,-0.1105,-0.1052,-0.0972,-0.0699,-0.087,-0.0833,-0.0374,0,-0.2269,-0.2483,-0.2477,-0.2408,-0.2306,-0.2205,-0.2184,-0.2301,-0.2707,-0.1564,-0.0272,0.0518,0.0464,0.0235,0.0069,0.0288,0.0507,0.0593,0.071,0.0913,0.0924,0.0897,0.0833,0.071,0.0625,0.0812,0.1185,0.141,0,0.0379,0.0,-0.0603,0,-0.0101,-0.1062,-0.1164,-0.1185,-0.1185,-0.1196,-0.1191,-0.1143,-0.0598,-0.1143,-0.0998,-0.0865,0,-0.1666,-0.2483,-0.2397,-0.2274,-0.2146,-0.2024,-0.197,-0.2045,-0.2328,-0.1415,-0.0459,0.0278,0.0272,-0.0005,-0.016,0.0096,0.0454,0.063,0.0726,0.0892,0.0908,0.095,0.0876,0.0683,0.055,0.0646,0.0924,0.1148,0,0,0,0,0,-0.0203,-0.0977,-0.1132,-0.1207,-0.1244,-0.1313,-0.1404,-0.1447,0,-0.1511,-0.1281,-0.0849,0,0,-0.2381,-0.2242,-0.2082,-0.1943,-0.1826,-0.1773,-0.1815,-0.1997,-0.1281,-0.0411,-0.0048,0.0011,-0.0117,-0.0016,0.0299,0.0657,0.0833,0.0854,0.0833,0.0876,0.0956,0.0833,0.0662,0.0619,0.0625,0.0753,0.0892,0,0,0,0,0,0,-0.0966,-0.1121,-0.1223,-0.1292,-0.1388,-0.1479,-0.1516,-0.0721,-0.166,-0.1671,-0.0721,0,0,-0.1959,-0.1949,-0.1815,-0.1703,-0.1612,-0.1554,-0.1559,-0.1655,-0.1297,-0.039,-0.0176,-0.0059,-0.0005,0.0166,0.047,0.071,0.0822,0.0801,0.0769,0.0865,0.0918,0.0838,0.0812,0.0833,0.0731,0.0753,0.0801,0,0,0,0,0,0,-0.0737,-0.1052,-0.1271,-0.1383,-0.1463,-0.1506,-0.1532,-0.1564,-0.1789,-0.2018,0,0,0,-0.1666,-0.166,-0.1527,-0.1431,-0.1383,-0.1324,-0.1276,-0.1292,-0.1217,-0.0566,-0.0176,-0.0064,0.0027,0.0069,0.0304,0.0513,0.0678,0.0747,0.0806,0.0876,0.094,0.1084,0.1137,0.0982,0.0796,0.079,0.0844,0,0,0,0,0,0,-0.0587,-0.1036,-0.1516,-0.1564,-0.1596,-0.1618,-0.1644,-0.1671,-0.1741,-0.1741,-0.0459,-0.0368,0,-0.1377,-0.1356,-0.1196,-0.1148,-0.1153,-0.1121,-0.1073,-0.1046,-0.0982,-0.0683,-0.0278,-0.0176,-0.0123,-0.0069,0.0133,0.0363,0.0571,0.0705,0.0774,0.0886,0.1121,0.1383,0.1287,0.0982,0.0886,0.0886,0.0844,0,0,0,0,0,0,0,-0.1046,-0.2082,-0.1773,-0.1703,-0.1671,-0.166,-0.1655,-0.1607,-0.1458,-0.1095,-0.0897,0,-0.1025,-0.0982,-0.0838,-0.0881,-0.094,-0.0972,-0.1004,-0.1004,-0.087,-0.0571,-0.0198,-0.0133,-0.0214,-0.0176,-0.0005,0.0219,0.0432,0.0587,0.0694,0.0908,0.1249,0.1415,0.1228,0.1052,0.1036,0.0913,0.0769,0,0,0,-0.0048,0.031,0,0,0,-0.221,-0.1783,-0.1676,-0.1655,-0.1666,-0.1698,-0.1719,-0.1676,-0.1458,-0.095,0,-0.0518,-0.0513,-0.0502,-0.0651,-0.0753,-0.086,-0.0993,-0.1046,-0.0737,-0.016,0.0064,-0.0096,-0.0294,-0.0315,-0.0166,0.0069,0.0336,0.0571,0.071,0.0892,0.1169,0.1345,0.1324,0.1276,0.1111,0.0833,0.0657,0,0,-0.0278,0.024,0.1036,-0.0128,0.0,0.0,-0.2002,-0.1692,-0.1559,-0.1575,-0.1655,-0.1767,-0.1922,-0.2077,-0.2077,-0.0849,0,0.0299,-0.0016,-0.023,-0.0443,-0.0555,-0.0694,-0.086,-0.0876,-0.0443,0.0091,-0.0021,-0.0251,-0.0379,-0.0342,-0.0182,0.008,0.039,0.0667,0.0828,0.0956,0.118,0.1426,0.1506,0.1388,0.1078,0.0753,0.0566,0,0,0.0294,0.055,0.1452,-0.0262,0,0,-0.2125,-0.1762,-0.1463,-0.1463,-0.1591,-0.1773,-0.205,-0.2451,-0.2819,0,0.0977,0.0833,0.0347,0.0016,-0.0198,-0.031,-0.0416,-0.0523,-0.0539,-0.0235,-0.0059,-0.0267,-0.0294,-0.0294,-0.0155,0.0043,0.0272,0.0523,0.078,0.0998,0.118,0.1372,0.1532,0.15,0.1292,0.0988,0.0689,0.0507,0.0368,0.0128,0.1169,0,0,0,0,0,-0.1959,-0.1757,-0.1399,-0.1324,-0.1431,-0.158,-0.1794,-0.2088,-0.2274,-0.0208,0.1308,0.0753,0.0513,0.0251,0.0069,-0.0032,-0.0096,-0.0171,-0.031,-0.0187,-0.0096,-0.023,-0.0176,-0.008,0.0091,0.0315,0.0513,0.0587,0.0801,0.1148,0.1415,0.1527,0.1511,0.134,0.1089,0.0822,0.0582,0.0432,0.0731,0.0294,0.0747,-0.0123,-0.023,0,0,0,-0.1292,-0.1506,-0.1313,-0.1175,-0.1223,-0.1233,-0.1255,-0.1287,-0.1153,-0.0363,0.0486,0.0582,0.055,0.0422,0.0299,0.0198,0.0101,0.0016,-0.0101,-0.0032,0.0069,-0.0069,-0.0123,0.0048,0.0331,0.0593,0.0673,0.0529,0.0769,0.1239,0.1522,0.1532,0.1383,0.1127,0.0844,0.0609,0.0427,0.0358,0,0.0593,0.0336,-0.0235,-0.0529,-0.0064,0,0,-0.0822,-0.1217,-0.1105,-0.102,-0.1041,-0.0849,-0.0662,-0.0715,-0.0833,-0.0278,0.0288,0.0518,0.0534,0.0507,0.0459,0.0326,0.0155,0.0128,0.0384,0.0566,0.055,0.0278,0.0214,0.0123,0.0571,0.0913,0.0849,0.0561,0.0908,0.1329,0.1479,0.1506,0.1351,0.095,0.0619,0.0438,0.031,0.0315,0.0027,0.0812,0.0448,0.0021,-0.0272,-0.0171,-0.0101,0.0021,-0.0769,-0.0753,-0.0747,-0.0769,-0.0817,-0.0176,-0.0342,-0.0459,-0.1137,-0.0288,0.0363,0.0737,0.0587,0.0486,0.0481,0.0395,0.0358,0.0769,0.1335,0.173,0.0918,0.0545,0.0598,0.0064,0.1175,0.1575,0.1239,0.0982,0.1196,0.1586,0.1484,0.1863,0.1922,0.0892,0.0507,0.0368,0.0278,0.0288,0.0053,0.078,0.0625,0.039,0.0112,-0.0283,-0.0395,-0.0331,-0.0844,-0.0406,-0.0523,-0.0587,-0.1148,-0.04,0,0,-0.1479,-0.0107,0.1004,0.166,0.0657,0.0454,0.0459,0.0427,0.0582,0.1351,0.1762,0.2344,0,0,0,0.1404,0.1885,0.2226,0.1612,0.1399,0.1682,0.2285,0.1847,0.1837,0.2157,0,0.1885,0.0379,0.0288,0.0278,0,0.078,0.0838,0.0609,0.0214,-0.0278,-0.0545,-0.0737,-0.0854,0,0,0,-0.1265,-0.1052,-0.0422,-0.047,0,0.0806,0.1655,0.2835,0,0,0,0,0,0,0,0.2472,0.0384,0.0203,0.0304,0.2082,0.2317,0.2445,0,0,0.2632,0.2573,0.1981,0.1671,0.204,0.1068,0.3113,0,0,0,0,0,0.0956,0.0796,0.032,-0.0107,-0.0358,-0.0529,-0.0507,-0.0005,0.0005,-0.008,-0.0763,-0.0822,-0.0662,-0.0566,0.0155,0.1335,0.1543,0.2456,0.0384,0.0384,0.0235,0.0069,0.0187,0.0374,0.0384,0.1698,0.0438,0.0299,0.0673,0.1495,0.1965,0.1991,0.0256,0.0363,0.2557,0.2392,0,0,0,0.2258,0.268,0.0299,-0.0037,0,0,0,0,0.0876,0.039,-0.0011,-0.0214,-0.0294,0.0021,0.0064,0.0027,-0.008,-0.0448,-0.0491,-0.0342,-0.0064,0.0406,0.1062,0.1233,0.1506,0.0924,0.0678,0.0224,0.0278,0.0828,0.1244,0.0763,0.0982,0.0107,0.0187,0.0523,0.1196,0.0977,0.0972,0.0454,0.0721,0.1805,0.2194,0.0,0.0,0.0833,0.2162,0.1698,0.024,-0.0133,0,0,0,0,0,0,0,0,0,0.024,0.0144,0.0043,0.0096,-0.0155,-0.0235,-0.0133,0.008,0.0427,0.0769,0.0796,0.0598,0.1068,0.0587,-0.0016,0.0411,0.1281,0.1746,0,0,0,0,0.0315,0.1009,0.0561,0.0395,0.0139,0,0,0,0,0,0.1671,0.1821,0.0796,-0.0246,-0.0363,0,0,0,0,0,0,0,0,0,0,0,0,0.0187,-0.0021,-0.0123,-0.0053,0.0101,0.0352,0.0587,0.0502,-0.0187,0,0,0,0,0,0,0,0,0,0,0,0,0.0699,0.0262,-0.0128,0,0,0,0,0,0.2002,0.1927,0.0657,-0.0416,-0.0662,0,0,0,0,0,0,0,0,0,0,0,0,0,0,0,0,0,0,0,0,0,0,0,0,0,0,0,0,0,0,0,0,0,0,0,0,0,0,0,0,0,0.2317,0.229,0.1004,-0.0192,-0.0529,0,0,0,0,0,0,0,0,0,0,0,0,0,0,0,0,0,0,0,0,0,0,0,0,0,0,0,0,0,0,0,0,0,0,0,0,0,0,0,0,0,0.1986,0.2088,0.1559,0.0326,-0.0053,0,0,0,0,0,0,0,0,0,0,0,0,0,0,0,0,0,0,0,0,0,0,0,0,0,0,0,0,0,0,0,0,0,0,0,0,0,0,0,0,0,0,0.1842,0.1874,0.0961,0.0497,0,0,0,0,0,0,0,0,0,0,0,0,0,0,0,0,0,0,0,0,0,0,0,0,0,0,0,0,0,0,0,0,0,0,0,0,0,0,0,0,0,0,0.2029,0.1799,0.1388,0.1052,0,0,0,0,0,0,0,0,0,0,0,0,0,0,0,0,0,0,0,0,0,0,0,0,0,0,0,0,0,0,0,0,0,0,0,0,0,0,0,0,0,0,0.1757,0.1634,0.1276,0.1281,0,0,0,0,0,0,0,0,0,0,0,0,0,0,0,0,0,0,0,0,0,0,0,0,0,0,0,0,0,0,0,0,0,0,0,0,0,0,0,0,0,0,0.141,0.1709,0.1228,0.1223,0]}]],[[{"header":{"parameterUnit":"kt","parameterCategory":2,"dx":1,"dy":1,"la1":29.46422004699707,"la2":30.564109802246094,"lo1":-89.4342041015625,"lo2":-87.934326171875,"nx":46,"ny":34,"refTime":"2022-09-27T00:00:00:Z","depth":"10","parameterNumber":2,"parameterNumberName":"U-component_of_CURRENTS"},"data":[-0.0683,-0.0555,-0.0395,-0.0235,-0.0064,0.0112,0.0203,0,-0.0117,-0.008,0.0075,-0.0133,-0.0416,-0.063,-0.0961,-0.1335,-0.1666,-0.2029,-0.26,-0.3577,-0.472,-0.5376,-0.543,-0.5344,-0.5553,-0.6076,-0.6418,-0.654,-0.6722,-0.6893,-0.7026,-0.7176,-0.7405,-0.7635,-0.772,-0.7549,-0.709,-0.646,-0.583,-0.5248,-0.4688,-0.4154,-0.3668,-0.3262,-0.2963,-0.2771,-0.0646,-0.0529,-0.0411,-0.032,-0.0272,-0.032,-0.0534,-0.0683,0,0.0112,0.0251,-0.0352,-0.0892,-0.086,-0.1036,-0.1377,-0.1714,-0.1997,-0.2232,-0.2547,-0.3257,-0.4287,-0.4891,-0.4837,-0.4784,-0.5104,-0.551,-0.575,-0.5964,-0.6177,-0.6332,-0.638,-0.6316,-0.6225,-0.6188,-0.6225,-0.6311,-0.6337,-0.6172,-0.5825,-0.543,-0.5061,-0.4688,-0.4319,-0.401,-0.3732,-0.0545,-0.0497,-0.0422,-0.0368,-0.0326,-0.031,-0.031,-0.0262,0.0294,0.0566,0.0331,0,-0.0288,-0.0796,-0.1159,-0.1404,-0.173,-0.2002,-0.2194,-0.2328,-0.2467,-0.2851,-0.3599,-0.4148,-0.394,-0.3791,-0.425,-0.4645,-0.4778,-0.4928,-0.5152,-0.5414,-0.5638,-0.5745,-0.574,-0.5686,-0.5697,-0.5782,-0.5873,-0.5873,-0.5734,-0.5478,-0.5168,-0.4869,-0.4629,-0.449,-0.024,-0.0347,-0.0358,-0.0342,-0.0336,-0.0336,-0.0331,-0.0299,-0.0272,-0.0427,-0.086,-0.0699,-0.0529,-0.103,-0.1479,-0.1692,-0.1735,-0.197,-0.2136,-0.2242,-0.2322,-0.2397,-0.2605,-0.3102,-0.3454,-0.3022,-0.2782,-0.3268,-0.3695,-0.3983,-0.4341,-0.4762,-0.5158,-0.5457,-0.5537,-0.5494,-0.5494,-0.5579,-0.5702,-0.5745,-0.5654,-0.5505,-0.5387,-0.5371,-0.5419,-0.5478,0.04,0.0048,-0.0166,-0.024,-0.0294,-0.0342,-0.0374,-0.04,-0.0443,-0.0518,-0.0603,-0.0651,-0.0763,-0.1185,-0.1906,-0.2109,-0.1863,-0.1831,-0.2024,-0.2104,-0.2157,-0.2194,-0.2221,-0.2339,-0.2675,-0.2814,-0.2296,-0.212,-0.2638,-0.3134,-0.3572,-0.3972,-0.4309,-0.4592,-0.4778,-0.4939,-0.5088,-0.5259,-0.5505,-0.5643,-0.5601,-0.5446,-0.5286,-0.527,-0.5403,-0.5579,0.0534,0.0443,0.0112,-0.0123,-0.0262,-0.0374,-0.0443,-0.047,-0.0502,-0.055,-0.0587,-0.0577,-0.0459,-0.0363,0,-0.0929,-0.181,-0.1751,-0.1821,-0.1922,-0.1949,-0.197,-0.197,-0.1975,-0.2066,-0.2274,-0.2136,-0.1767,-0.1885,-0.2376,-0.2899,-0.3385,-0.3737,-0.393,-0.4079,-0.4293,-0.4538,-0.473,-0.4885,-0.5013,-0.4997,-0.4811,-0.4634,-0.4618,-0.4741,-0.4896,0.1089,0.0881,0.0374,-0.0016,-0.023,-0.0432,-0.0545,-0.0518,-0.0513,-0.0529,-0.0534,-0.055,-0.0593,-0.0662,-0.0689,0,-0.0886,-0.173,-0.1618,-0.1698,-0.1709,-0.1714,-0.1709,-0.1709,-0.1735,-0.1837,-0.1911,-0.1719,-0.165,-0.1997,-0.2493,-0.2926,-0.3182,-0.3353,-0.3529,-0.37,-0.3865,-0.4079,-0.4346,-0.456,-0.4592,-0.4373,-0.3946,-0.355,-0.3396,-0.3465,0,-0.0011,0.0096,0.0144,-0.0027,-0.0432,-0.0619,-0.0464,-0.0432,-0.0432,-0.0427,-0.0432,-0.0464,-0.0518,-0.0593,-0.0635,0,-0.0838,-0.1495,-0.1383,-0.1426,-0.1436,-0.1447,-0.1463,-0.149,-0.1559,-0.1735,-0.1751,-0.157,-0.1714,-0.213,-0.2445,-0.2605,-0.2739,-0.2936,-0.3139,-0.3321,-0.3534,-0.3748,-0.378,-0.3652,-0.3497,-0.323,-0.2883,-0.26,-0.2403,0,-0.0347,0,0.0224,0.0443,0,-0.0048,-0.0166,-0.0262,-0.0283,-0.0267,-0.0256,-0.0278,-0.04,-0.0507,-0.055,-0.0577,0,-0.0406,-0.0902,-0.11,-0.1153,-0.1185,-0.1223,-0.126,-0.1319,-0.1538,-0.1709,-0.1628,-0.157,-0.1741,-0.1927,-0.1954,-0.2045,-0.2296,-0.2573,-0.2712,-0.2771,-0.283,-0.2776,-0.2707,-0.2728,-0.2728,-0.2595,-0.2371,-0.2098,0,0.0571,0.0694,0.0699,0,0.0176,0.0171,-0.0085,-0.0176,-0.0176,-0.0144,-0.008,0.0011,-0.0246,-0.0411,-0.0149,-0.0027,0,-0.0609,-0.1025,-0.0881,-0.0892,-0.0934,-0.0982,-0.103,-0.1084,-0.1281,-0.1538,-0.1532,-0.1329,-0.1239,-0.1244,-0.1287,-0.142,-0.1655,-0.1933,-0.2082,-0.2109,-0.2088,-0.2082,-0.2141,-0.2205,-0.2242,-0.2274,-0.2248,-0.2104,0,0,0,0,0,-0.0123,-0.0219,-0.0198,-0.0192,-0.0171,-0.016,-0.0117,-0.0075,0,0.0123,0.031,0.0379,0,0,-0.0128,-0.0368,-0.0571,-0.0689,-0.0774,-0.0833,-0.0908,-0.1111,-0.1361,-0.1361,-0.1143,-0.0897,-0.0747,-0.079,-0.1004,-0.1287,-0.1554,-0.1746,-0.1773,-0.1709,-0.173,-0.1826,-0.1997,-0.2072,-0.205,-0.2109,-0.2114,0,0,0,0,0,0,-0.0048,-0.0139,-0.0203,-0.0235,-0.0299,-0.0438,-0.0635,-0.0112,0.0486,0.0667,0.0881,0,0,-0.0048,-0.0192,-0.04,-0.0545,-0.0651,-0.0742,-0.0876,-0.1116,-0.1388,-0.1388,-0.1185,-0.1095,-0.1217,-0.1399,-0.1458,-0.1468,-0.1511,-0.1506,-0.1468,-0.1479,-0.1511,-0.1666,-0.2072,-0.2429,-0.2365,-0.2157,-0.2109,0,0,0,0,0,0,-0.0096,-0.0246,-0.0326,-0.0336,-0.0326,-0.0336,-0.0299,-0.0198,-0.0064,0.0005,0,0,0,-0.0021,-0.0133,-0.0352,-0.0518,-0.0641,-0.0742,-0.0876,-0.1078,-0.1361,-0.1559,-0.157,-0.1532,-0.1527,-0.1468,-0.1335,-0.1217,-0.1159,-0.1175,-0.1244,-0.1297,-0.1426,-0.1906,-0.2563,-0.2782,-0.2568,-0.2296,-0.2146,0,0,0,0,0,0,-0.0283,-0.0593,-0.0545,-0.0411,-0.0358,-0.0352,-0.0374,-0.0448,-0.0646,-0.1095,-0.1004,-0.0609,0,-0.0032,-0.0166,-0.0411,-0.0587,-0.0705,-0.078,-0.0828,-0.0876,-0.0977,-0.1105,-0.1153,-0.1132,-0.1127,-0.1105,-0.1089,-0.1137,-0.1239,-0.1361,-0.1479,-0.1634,-0.2029,-0.26,-0.2846,-0.2638,-0.2424,-0.2317,-0.2184,0,0,0,0,0,0,0,-0.0486,-0.0657,-0.031,-0.0294,-0.0299,-0.0315,-0.0352,-0.04,-0.0411,-0.0267,-0.0139,0,-0.008,-0.0288,-0.0555,-0.0699,-0.078,-0.0817,-0.0801,-0.0726,-0.0667,-0.0747,-0.1025,-0.1452,-0.1799,-0.1954,-0.2034,-0.2088,-0.212,-0.2178,-0.229,-0.2451,-0.2664,-0.2814,-0.2755,-0.2648,-0.2643,-0.2515,-0.2301,0,0,0,-0.0059,-0.0117,0,0,0,0.0043,0.0005,-0.0144,-0.0246,-0.0272,-0.0278,-0.0235,-0.0075,0.0182,0.0326,0,-0.0176,-0.0507,-0.0742,-0.0822,-0.0876,-0.0913,-0.0897,-0.0849,-0.0966,-0.1548,-0.229,-0.2573,-0.2541,-0.2504,-0.2477,-0.2445,-0.2429,-0.2467,-0.2579,-0.2723,-0.2846,-0.2883,-0.2899,-0.2953,-0.2856,-0.2584,-0.236,0,0,-0.0182,-0.0438,-0.0208,-0.0128,-0.0123,0.0016,-0.0299,-0.0347,-0.0235,-0.0336,-0.0374,-0.0368,-0.0278,0.0011,0.0598,0.0977,0,-0.0352,-0.0838,-0.0982,-0.1014,-0.1095,-0.1212,-0.1383,-0.1741,-0.2525,-0.3214,-0.3235,-0.2904,-0.2605,-0.2477,-0.2477,-0.2493,-0.2451,-0.2397,-0.2445,-0.2589,-0.2798,-0.2969,-0.3006,-0.2883,-0.2659,-0.2451,-0.2301,0,0,0.0144,0.0016,0.0069,0.0384,0,0,-0.0187,-0.0368,-0.0427,-0.0534,-0.0619,-0.0678,-0.0678,-0.0518,-0.0384,0,-0.0683,-0.1335,-0.1356,-0.1356,-0.141,-0.1532,-0.1725,-0.2034,-0.252,-0.3006,-0.3081,-0.2824,-0.2589,-0.2493,-0.2429,-0.2376,-0.2413,-0.2419,-0.2371,-0.2408,-0.2568,-0.2766,-0.2862,-0.2782,-0.2605,-0.2424,-0.2285,-0.2168,-0.0235,-0.0149,0.0176,0,0,0,0,0,-0.0203,-0.0566,-0.0753,-0.0828,-0.0934,-0.1105,-0.1393,-0.1911,-0.2851,-0.3284,-0.2638,-0.2024,-0.1885,-0.1789,-0.181,-0.1911,-0.2072,-0.228,-0.2536,-0.2707,-0.2707,-0.2712,-0.2744,-0.267,-0.2552,-0.2573,-0.2755,-0.2883,-0.2835,-0.2782,-0.284,-0.2894,-0.2824,-0.2643,-0.2429,-0.2232,-0.2093,-0.1997,-0.0865,-0.0422,-0.0053,-0.0176,-0.04,0,0,0,-0.0262,-0.0705,-0.095,-0.1052,-0.1153,-0.134,-0.166,-0.2098,-0.2536,-0.2728,-0.2504,-0.2328,-0.2125,-0.2013,-0.2013,-0.2077,-0.2141,-0.22,-0.2333,-0.2536,-0.2744,-0.291,-0.2872,-0.2654,-0.2589,-0.2904,-0.3284,-0.3353,-0.3198,-0.3022,-0.292,-0.283,-0.268,-0.2461,-0.2221,-0.2024,-0.1895,-0.1842,0,-0.0208,-0.0438,-0.0497,-0.0342,-0.0144,0,0,-0.0208,-0.0694,-0.1068,-0.1217,-0.1292,-0.1415,-0.1741,-0.2157,-0.2381,-0.2392,-0.2296,-0.2274,-0.2152,-0.2034,-0.1991,-0.2002,-0.2018,-0.2045,-0.2072,-0.1986,-0.2007,-0.228,-0.2589,-0.2707,-0.267,-0.2723,-0.2862,-0.2771,-0.2675,-0.2621,-0.2525,-0.2451,-0.2403,-0.2264,-0.2029,-0.1842,-0.1757,-0.1746,-0.0288,-0.0224,-0.0246,-0.047,-0.0742,-0.0518,-0.0123,-0.0005,-0.0117,-0.0593,-0.1084,-0.1356,-0.1351,-0.126,-0.1596,-0.2168,-0.2226,-0.1997,-0.1959,-0.1981,-0.2104,-0.1981,-0.1831,-0.1778,-0.1794,-0.1511,-0.1052,-0.0865,-0.0945,-0.1153,-0.1954,-0.2098,-0.2013,-0.1543,-0.1041,-0.1271,-0.1847,-0.2104,-0.1847,-0.141,-0.1511,-0.1943,-0.1751,-0.1735,-0.1692,-0.1676,0.0043,0.0075,0.0016,-0.0107,-0.0219,-0.0246,-0.0176,-0.0123,-0.0059,-0.0208,-0.0678,-0.1191,-0.102,-0.0609,0,0,-0.0657,-0.142,-0.1474,-0.1741,-0.2018,-0.1922,-0.1612,-0.1308,-0.0828,0.0037,0.0854,0.1153,0,0,0,-0.0507,-0.0977,-0.095,-0.1068,-0.1041,0.0043,-0.0395,-0.0251,0.0235,0.055,0,-0.0998,-0.189,-0.1741,-0.1655,0,0.0315,0.0539,0.0368,0.0288,0.0219,0.0133,0.0112,0.0123,0,0,0,-0.0326,-0.0929,-0.0977,-0.0753,0,-0.0203,-0.0016,0.0368,0,0,0,0,0,0,0,0.0192,-0.047,-0.1628,-0.204,-0.1479,-0.0219,0.0368,0,0,0.0048,0.0176,0.0561,0.1062,0.142,0.0747,-0.0091,0,0,0,0,0,0.0384,0.0694,0.0587,0.0497,0.0352,0.0069,-0.0374,-0.0587,-0.0518,-0.0384,-0.0411,-0.0721,-0.1057,-0.1484,-0.1692,-0.1041,0.0016,0.0625,0.0801,0.0667,-0.0208,-0.1372,-0.1975,-0.2194,-0.2013,-0.1313,-0.1217,-0.1676,-0.1767,-0.1137,-0.0214,0.0294,-0.0085,-0.078,-0.0101,0.0678,0,0,0,0.0288,0.1148,0.1335,0.0924,0,0,0,0,0.0358,0.0833,0.0908,0.0731,0.0422,0.0043,-0.0208,-0.0256,-0.0304,-0.0486,-0.0731,-0.0966,-0.1196,-0.1335,-0.1057,-0.0256,0.0448,0.0769,0.078,-0.0021,-0.1105,-0.1399,-0.1399,-0.157,-0.1436,-0.1287,-0.1393,-0.1265,-0.0673,0.0059,0.0085,-0.0379,-0.0155,0.0667,0.149,0.1815,0.1714,0.1292,0.0689,0.0833,0.1089,0.0886,0,0,0,0,0,0,0,0,0,0.0053,0.0117,0.0091,-0.0037,-0.0267,-0.0491,-0.0673,-0.0785,-0.0796,-0.0635,-0.0021,0.0571,0.079,0.0561,0.0032,-0.0021,0.0256,0.039,0,0,0,0,0.0053,0.0422,0.0662,0.04,0.0219,0,0,0,0,0,0.0144,0.0518,0.0838,0.0785,0.0545,0,0,0,0,0,0,0,0,0,0,0,0,0.0027,-0.0011,-0.0171,-0.0347,-0.0438,-0.0363,-0.0091,0.023,0.0368,0,0,0,0,0,0,0,0,0,0,0,0,0.0214,0.0416,0.04,0,0,0,0,0,0.0112,0.0545,0.0838,0.078,0.0561,0,0,0,0,0,0,0,0,0,0,0,0,0,0,0,0,0,0,0,0,0,0,0,0,0,0,0,0,0,0,0,0,0,0,0,0,0,0,0,0,0,0.0235,0.0625,0.0753,0.0715,0.0598,0,0,0,0,0,0,0,0,0,0,0,0,0,0,0,0,0,0,0,0,0,0,0,0,0,0,0,0,0,0,0,0,0,0,0,0,0,0,0,0,0,0.0219,0.0651,0.0812,0.0699,0.0518,0,0,0,0,0,0,0,0,0,0,0,0,0,0,0,0,0,0,0,0,0,0,0,0,0,0,0,0,0,0,0,0,0,0,0,0,0,0,0,0,0,0,0.0812,0.0822,0.071,0.0459,0,0,0,0,0,0,0,0,0,0,0,0,0,0,0,0,0,0,0,0,0,0,0,0,0,0,0,0,0,0,0,0,0,0,0,0,0,0,0,0,0,0,0.0235,0.063,0.0705,0.0422,0,0,0,0,0,0,0,0,0,0,0,0,0,0,0,0,0,0,0,0,0,0,0,0,0,0,0,0,0,0,0,0,0,0,0,0,0,0,0,0,0,0,0.016,0.0555,0.0726,0.0406,0,0,0,0,0,0,0,0,0,0,0,0,0,0,0,0,0,0,0,0,0,0,0,0,0,0,0,0,0,0,0,0,0,0,0,0,0,0,0,0,0,0,0.0406,0.0908,0.0806,0.0384,0]}],[{"header":{"parameterUnit":"kt","parameterCategory":2,"dx":1,"dy":1,"la1":29.46422004699707,"la2":30.564109802246094,"lo1":-89.4342041015625,"lo2":-87.934326171875,"nx":46,"ny":34,"refTime":"2022-09-27T00:00:00:Z","depth":"10","parameterNumber":3,"parameterNumberName":"V-component_of_CURRENTS"},"data":[-0.0112,-0.032,-0.0486,-0.0593,-0.0694,-0.0854,-0.1132,0,-0.0363,-0.1452,-0.1612,-0.1586,-0.2034,-0.2178,-0.2445,-0.2798,-0.299,-0.3139,-0.3358,-0.3882,-0.4399,-0.4271,-0.3161,-0.1794,-0.1095,-0.0609,0.0053,0.0721,0.1121,0.1217,0.1095,0.0876,0.0715,0.0742,0.0966,0.1303,0.1698,0.2125,0.2557,0.2974,0.338,0.3764,0.4116,0.4437,0.473,0.4976,-0.0171,-0.0438,-0.0609,-0.0721,-0.0817,-0.0918,-0.0998,-0.0363,0,-0.1687,-0.1692,-0.1356,-0.205,-0.2056,-0.2114,-0.2435,-0.2718,-0.2878,-0.2974,-0.3107,-0.3508,-0.3999,-0.4191,-0.3171,-0.1767,-0.0945,-0.047,0.0,0.0358,0.0491,0.047,0.0374,0.0283,0.0267,0.0374,0.0609,0.0934,0.1281,0.1623,0.1927,0.22,0.2504,0.2878,0.3273,0.3705,0.4143,-0.0219,-0.0539,-0.0699,-0.079,-0.0838,-0.0865,-0.0865,-0.0796,-0.0464,-0.1532,-0.1666,0,-0.1815,-0.1778,-0.1831,-0.2013,-0.236,-0.2643,-0.2819,-0.2899,-0.2947,-0.3139,-0.3647,-0.3908,-0.2926,-0.1372,-0.0475,-0.0262,-0.0117,-0.0053,-0.0075,-0.0048,0.0048,0.0192,0.0374,0.0609,0.0876,0.1191,0.1495,0.1725,0.1879,0.2024,0.2269,0.2595,0.2953,0.3321,-0.0123,-0.0571,-0.0737,-0.0812,-0.0838,-0.086,-0.0886,-0.0902,-0.0956,-0.118,-0.1292,-0.0427,-0.1201,-0.1249,-0.1329,-0.1826,-0.2018,-0.2381,-0.2648,-0.2792,-0.2824,-0.2798,-0.2942,-0.3428,-0.3625,-0.2584,-0.1036,-0.0587,-0.0763,-0.095,-0.1212,-0.1313,-0.1212,-0.0881,-0.0342,0.032,0.0913,0.1351,0.1628,0.1767,0.1869,0.1986,0.221,0.2552,0.2904,0.3246,0.0198,-0.0384,-0.0678,-0.0774,-0.0801,-0.0833,-0.0886,-0.0934,-0.0966,-0.0998,-0.0977,-0.0844,-0.0785,-0.0561,-0.1025,-0.1938,-0.1991,-0.2104,-0.2477,-0.2664,-0.2723,-0.2707,-0.2691,-0.2862,-0.3316,-0.3374,-0.2088,-0.0902,-0.1201,-0.1607,-0.189,-0.1981,-0.1933,-0.1671,-0.1127,-0.0395,0.0294,0.0785,0.1036,0.1175,0.1324,0.157,0.1911,0.2312,0.2712,0.3091,0.0336,-0.0021,-0.0422,-0.0651,-0.0705,-0.0758,-0.087,-0.0924,-0.0956,-0.0961,-0.094,-0.086,-0.0763,-0.0475,0,-0.2125,-0.2034,-0.2024,-0.2274,-0.2552,-0.2621,-0.2616,-0.2589,-0.2611,-0.2846,-0.3321,-0.2953,-0.087,-0.0715,-0.1116,-0.1271,-0.1169,-0.1089,-0.095,-0.0614,-0.0128,0.0336,0.0657,0.079,0.086,0.095,0.1137,0.149,0.1922,0.2355,0.2734,0.0251,0.0464,0.0091,-0.0427,-0.0534,-0.0593,-0.0897,-0.0972,-0.0972,-0.0956,-0.0929,-0.0886,-0.0849,-0.0769,-0.04,0,-0.205,-0.1997,-0.2157,-0.2451,-0.2531,-0.252,-0.2477,-0.2461,-0.2563,-0.2926,-0.3268,-0.1052,-0.0064,-0.0149,-0.0214,-0.0005,0.0096,0.0208,0.0374,0.0609,0.0844,0.0982,0.0972,0.087,0.078,0.0785,0.0966,0.141,0.1906,0.2301,0,0.0806,0.0416,-0.0203,-0.0304,-0.0481,-0.1111,-0.1089,-0.103,-0.0988,-0.095,-0.0902,-0.0833,-0.0737,-0.0774,-0.0384,0,-0.1991,-0.2333,-0.2344,-0.2435,-0.2419,-0.2355,-0.2301,-0.2344,-0.2568,-0.3059,-0.1436,0.0016,0.0438,0.0379,0.04,0.0379,0.0529,0.0657,0.0758,0.0902,0.103,0.0977,0.087,0.0769,0.0705,0.0726,0.1036,0.1474,0.1783,0,0.0625,0,-0.0342,-0.0187,0,-0.1207,-0.1137,-0.1078,-0.1036,-0.0998,-0.095,-0.087,-0.063,-0.078,-0.0753,-0.0342,0,-0.2002,-0.2109,-0.2301,-0.2296,-0.2221,-0.2141,-0.2125,-0.2253,-0.267,-0.1527,-0.0235,0.055,0.0497,0.0278,0.0107,0.032,0.0539,0.063,0.0747,0.0945,0.0961,0.0934,0.0865,0.0747,0.0657,0.0844,0.1217,0.1452,0,0.0395,0.0,-0.0555,0,-0.008,-0.0972,-0.1068,-0.1089,-0.1078,-0.1078,-0.1073,-0.103,-0.0534,-0.1025,-0.0902,-0.079,0,-0.1511,-0.2125,-0.2184,-0.2162,-0.2066,-0.1965,-0.1922,-0.2002,-0.229,-0.1377,-0.0416,0.0315,0.0315,0.0032,-0.0123,0.0128,0.0486,0.0667,0.0763,0.0924,0.0945,0.0982,0.0908,0.0721,0.0582,0.0673,0.0956,0.1185,0,0,0,0,0,-0.0166,-0.0892,-0.1036,-0.1095,-0.1121,-0.118,-0.1271,-0.1308,0,-0.1367,-0.1169,-0.078,0,0,-0.2082,-0.1997,-0.1975,-0.1874,-0.1773,-0.1725,-0.1778,-0.1965,-0.1249,-0.0374,-0.0011,0.0048,-0.0085,0.0016,0.0326,0.0689,0.0865,0.0892,0.0865,0.0908,0.0993,0.0865,0.0699,0.0657,0.0657,0.0785,0.0929,0,0,0,0,0,0,-0.0886,-0.1014,-0.1095,-0.1164,-0.1255,-0.134,-0.1377,-0.0662,-0.1511,-0.1516,-0.0657,0,0,-0.1762,-0.1709,-0.1725,-0.1634,-0.1559,-0.1511,-0.1522,-0.1623,-0.1265,-0.0358,-0.0144,-0.0027,0.0027,0.0203,0.0502,0.0742,0.0854,0.0838,0.0801,0.0897,0.095,0.0876,0.0849,0.087,0.0769,0.079,0.0833,0,0,0,0,0,0,-0.0673,-0.0945,-0.1137,-0.1249,-0.1335,-0.1377,-0.1399,-0.1431,-0.1623,-0.1821,0,0,0,-0.1511,-0.1458,-0.1447,-0.1377,-0.1335,-0.1281,-0.1239,-0.1255,-0.1175,-0.0534,-0.0144,-0.0032,0.0064,0.0107,0.0336,0.0545,0.071,0.078,0.0838,0.0908,0.0972,0.1121,0.118,0.1025,0.0833,0.0828,0.0876,0,0,0,0,0,0,-0.0529,-0.0934,-0.1372,-0.1426,-0.1463,-0.149,-0.1511,-0.1527,-0.158,-0.157,-0.0422,-0.0336,0,-0.1255,-0.1196,-0.1132,-0.11,-0.1105,-0.1078,-0.103,-0.1009,-0.0945,-0.0646,-0.0246,-0.0139,-0.0091,-0.0037,0.0166,0.0395,0.0603,0.0737,0.0806,0.0918,0.1159,0.1431,0.134,0.1025,0.0929,0.0924,0.0876,0,0,0,0,0,0,0,-0.0956,-0.1869,-0.1623,-0.157,-0.1548,-0.1532,-0.1516,-0.1468,-0.1329,-0.1004,-0.0828,0,-0.0934,-0.0865,-0.0785,-0.0838,-0.0902,-0.0934,-0.0961,-0.0966,-0.0833,-0.0539,-0.016,-0.0085,-0.0171,-0.0133,0.0037,0.0256,0.0475,0.0625,0.0731,0.0945,0.1297,0.1468,0.1287,0.11,0.1078,0.095,0.0801,0,0,0,0.0198,0.0027,0,0,0,-0.1938,-0.1618,-0.1548,-0.1522,-0.1532,-0.1559,-0.1575,-0.1538,-0.134,-0.0881,0,-0.0459,-0.0432,-0.0459,-0.0614,-0.0715,-0.0822,-0.095,-0.1009,-0.0694,-0.0101,0.0133,-0.0021,-0.023,-0.0251,-0.0107,0.0123,0.039,0.0619,0.0758,0.094,0.1223,0.141,0.1383,0.1324,0.1159,0.087,0.0694,0,0,-0.024,0.0294,0.024,-0.0112,0.0,0.0,-0.1618,-0.1442,-0.1442,-0.1442,-0.1516,-0.1618,-0.1751,-0.1879,-0.1874,-0.078,0,0.032,0.0032,-0.0192,-0.0406,-0.0518,-0.0651,-0.0817,-0.0817,-0.0342,0.0224,0.0128,-0.0133,-0.0283,-0.0267,-0.0112,0.0144,0.0448,0.0721,0.087,0.0998,0.1228,0.1479,0.1554,0.1431,0.1127,0.0796,0.0609,0,0,-0.0032,0.0192,0.0422,-0.0224,0,0,-0.1287,-0.1223,-0.1356,-0.1335,-0.1452,-0.1607,-0.1847,-0.2173,-0.2483,0,0.0902,0.0822,0.039,0.0064,-0.0144,-0.0256,-0.0363,-0.0464,-0.0448,-0.0037,0.0187,-0.0027,-0.016,-0.0166,-0.0085,0.0112,0.0347,0.0598,0.0833,0.1041,0.1223,0.142,0.1575,0.1543,0.1335,0.103,0.0731,0.055,0.0299,0.0091,0.0678,0,0,0,0,0,-0.0763,-0.103,-0.1308,-0.1196,-0.1297,-0.142,-0.1596,-0.1831,-0.1981,-0.0166,0.1212,0.0753,0.0555,0.0304,0.0128,0.0032,-0.0037,-0.0107,-0.0187,0.0059,0.0171,0.0021,-0.0043,0.0037,0.0155,0.0384,0.0603,0.0683,0.0876,0.1201,0.1458,0.1575,0.1548,0.1377,0.1127,0.086,0.0619,0.0475,0.0593,0.0278,0.0641,-0.0096,-0.0214,0,0,0,-0.0294,-0.0849,-0.1228,-0.1052,-0.1089,-0.1095,-0.11,-0.1116,-0.0988,-0.0288,0.0481,0.0614,0.0598,0.0475,0.0363,0.0262,0.0166,0.008,0.0032,0.0224,0.0358,0.0256,0.0091,0.0128,0.04,0.0726,0.0849,0.0699,0.0929,0.1324,0.1564,0.157,0.142,0.1164,0.0881,0.0651,0.047,0.0406,0,0.0609,0.0368,-0.0198,-0.047,-0.0064,0,0,-0.016,-0.0673,-0.1025,-0.0897,-0.0897,-0.0731,-0.0555,-0.0603,-0.0705,-0.0208,0.0326,0.0555,0.0587,0.0561,0.0513,0.039,0.0214,0.0208,0.0577,0.0876,0.0844,0.0641,0.0491,0.0208,0.0753,0.1287,0.1255,0.1025,0.1276,0.1468,0.1527,0.1532,0.1377,0.0982,0.0657,0.0481,0.0358,0.0368,0.0032,0.0801,0.0459,0.0037,-0.0214,-0.0128,-0.0091,0.0027,-0.0486,-0.0481,-0.0683,-0.0657,-0.0667,-0.0064,-0.0256,-0.0368,-0.0988,-0.0219,0.0374,0.0731,0.0625,0.0539,0.0534,0.0448,0.0422,0.0844,0.1351,0.1586,0.0982,0.0726,0.0881,0.039,0.1319,0.2024,0.1676,0.1319,0.1671,0.1746,0.1602,0.1741,0.1725,0.0908,0.0555,0.0416,0.0331,0.0347,0.0059,0.0763,0.0625,0.04,0.0144,-0.0224,-0.0368,-0.0294,-0.079,-0.0336,-0.047,-0.0497,-0.0972,-0.0262,0,0,-0.1319,-0.0027,0.0945,0.1484,0.0667,0.0502,0.0507,0.0475,0.0641,0.1329,0.1612,0.2024,0,0,0,0.1137,0.1474,0.165,0.1164,0.142,0.1447,0.1676,0.1628,0.1692,0.1959,0,0.1719,0.0406,0.0347,0.0336,0,0.0769,0.0828,0.0619,0.0235,-0.0251,-0.0507,-0.0683,-0.0796,0,0,0,-0.1121,-0.0918,-0.0379,-0.0432,0,0.0785,0.1442,0.1927,0,0,0,0,0,0,0,0.2088,0.0368,0.0214,0.0299,0.1602,0.149,0.1778,0,0,0.1634,0.1783,0.1644,0.1559,0.1847,0.0972,0.2739,0,0,0,0,0,0.0934,0.079,0.0342,-0.0075,-0.0315,-0.0481,-0.0459,0.0005,0.0016,-0.0069,-0.0694,-0.0742,-0.0587,-0.0497,0.0171,0.1217,0.1185,0.1143,0.0133,0.0053,0.0166,0.008,0.0182,0.0347,0.0347,0.1447,0.0443,0.0326,0.0662,0.1249,0.1191,0.1415,0.0326,0.0358,0.1719,0.1826,0,0,0,0.1975,0.2173,0.0443,0.0091,0,0,0,0,0.0854,0.0406,0.0032,-0.0166,-0.0251,0.0053,0.0096,0.0053,-0.0048,-0.04,-0.0438,-0.0288,-0.0016,0.0432,0.1009,0.0934,0.055,0.0379,0.0331,0.0187,0.031,0.079,0.1111,0.0694,0.0913,0.0155,0.0219,0.0529,0.1062,0.0913,0.102,0.0566,0.0721,0.1538,0.1863,0.0,0.0,0.0737,0.1714,0.1506,0.0966,0.04,0,0,0,0,0,0,0,0,0,0.0272,0.0182,0.0085,0.0133,-0.0117,-0.0192,-0.0096,0.0112,0.0448,0.0769,0.0715,0.024,0.0491,0.055,0.0043,0.0454,0.1223,0.1527,0,0,0,0,0.0331,0.0988,0.0747,0.0657,0.0192,0,0,0,0,0,0.1367,0.1287,0.1159,0.1009,0.063,0,0,0,0,0,0,0,0,0,0,0,0,0.0224,0.0016,-0.0085,-0.0021,0.0133,0.0374,0.0598,0.0534,-0.0128,0,0,0,0,0,0,0,0,0,0,0,0,0.0705,0.031,-0.0091,0,0,0,0,0,0.1388,0.1143,0.1014,0.0934,0.0758,0,0,0,0,0,0,0,0,0,0,0,0,0,0,0,0,0,0,0,0,0,0,0,0,0,0,0,0,0,0,0,0,0,0,0,0,0,0,0,0,0,0.15,0.1153,0.0908,0.0886,0.0886,0,0,0,0,0,0,0,0,0,0,0,0,0,0,0,0,0,0,0,0,0,0,0,0,0,0,0,0,0,0,0,0,0,0,0,0,0,0,0,0,0,0.1447,0.1255,0.0881,0.087,0.0908,0,0,0,0,0,0,0,0,0,0,0,0,0,0,0,0,0,0,0,0,0,0,0,0,0,0,0,0,0,0,0,0,0,0,0,0,0,0,0,0,0,0,0.1442,0.1036,0.0844,0.0892,0,0,0,0,0,0,0,0,0,0,0,0,0,0,0,0,0,0,0,0,0,0,0,0,0,0,0,0,0,0,0,0,0,0,0,0,0,0,0,0,0,0,0.1474,0.118,0.0902,0.0881,0,0,0,0,0,0,0,0,0,0,0,0,0,0,0,0,0,0,0,0,0,0,0,0,0,0,0,0,0,0,0,0,0,0,0,0,0,0,0,0,0,0,0.1244,0.1185,0.0972,0.0929,0,0,0,0,0,0,0,0,0,0,0,0,0,0,0,0,0,0,0,0,0,0,0,0,0,0,0,0,0,0,0,0,0,0,0,0,0,0,0,0,0,0,0.1105,0.1303,0.1062,0.0972,0]}]],[[{"header":{"parameterUnit":"kt","parameterCategory":2,"dx":1,"dy":1,"la1":29.46422004699707,"la2":30.564109802246094,"lo1":-89.4342041015625,"lo2":-87.934326171875,"nx":46,"ny":34,"refTime":"2022-09-27T00:00:00:Z","depth":"12","parameterNumber":2,"parameterNumberName":"U-component_of_CURRENTS"},"data":[0,0,0,0,0,0,0,0,0,0,0,0,0,0,0,-0.1169,-0.1548,-0.1922,-0.2483,-0.3476,-0.4608,-0.5296,-0.5376,-0.5286,-0.5478,-0.6001,-0.6354,-0.6482,-0.6658,-0.6807,-0.6919,-0.7069,-0.7304,-0.7555,-0.7656,-0.7491,-0.7037,-0.6412,-0.5788,-0.5211,-0.4656,-0.4122,-0.3636,-0.323,-0.2931,-0.2728,0,0,0,0,0,0,0,0,0,0,0,0,0,0,0,0,-0.1479,-0.1815,-0.2104,-0.2429,-0.3123,-0.4154,-0.4816,-0.4794,-0.4736,-0.5045,-0.5451,-0.5697,-0.5905,-0.6108,-0.6247,-0.6273,-0.6204,-0.6119,-0.6097,-0.6151,-0.6252,-0.6279,-0.6113,-0.5772,-0.5366,-0.4997,-0.464,-0.4282,-0.3972,-0.3695,0,0,0,0,0,0,0,0,0,0,0,0,0,0,0,0,-0.1575,-0.1719,-0.197,-0.2178,-0.2355,-0.2734,-0.3513,-0.41,-0.3908,-0.3759,-0.4213,-0.4608,-0.4741,-0.4891,-0.5109,-0.5366,-0.559,-0.5697,-0.5691,-0.5643,-0.5654,-0.5745,-0.5836,-0.5836,-0.5697,-0.5435,-0.5126,-0.4821,-0.4581,-0.4437,0,0,0,0,0,0,0,0,0,0,0,0,0,0,0,0,0,-0.1783,-0.1831,-0.2029,-0.2173,-0.2285,-0.2515,-0.3033,-0.3412,-0.2985,-0.2744,-0.3225,-0.3652,-0.394,-0.4271,-0.4666,-0.5045,-0.535,-0.5462,-0.5457,-0.5462,-0.5547,-0.567,-0.5713,-0.5622,-0.5478,-0.536,-0.5339,-0.5387,-0.5441,0,0,0,0,0,0,0,0,0,0,0,0,0,0,0,0,0,0,-0.1778,-0.1831,-0.1986,-0.2066,-0.2125,-0.228,-0.2627,-0.2771,-0.2248,-0.2072,-0.2595,-0.3086,-0.3481,-0.3812,-0.4095,-0.4362,-0.4602,-0.4853,-0.5045,-0.5216,-0.5451,-0.559,-0.5558,-0.5408,-0.5248,-0.5222,-0.536,-0.5537,0,0,0,0,0,0,0,0,0,0,0,0,0,0,0,0,0,0,0,-0.165,-0.1757,-0.1842,-0.1879,-0.1906,-0.2024,-0.2248,-0.2109,-0.1725,-0.1847,-0.2333,-0.2851,-0.3316,-0.3652,-0.3855,-0.4026,-0.425,-0.4501,-0.4688,-0.4837,-0.4965,-0.4955,-0.4768,-0.4597,-0.4576,-0.4698,-0.4848,0,0,0,0,0,0,0,0,0,0,0,0,0,0,0,0,0,0,0,-0.1495,-0.1506,-0.1602,-0.1628,-0.165,-0.1692,-0.1799,-0.1885,-0.1687,-0.1618,-0.197,-0.2461,-0.2899,-0.3155,-0.3326,-0.3502,-0.3668,-0.3839,-0.4047,-0.4309,-0.4517,-0.4544,-0.4335,-0.3914,-0.3518,-0.3364,-0.3428,0,0,0,0,0,0,0,0,0,0,0,0,0,0,0,0,0,0,0,0,-0.1233,-0.1335,-0.1383,-0.1415,-0.1452,-0.1527,-0.1714,-0.173,-0.1548,-0.1687,-0.2104,-0.2419,-0.2573,-0.2712,-0.2915,-0.3118,-0.3294,-0.3502,-0.3711,-0.3748,-0.362,-0.3465,-0.3203,-0.2862,-0.2579,-0.2376,0,0,0,0,0,0,0,0,0,0,0,0,0,0,0,0,0,0,0,0,-0.0961,-0.1057,-0.1132,-0.118,-0.1228,-0.1297,-0.1516,-0.1692,-0.1607,-0.1543,-0.1709,-0.1895,-0.1927,-0.2013,-0.2258,-0.2536,-0.267,-0.2739,-0.2798,-0.2744,-0.268,-0.2707,-0.2702,-0.2568,-0.2349,-0.2072,0,0,0,0,0,0,0,0,0,0,0,0,0,0,0,0,0,0,0,0,-0.0796,-0.0801,-0.0886,-0.095,-0.1004,-0.1062,-0.126,-0.1511,-0.1506,-0.1297,-0.1201,-0.1212,-0.1255,-0.1383,-0.1612,-0.189,-0.2045,-0.2077,-0.2061,-0.2056,-0.212,-0.2184,-0.2216,-0.2248,-0.2221,-0.2077,0,0,0,0,0,0,0,0,0,0,0,0,0,0,0,0,0,0,0,0,0,-0.0497,-0.0651,-0.0747,-0.0817,-0.0897,-0.1089,-0.1329,-0.1335,-0.1105,-0.0865,-0.0721,-0.0763,-0.0977,-0.126,-0.1516,-0.1709,-0.1735,-0.1682,-0.1703,-0.1805,-0.197,-0.204,-0.2024,-0.2082,-0.2088,0,0,0,0,0,0,0,0,0,0,0,0,0,0,0,0,0,0,0,0,0,-0.0347,-0.0518,-0.0635,-0.0731,-0.0865,-0.1095,-0.1361,-0.1361,-0.1159,-0.1073,-0.1201,-0.1377,-0.1431,-0.1436,-0.1474,-0.1468,-0.1436,-0.1452,-0.149,-0.1644,-0.204,-0.2392,-0.2328,-0.2125,-0.2088,0,0,0,0,0,0,0,0,0,0,0,0,0,0,0,0,0,0,0,0,0,-0.031,-0.0502,-0.063,-0.0731,-0.086,-0.1062,-0.1335,-0.1527,-0.1543,-0.1511,-0.1506,-0.1442,-0.1313,-0.1191,-0.1132,-0.1148,-0.1217,-0.1271,-0.1404,-0.1874,-0.2504,-0.2718,-0.2525,-0.2264,-0.212,0,0,0,0,0,0,0,0,0,0,0,0,0,0,0,0,0,0,0,0,0,-0.0374,-0.0571,-0.0689,-0.0769,-0.0817,-0.0865,-0.0961,-0.1084,-0.1127,-0.1111,-0.1105,-0.1084,-0.1068,-0.1111,-0.1212,-0.134,-0.1452,-0.1602,-0.1986,-0.2525,-0.276,-0.2563,-0.2381,-0.2285,-0.2157,0,0,0,0,0,0,0,0,0,0,0,0,0,0,0,0,0,0,0,0,0,-0.0523,-0.0683,-0.0769,-0.0806,-0.0785,-0.071,-0.0657,-0.0731,-0.1004,-0.1426,-0.1773,-0.1927,-0.2007,-0.2056,-0.2088,-0.2141,-0.2248,-0.2403,-0.2595,-0.2707,-0.2643,-0.2573,-0.26,-0.2488,-0.2269,0,0,0,0,0,0,0,0,0,0,0,0,0,0,0,0,0,0,0,0,0,-0.0715,-0.0806,-0.086,-0.0897,-0.0881,-0.0838,-0.0945,-0.1506,-0.2221,-0.2504,-0.2488,-0.2461,-0.244,-0.2408,-0.2387,-0.2419,-0.2525,-0.2659,-0.2755,-0.2771,-0.2803,-0.2894,-0.2808,-0.2547,-0.2328,0,0,0,0,0,0,0,0,0,0,0,0,0,0,0,0,0,0,0,0,-0.0812,-0.0961,-0.0998,-0.1073,-0.1191,-0.1356,-0.1692,-0.2371,-0.2931,-0.2936,-0.2707,-0.2499,-0.2419,-0.2424,-0.2435,-0.2392,-0.2344,-0.2392,-0.2531,-0.2723,-0.2883,-0.2931,-0.283,-0.2616,-0.2419,-0.2269,0,0,0,0,0,0,0,0,0,0,0,0,0,0,0,0,0,0,0,0,-0.1281,-0.1319,-0.1377,-0.15,-0.1692,-0.1981,-0.2365,-0.2659,-0.2611,-0.2429,-0.2317,-0.2296,-0.2317,-0.2306,-0.2339,-0.2344,-0.2312,-0.236,-0.2509,-0.2691,-0.2771,-0.2707,-0.2547,-0.2376,-0.2242,-0.213,0,0,0,0,0,0,0,0,0,0,0,0,0,0,0,0,0,0,0,0,-0.1719,-0.1725,-0.1757,-0.1863,-0.2024,-0.22,-0.2296,-0.2226,-0.2178,-0.2349,-0.2509,-0.2515,-0.2461,-0.2499,-0.2654,-0.2771,-0.2734,-0.2702,-0.276,-0.2803,-0.2734,-0.2568,-0.2371,-0.2184,-0.205,-0.1954,0,0,0,0,0,0,0,0,0,0,0,0,0,0,0,0,0,0,0,-0.2125,-0.1927,-0.1917,-0.1943,-0.2013,-0.2077,-0.212,-0.2125,-0.2082,-0.2162,-0.2403,-0.2552,-0.2515,-0.2456,-0.26,-0.2824,-0.2883,-0.2803,-0.2766,-0.2766,-0.2707,-0.2573,-0.2376,-0.2157,-0.1965,-0.1842,-0.1783,0,0,0,0,0,0,0,0,0,0,0,0,0,0,0,0,0,0,0,-0.2077,-0.1922,-0.1885,-0.189,-0.1917,-0.1938,-0.1922,-0.1783,-0.1447,-0.1249,-0.141,-0.1794,-0.2178,-0.2258,-0.1879,-0.1559,-0.1751,-0.1981,-0.2125,-0.2328,-0.2344,-0.2274,-0.2136,-0.1922,-0.1757,-0.1671,-0.1639,0,0,0,0,0,0,0,0,0,0,0,0,0,0,0,0,0,0,0,0,-0.1922,-0.1773,-0.166,-0.1623,-0.1607,-0.1297,-0.0897,0,-0.0609,-0.0683,-0.1228,-0.1554,-0.1175,-0.0347,-0.0219,-0.0208,-0.0683,-0.1217,-0.1393,-0.1239,0,-0.1794,0,-0.1628,-0.1548,-0.1532,0,0,0,0,0,0,0,0,0,0,0,0,0,0,0,0,0,0,0,0,0,-0.1794,-0.15,-0.1228,-0.0774,0,0,0,0,0,0,0,0,0,-0.0246,0.0384,0,0,0,0,0,0,0,0,0,0,0,0,0,0,0,0,0,0,0,0,0,0,0,0,0,0,0,0,0,0,0,0,0,0,0,0,0,0,0,0,0,0,0,0,0,0,0,0,0,0,0,0,0,0,0,0,0,0,0,0,0,0,0,0,0,0,0,0,0,0,0,0,0,0,0,0,0,0,0,0,0,0,0,0,0,0,0,0,0,0,0,0,0,0,0,0,0,0,0,0,0,0,0,0,0,0,0,0,0,0,0,0,0,0,0,0,0,0,0,0,0,0,0,0,0,0,0,0,0,0,0,0,0,0,0,0,0,0,0,0,0,0,0,0,0,0,0,0,0,0,0,0,0,0,0,0,0,0,0,0,0,0,0,0,0,0,0,0,0,0,0,0,0,0,0,0,0,0,0,0,0,0,0,0,0,0,0,0,0,0,0,0,0,0,0,0,0,0,0,0,0,0,0,0,0,0,0,0,0,0,0,0,0,0,0,0,0,0,0,0,0,0,0,0,0,0,0,0,0,0,0,0,0,0,0,0,0,0,0,0,0,0,0,0,0,0,0,0,0,0,0,0,0,0,0,0,0,0,0,0,0,0,0,0,0,0,0,0,0,0,0,0,0,0,0,0,0,0,0,0,0,0,0,0,0,0,0,0,0,0,0,0,0,0,0,0,0,0,0,0,0,0,0,0,0,0,0,0,0,0,0,0,0,0,0,0,0,0,0,0,0,0,0,0,0,0,0,0,0,0,0,0,0,0,0,0,0,0,0,0,0,0,0,0,0,0,0,0,0,0,0,0,0,0,0,0,0,0,0,0,0,0,0,0,0,0,0,0,0,0,0,0,0,0,0,0,0,0,0,0,0,0,0,0,0,0,0,0,0,0,0,0,0,0,0,0,0,0,0,0,0,0,0,0,0,0,0,0,0,0,0,0,0,0,0,0,0,0,0,0,0,0,0,0,0,0,0,0,0,0,0,0,0,0,0,0,0,0,0,0,0,0,0,0,0,0,0,0,0,0,0,0,0,0,0,0,0,0,0,0,0,0,0,0,0,0,0,0,0,0,0,0,0,0,0,0,0,0,0,0,0,0,0,0,0,0,0,0,0,0,0,0,0,0,0,0,0,0,0,0,0,0,0,0,0,0,0,0,0,0,0,0,0,0,0,0]}],[{"header":{"parameterUnit":"kt","parameterCategory":2,"dx":1,"dy":1,"la1":29.46422004699707,"la2":30.564109802246094,"lo1":-89.4342041015625,"lo2":-87.934326171875,"nx":46,"ny":34,"refTime":"2022-09-27T00:00:00:Z","depth":"12","parameterNumber":3,"parameterNumberName":"V-component_of_CURRENTS"},"data":[0,0,0,0,0,0,0,0,0,0,0,0,0,0,0,-0.2419,-0.276,-0.2969,-0.3246,-0.378,-0.4309,-0.4186,-0.3113,-0.1762,-0.1057,-0.0577,0.0085,0.0747,0.1148,0.1249,0.1132,0.0918,0.0763,0.0785,0.0998,0.1335,0.1725,0.2152,0.2589,0.3011,0.3417,0.3801,0.4148,0.4474,0.4768,0.5019,0,0,0,0,0,0,0,0,0,0,0,0,0,0,0,0,-0.2328,-0.2605,-0.2776,-0.2953,-0.3353,-0.3844,-0.41,-0.3134,-0.1735,-0.0913,-0.0438,0.0032,0.0395,0.0529,0.0513,0.0427,0.0336,0.032,0.0422,0.0646,0.0961,0.1308,0.165,0.1954,0.2221,0.2531,0.2904,0.3305,0.3737,0.4175,0,0,0,0,0,0,0,0,0,0,0,0,0,0,0,0,-0.2146,-0.2258,-0.2525,-0.2707,-0.2787,-0.2995,-0.3529,-0.3844,-0.2888,-0.134,-0.0443,-0.023,-0.008,-0.0021,-0.0037,-0.0005,0.0091,0.024,0.0422,0.0651,0.0913,0.1223,0.1522,0.1746,0.1901,0.2045,0.229,0.2621,0.2979,0.3348,0,0,0,0,0,0,0,0,0,0,0,0,0,0,0,0,0,-0.2146,-0.2264,-0.2525,-0.2643,-0.2659,-0.2819,-0.3337,-0.3567,-0.2547,-0.1004,-0.0555,-0.0731,-0.0918,-0.1169,-0.1265,-0.1148,-0.0817,-0.0294,0.0352,0.0945,0.1377,0.1655,0.1794,0.189,0.2013,0.2242,0.2584,0.2936,0.3273,0,0,0,0,0,0,0,0,0,0,0,0,0,0,0,0,0,0,-0.2173,-0.2317,-0.2509,-0.2547,-0.2579,-0.2766,-0.3251,-0.3326,-0.205,-0.087,-0.1169,-0.1575,-0.1847,-0.1917,-0.1858,-0.1596,-0.1073,-0.0363,0.0326,0.0812,0.1068,0.1201,0.1356,0.1596,0.1943,0.2339,0.2739,0.3123,0,0,0,0,0,0,0,0,0,0,0,0,0,0,0,0,0,0,0,-0.2184,-0.236,-0.2445,-0.2467,-0.2525,-0.2776,-0.3273,-0.291,-0.0838,-0.0683,-0.1089,-0.1239,-0.1121,-0.1046,-0.0908,-0.0571,-0.0096,0.0368,0.0689,0.0828,0.0902,0.0988,0.1175,0.1522,0.1943,0.2381,0.276,0,0,0,0,0,0,0,0,0,0,0,0,0,0,0,0,0,0,0,-0.2146,-0.2232,-0.2349,-0.236,-0.2376,-0.2493,-0.2872,-0.3225,-0.102,-0.0037,-0.0123,-0.0187,0.0021,0.0128,0.0235,0.0411,0.0646,0.0876,0.1014,0.1009,0.0908,0.0822,0.0822,0.0998,0.1436,0.1933,0.2328,0,0,0,0,0,0,0,0,0,0,0,0,0,0,0,0,0,0,0,0,-0.2109,-0.2248,-0.2248,-0.2226,-0.228,-0.2515,-0.3022,-0.1404,0.0043,0.0464,0.04,0.0432,0.0411,0.0555,0.0683,0.0785,0.0934,0.1062,0.1014,0.0902,0.0801,0.0737,0.0758,0.1068,0.1506,0.1815,0,0,0,0,0,0,0,0,0,0,0,0,0,0,0,0,0,0,0,0,-0.2007,-0.2114,-0.2114,-0.2066,-0.2072,-0.221,-0.2632,-0.1495,-0.0208,0.0582,0.0523,0.031,0.0139,0.0347,0.0561,0.0657,0.078,0.0977,0.0993,0.0961,0.0897,0.0769,0.0683,0.087,0.1249,0.1479,0,0,0,0,0,0,0,0,0,0,0,0,0,0,0,0,0,0,0,0,-0.1975,-0.1954,-0.1965,-0.1895,-0.1874,-0.1959,-0.2258,-0.1351,-0.0384,0.0347,0.0347,0.0064,-0.0091,0.0155,0.0513,0.0694,0.0796,0.095,0.0972,0.1009,0.0934,0.0747,0.0603,0.0699,0.0977,0.1207,0,0,0,0,0,0,0,0,0,0,0,0,0,0,0,0,0,0,0,0,0,-0.1773,-0.1783,-0.1714,-0.1682,-0.1746,-0.1933,-0.1217,-0.0342,0.0027,0.008,-0.0059,0.0043,0.0352,0.0715,0.0892,0.0918,0.0892,0.094,0.102,0.0892,0.0731,0.0683,0.0689,0.0812,0.0956,0,0,0,0,0,0,0,0,0,0,0,0,0,0,0,0,0,0,0,0,0,-0.1548,-0.1564,-0.1511,-0.1474,-0.149,-0.1591,-0.1233,-0.0331,-0.0112,-0.0005,0.0048,0.023,0.0529,0.0763,0.0881,0.0865,0.0828,0.0929,0.0982,0.0902,0.0886,0.0902,0.0806,0.0817,0.086,0,0,0,0,0,0,0,0,0,0,0,0,0,0,0,0,0,0,0,0,0,-0.1308,-0.1313,-0.1287,-0.1244,-0.1201,-0.1217,-0.1143,-0.0507,-0.0117,-0.0011,0.0091,0.0139,0.0363,0.0571,0.0737,0.0806,0.0865,0.0929,0.0998,0.1153,0.1223,0.1062,0.087,0.0854,0.0897,0,0,0,0,0,0,0,0,0,0,0,0,0,0,0,0,0,0,0,0,0,-0.103,-0.1046,-0.1068,-0.1041,-0.0993,-0.0972,-0.0908,-0.0619,-0.0219,-0.0112,-0.0064,-0.0005,0.0192,0.0422,0.063,0.0763,0.0838,0.095,0.1191,0.1468,0.1388,0.1062,0.0961,0.0956,0.0897,0,0,0,0,0,0,0,0,0,0,0,0,0,0,0,0,0,0,0,0,0,-0.0721,-0.0801,-0.0865,-0.0897,-0.0929,-0.0934,-0.0806,-0.0507,-0.0133,-0.0048,-0.0133,-0.0096,0.0069,0.0294,0.0507,0.0662,0.0769,0.0982,0.134,0.1527,0.1345,0.1143,0.1121,0.0977,0.0828,0,0,0,0,0,0,0,0,0,0,0,0,0,0,0,0,0,0,0,0,0,-0.0416,-0.0582,-0.0683,-0.0785,-0.0918,-0.0977,-0.0657,-0.0048,0.0208,0.0059,-0.0166,-0.0192,-0.0053,0.0171,0.0432,0.0657,0.0796,0.0977,0.1271,0.1474,0.1442,0.1367,0.1207,0.0902,0.0721,0,0,0,0,0,0,0,0,0,0,0,0,0,0,0,0,0,0,0,0,0.0053,-0.0155,-0.0368,-0.0481,-0.0614,-0.0774,-0.0758,-0.0224,0.0395,0.0331,0.0016,-0.016,-0.0192,-0.0043,0.0208,0.0507,0.0763,0.0908,0.1036,0.1265,0.1527,0.1596,0.1468,0.1169,0.0828,0.0641,0,0,0,0,0,0,0,0,0,0,0,0,0,0,0,0,0,0,0,0,0.0411,0.0107,-0.0096,-0.0208,-0.0315,-0.0411,-0.0326,0.023,0.0502,0.0294,0.0048,0.0053,0.0016,0.0187,0.0427,0.0667,0.0886,0.1078,0.126,0.1452,0.1612,0.1575,0.1361,0.1062,0.0769,0.0582,0,0,0,0,0,0,0,0,0,0,0,0,0,0,0,0,0,0,0,0,0.0577,0.0358,0.0187,0.0091,0.0021,-0.0043,-0.0011,0.0374,0.0518,0.0379,0.0192,0.024,0.0246,0.0459,0.0715,0.0796,0.0966,0.1249,0.1495,0.1607,0.158,0.1404,0.1153,0.0892,0.0657,0.0513,0,0,0,0,0,0,0,0,0,0,0,0,0,0,0,0,0,0,0,0.0609,0.0619,0.0529,0.0422,0.032,0.0224,0.0149,0.0208,0.0534,0.0678,0.0694,0.047,0.0256,0.0502,0.0913,0.1121,0.1004,0.1169,0.1436,0.1602,0.1591,0.1442,0.1185,0.0913,0.0683,0.0507,0.0443,0,0,0,0,0,0,0,0,0,0,0,0,0,0,0,0,0,0,0,0.0561,0.0603,0.0598,0.0566,0.0443,0.0272,0.0278,0.0673,0.0956,0.0876,0.079,0.0838,0.0438,0.0892,0.1634,0.1559,0.1196,0.1458,0.1596,0.1554,0.1543,0.1372,0.0988,0.0689,0.0518,0.04,0.0411,0,0,0,0,0,0,0,0,0,0,0,0,0,0,0,0,0,0,0,0,0.0625,0.0561,0.0566,0.0491,0.047,0.0844,0.1281,0,0.0699,0.0662,0.086,0.0486,0.1196,0.1554,0.1212,0.0753,0.1516,0.1698,0.1532,0.1639,0,0.0892,0,0.0432,0.0368,0.0379,0,0,0,0,0,0,0,0,0,0,0,0,0,0,0,0,0,0,0,0,0,0.0513,0.0523,0.0497,0.0651,0,0,0,0,0,0,0,0,0,0.0721,0.0678,0,0,0,0,0,0,0,0,0,0,0,0,0,0,0,0,0,0,0,0,0,0,0,0,0,0,0,0,0,0,0,0,0,0,0,0,0,0,0,0,0,0,0,0,0,0,0,0,0,0,0,0,0,0,0,0,0,0,0,0,0,0,0,0,0,0,0,0,0,0,0,0,0,0,0,0,0,0,0,0,0,0,0,0,0,0,0,0,0,0,0,0,0,0,0,0,0,0,0,0,0,0,0,0,0,0,0,0,0,0,0,0,0,0,0,0,0,0,0,0,0,0,0,0,0,0,0,0,0,0,0,0,0,0,0,0,0,0,0,0,0,0,0,0,0,0,0,0,0,0,0,0,0,0,0,0,0,0,0,0,0,0,0,0,0,0,0,0,0,0,0,0,0,0,0,0,0,0,0,0,0,0,0,0,0,0,0,0,0,0,0,0,0,0,0,0,0,0,0,0,0,0,0,0,0,0,0,0,0,0,0,0,0,0,0,0,0,0,0,0,0,0,0,0,0,0,0,0,0,0,0,0,0,0,0,0,0,0,0,0,0,0,0,0,0,0,0,0,0,0,0,0,0,0,0,0,0,0,0,0,0,0,0,0,0,0,0,0,0,0,0,0,0,0,0,0,0,0,0,0,0,0,0,0,0,0,0,0,0,0,0,0,0,0,0,0,0,0,0,0,0,0,0,0,0,0,0,0,0,0,0,0,0,0,0,0,0,0,0,0,0,0,0,0,0,0,0,0,0,0,0,0,0,0,0,0,0,0,0,0,0,0,0,0,0,0,0,0,0,0,0,0,0,0,0,0,0,0,0,0,0,0,0,0,0,0,0,0,0,0,0,0,0,0,0,0,0,0,0,0,0,0,0,0,0,0,0,0,0,0,0,0,0,0,0,0,0,0,0,0,0,0,0,0,0,0,0,0,0,0,0,0,0,0,0,0,0,0,0,0,0,0,0,0,0,0,0,0,0,0,0,0,0,0,0,0,0,0,0,0,0,0,0,0,0,0,0,0,0,0,0,0,0,0,0,0,0,0,0,0,0,0,0,0,0,0,0,0,0,0,0,0,0,0,0,0,0,0,0,0,0,0,0,0,0,0,0,0,0,0,0,0,0,0,0,0,0,0,0,0,0,0,0,0,0,0,0,0,0,0,0,0,0,0,0,0]}]],[[{"header":{"parameterUnit":"kt","parameterCategory":2,"dx":1,"dy":1,"la1":29.46422004699707,"la2":30.564109802246094,"lo1":-89.4342041015625,"lo2":-87.934326171875,"nx":46,"ny":34,"refTime":"2022-09-27T00:00:00:Z","depth":"15","parameterNumber":2,"parameterNumberName":"U-component_of_CURRENTS"},"data":[0,0,0,0,0,0,0,0,0,0,0,0,0,0,0,0,0,-0.1634,-0.2141,-0.3049,-0.4261,-0.4965,-0.5206,-0.5109,-0.5206,-0.5702,-0.6124,-0.6289,-0.6444,-0.6514,-0.6535,-0.6652,-0.6925,-0.7256,-0.7432,-0.7309,-0.6877,-0.6273,-0.5686,-0.5136,-0.4586,-0.4047,-0.3567,-0.3171,-0.2862,-0.2616,0,0,0,0,0,0,0,0,0,0,0,0,0,0,0,0,0,0,-0.181,-0.2045,-0.2654,-0.3572,-0.4447,-0.4682,-0.4602,-0.4864,-0.5259,-0.5531,-0.5713,-0.5852,-0.5916,-0.5878,-0.5766,-0.5681,-0.5713,-0.5841,-0.5985,-0.6033,-0.591,-0.5606,-0.5195,-0.4827,-0.4544,-0.4229,-0.3924,-0.3652,0,0,0,0,0,0,0,0,0,0,0,0,0,0,0,0,0,0,0,-0.1885,-0.1991,-0.2381,-0.2974,-0.3807,-0.3833,-0.3684,-0.4122,-0.4522,-0.4661,-0.4811,-0.5013,-0.5243,-0.5435,-0.5537,-0.5526,-0.5489,-0.5515,-0.5617,-0.5734,-0.5756,-0.5617,-0.5334,-0.5013,-0.4704,-0.4453,-0.4325,0,0,0,0,0,0,0,0,0,0,0,0,0,0,0,0,0,0,0,0,-0.1874,-0.1933,-0.2184,-0.2686,-0.3246,-0.2894,-0.2675,-0.315,-0.3583,-0.386,-0.4068,-0.4271,-0.457,-0.4907,-0.5195,-0.5366,-0.5414,-0.5505,-0.5627,-0.5665,-0.5585,-0.5441,-0.5318,-0.5291,-0.5334,-0.5376,0,0,0,0,0,0,0,0,0,0,0,0,0,0,0,0,0,0,0,0,0,-0.1773,-0.1805,-0.205,-0.2456,-0.2691,-0.2082,-0.1943,-0.2461,-0.2936,-0.3129,-0.3187,-0.3348,-0.3588,-0.4026,-0.4608,-0.4949,-0.5147,-0.5344,-0.5462,-0.5467,-0.5339,-0.5174,-0.5147,-0.5291,-0.5467,0,0,0,0,0,0,0,0,0,0,0,0,0,0,0,0,0,0,0,0,0,-0.1602,-0.1591,-0.1709,-0.1911,-0.2194,-0.205,-0.1623,-0.1762,-0.2242,-0.2707,-0.3043,-0.3268,-0.3492,-0.3801,-0.4138,-0.4421,-0.4608,-0.4736,-0.4848,-0.4853,-0.4693,-0.4528,-0.4506,-0.4618,-0.4757,0,0,0,0,0,0,0,0,0,0,0,0,0,0,0,0,0,0,0,0,0,-0.141,-0.1388,-0.1484,-0.1607,-0.1735,-0.1831,-0.1639,-0.157,-0.1927,-0.2424,-0.2851,-0.3102,-0.3284,-0.346,-0.3631,-0.3796,-0.3999,-0.4239,-0.4431,-0.4463,-0.4271,-0.3865,-0.3476,-0.3321,-0.3374,0,0,0,0,0,0,0,0,0,0,0,0,0,0,0,0,0,0,0,0,0,0,-0.1185,-0.1281,-0.1383,-0.1474,-0.1676,-0.1709,-0.1516,-0.165,-0.2066,-0.2376,-0.2536,-0.268,-0.2888,-0.3086,-0.3262,-0.346,-0.3663,-0.3695,-0.3572,-0.3417,-0.3161,-0.283,-0.2552,-0.2349,0,0,0,0,0,0,0,0,0,0,0,0,0,0,0,0,0,0,0,0,0,0,-0.0977,-0.1073,-0.118,-0.1255,-0.1479,-0.166,-0.158,-0.1511,-0.166,-0.1842,-0.1885,-0.1965,-0.22,-0.2467,-0.2605,-0.2686,-0.2744,-0.2702,-0.2643,-0.2675,-0.267,-0.2531,-0.2317,-0.2045,0,0,0,0,0,0,0,0,0,0,0,0,0,0,0,0,0,0,0,0,0,0,-0.0774,-0.0865,-0.0966,-0.1036,-0.1228,-0.1474,-0.1463,-0.1255,-0.1153,-0.1159,-0.1196,-0.1319,-0.1543,-0.181,-0.1975,-0.2029,-0.2018,-0.2018,-0.2093,-0.2152,-0.2184,-0.221,-0.2184,-0.204,0,0,0,0,0,0,0,0,0,0,0,0,0,0,0,0,0,0,0,0,0,0,-0.0577,-0.0694,-0.079,-0.0876,-0.1052,-0.1292,-0.1287,-0.1046,-0.0812,-0.0683,-0.0726,-0.0945,-0.1217,-0.1468,-0.1644,-0.1682,-0.1639,-0.1671,-0.1773,-0.1927,-0.1986,-0.1981,-0.2045,-0.2056,0,0,0,0,0,0,0,0,0,0,0,0,0,0,0,0,0,0,0,0,0,0,-0.0464,-0.0598,-0.0715,-0.0849,-0.1068,-0.1319,-0.1313,-0.1121,-0.1046,-0.1175,-0.1345,-0.1393,-0.1388,-0.141,-0.1404,-0.1388,-0.142,-0.1458,-0.1612,-0.1991,-0.2328,-0.2269,-0.2082,-0.205,0,0,0,0,0,0,0,0,0,0,0,0,0,0,0,0,0,0,0,0,0,0,-0.0454,-0.0603,-0.0715,-0.0844,-0.1036,-0.1297,-0.1479,-0.15,-0.1484,-0.1479,-0.1404,-0.1276,-0.1159,-0.1095,-0.1111,-0.1185,-0.1244,-0.1372,-0.1815,-0.2397,-0.26,-0.2445,-0.2216,-0.2082,0,0,0,0,0,0,0,0,0,0,0,0,0,0,0,0,0,0,0,0,0,0,-0.0534,-0.0673,-0.0753,-0.0796,-0.0844,-0.094,-0.1057,-0.1095,-0.1073,-0.1073,-0.1052,-0.1036,-0.1084,-0.118,-0.1303,-0.1415,-0.1554,-0.1906,-0.2365,-0.2541,-0.2392,-0.2301,-0.2237,-0.2114,0,0,0,0,0,0,0,0,0,0,0,0,0,0,0,0,0,0,0,0,0,0,-0.0651,-0.0753,-0.079,-0.0769,-0.0694,-0.0646,-0.0715,-0.0977,-0.1388,-0.1735,-0.189,-0.1965,-0.2013,-0.2034,-0.2082,-0.2184,-0.2328,-0.2451,-0.2445,-0.2344,-0.2381,-0.252,-0.244,-0.2232,0,0,0,0,0,0,0,0,0,0,0,0,0,0,0,0,0,0,0,0,0,0,-0.0774,-0.0838,-0.0876,-0.0865,-0.0822,-0.0918,-0.141,-0.2045,-0.2339,-0.2387,-0.2392,-0.2376,-0.2333,-0.2306,-0.2344,-0.244,-0.2525,-0.252,-0.2445,-0.2515,-0.2723,-0.2712,-0.2493,-0.2285,0,0,0,0,0,0,0,0,0,0,0,0,0,0,0,0,0,0,0,0,0,0,-0.0956,-0.1041,-0.1164,-0.1319,-0.1596,-0.2024,-0.229,-0.2237,-0.2178,-0.2184,-0.2232,-0.2285,-0.2301,-0.2269,-0.2248,-0.2312,-0.2429,-0.2547,-0.2643,-0.2728,-0.2707,-0.2541,-0.236,-0.2221,0,0,0,0,0,0,0,0,0,0,0,0,0,0,0,0,0,0,0,0,0,-0.1249,-0.1292,-0.1442,-0.1634,-0.1879,-0.2007,-0.1879,-0.1607,-0.1543,-0.1634,-0.1692,-0.1901,-0.2072,-0.213,-0.2173,-0.2205,-0.2274,-0.2403,-0.2536,-0.2595,-0.2547,-0.2424,-0.2285,-0.2168,-0.2061,0,0,0,0,0,0,0,0,0,0,0,0,0,0,0,0,0,0,0,0,0,-0.1586,-0.1596,-0.1741,-0.1911,-0.2018,-0.1789,-0.1287,-0.1153,-0.1415,-0.1671,-0.1869,-0.2034,-0.2194,-0.2312,-0.236,-0.2387,-0.2472,-0.2573,-0.26,-0.2531,-0.2397,-0.2232,-0.2066,-0.1927,-0.1826,0,0,0,0,0,0,0,0,0,0,0,0,0,0,0,0,0,0,0,0,0,0,-0.1735,-0.1799,-0.1863,-0.1847,-0.1596,-0.102,-0.0545,-0.0561,-0.1062,-0.1751,-0.2093,-0.1949,-0.1735,-0.1639,-0.1703,-0.2029,-0.2317,-0.2333,-0.2232,-0.2098,-0.1943,-0.1789,-0.1676,-0.1634,0,0,0,0,0,0,0,0,0,0,0,0,0,0,0,0,0,0,0,0,0,0,0,-0.1741,-0.1762,0,0,0,0,0,0,-0.1709,-0.1458,-0.0507,-0.0133,-0.0214,-0.0363,-0.103,-0.1815,-0.2061,0,0,0,0,0,0,0,0,0,0,0,0,0,0,0,0,0,0,0,0,0,0,0,0,0,0,0,0,0,0,0,0,0,0,0,0,0,0,0,0,0,0.0272,-0.0155,0,0,0,0,0,0,0,0,0,0,0,0,0,0,0,0,0,0,0,0,0,0,0,0,0,0,0,0,0,0,0,0,0,0,0,0,0,0,0,0,0,0,0,0,0,0,0,0,0,0,0,0,0,0,0,0,0,0,0,0,0,0,0,0,0,0,0,0,0,0,0,0,0,0,0,0,0,0,0,0,0,0,0,0,0,0,0,0,0,0,0,0,0,0,0,0,0,0,0,0,0,0,0,0,0,0,0,0,0,0,0,0,0,0,0,0,0,0,0,0,0,0,0,0,0,0,0,0,0,0,0,0,0,0,0,0,0,0,0,0,0,0,0,0,0,0,0,0,0,0,0,0,0,0,0,0,0,0,0,0,0,0,0,0,0,0,0,0,0,0,0,0,0,0,0,0,0,0,0,0,0,0,0,0,0,0,0,0,0,0,0,0,0,0,0,0,0,0,0,0,0,0,0,0,0,0,0,0,0,0,0,0,0,0,0,0,0,0,0,0,0,0,0,0,0,0,0,0,0,0,0,0,0,0,0,0,0,0,0,0,0,0,0,0,0,0,0,0,0,0,0,0,0,0,0,0,0,0,0,0,0,0,0,0,0,0,0,0,0,0,0,0,0,0,0,0,0,0,0,0,0,0,0,0,0,0,0,0,0,0,0,0,0,0,0,0,0,0,0,0,0,0,0,0,0,0,0,0,0,0,0,0,0,0,0,0,0,0,0,0,0,0,0,0,0,0,0,0,0,0,0,0,0,0,0,0,0,0,0,0,0,0,0,0,0,0,0,0,0,0,0,0,0,0,0,0,0,0,0,0,0,0,0,0,0,0,0,0,0,0,0,0,0,0,0,0,0,0,0,0,0,0,0,0,0,0,0,0,0,0,0,0,0,0,0,0,0,0,0,0,0,0,0,0,0,0,0,0,0,0,0,0,0,0,0,0,0,0,0,0,0,0,0,0,0,0,0,0,0,0,0,0,0,0,0,0,0,0,0,0,0,0,0,0,0,0,0,0,0,0,0,0,0,0,0,0,0,0,0,0,0,0,0,0,0,0,0,0,0,0,0,0,0,0,0,0,0,0,0,0,0,0,0,0,0,0,0,0,0,0,0,0,0,0,0,0,0,0,0,0,0,0,0,0,0,0,0,0,0,0,0,0,0,0,0,0,0,0,0,0,0,0,0,0,0,0,0,0,0,0,0,0,0,0,0,0,0,0,0,0,0,0,0,0,0,0,0,0,0,0,0,0,0,0,0,0,0,0,0,0,0]}],[{"header":{"parameterUnit":"kt","parameterCategory":2,"dx":1,"dy":1,"la1":29.46422004699707,"la2":30.564109802246094,"lo1":-89.4342041015625,"lo2":-87.934326171875,"nx":46,"ny":34,"refTime":"2022-09-27T00:00:00:Z","depth":"15","parameterNumber":3,"parameterNumberName":"V-component_of_CURRENTS"},"data":[0,0,0,0,0,0,0,0,0,0,0,0,0,0,0,0,0,-0.2467,-0.2776,-0.3235,-0.3994,-0.3914,-0.3022,-0.1709,-0.1009,-0.0539,0.0128,0.0785,0.1191,0.1308,0.1207,0.1009,0.086,0.0865,0.1057,0.1367,0.1751,0.2189,0.2648,0.307,0.3481,0.3865,0.4213,0.4528,0.4821,0.5099,0,0,0,0,0,0,0,0,0,0,0,0,0,0,0,0,0,0,-0.2376,-0.2461,-0.284,-0.3326,-0.3844,-0.307,-0.1687,-0.087,-0.0374,0.0091,0.0459,0.0609,0.0603,0.0534,0.0464,0.0454,0.0534,0.071,0.0988,0.1313,0.166,0.197,0.2242,0.2557,0.2947,0.3342,0.3775,0.4218,0,0,0,0,0,0,0,0,0,0,0,0,0,0,0,0,0,0,0,-0.2339,-0.2312,-0.2579,-0.2979,-0.3631,-0.2814,-0.1292,-0.0384,-0.0171,-0.0027,0.0037,0.0032,0.0085,0.0208,0.0358,0.0545,0.0753,0.0982,0.1271,0.1543,0.1762,0.1906,0.205,0.2306,0.2643,0.3006,0.3374,0,0,0,0,0,0,0,0,0,0,0,0,0,0,0,0,0,0,0,0,-0.2285,-0.2248,-0.244,-0.2936,-0.3396,-0.2477,-0.095,-0.0513,-0.0683,-0.0865,-0.1073,-0.1127,-0.1004,-0.0694,-0.0166,0.0422,0.0993,0.1426,0.1687,0.1821,0.1922,0.204,0.228,0.2621,0.2974,0.331,0,0,0,0,0,0,0,0,0,0,0,0,0,0,0,0,0,0,0,0,0,-0.2189,-0.2194,-0.2493,-0.3033,-0.3235,-0.1981,-0.0828,-0.1116,-0.1522,-0.1746,-0.1794,-0.1762,-0.1532,-0.0993,-0.0299,0.0368,0.0854,0.1111,0.1249,0.1393,0.1634,0.1986,0.2376,0.2776,0.3161,0,0,0,0,0,0,0,0,0,0,0,0,0,0,0,0,0,0,0,0,0,-0.213,-0.2098,-0.2269,-0.2621,-0.3198,-0.2819,-0.0785,-0.0641,-0.1036,-0.118,-0.1052,-0.0998,-0.0876,-0.0523,-0.0043,0.0416,0.0731,0.0886,0.0966,0.1052,0.1228,0.1564,0.1975,0.2408,0.2798,0,0,0,0,0,0,0,0,0,0,0,0,0,0,0,0,0,0,0,0,0,-0.2072,-0.2013,-0.2141,-0.2365,-0.2792,-0.3155,-0.0972,0.0,-0.0091,-0.0155,0.0069,0.0176,0.0283,0.0459,0.0694,0.0918,0.1062,0.1068,0.0972,0.0886,0.0881,0.1046,0.1474,0.1965,0.2365,0,0,0,0,0,0,0,0,0,0,0,0,0,0,0,0,0,0,0,0,0,0,-0.1927,-0.2013,-0.2162,-0.2429,-0.2963,-0.1361,0.008,0.0497,0.0432,0.0464,0.0448,0.0587,0.0721,0.0822,0.0972,0.1105,0.1068,0.0945,0.0849,0.0785,0.0801,0.1111,0.1548,0.1858,0,0,0,0,0,0,0,0,0,0,0,0,0,0,0,0,0,0,0,0,0,0,-0.1837,-0.1874,-0.197,-0.2136,-0.2579,-0.1452,-0.0166,0.0614,0.0555,0.0347,0.0182,0.0384,0.0593,0.0694,0.0817,0.1014,0.1041,0.0993,0.0934,0.0806,0.071,0.0897,0.1281,0.1522,0,0,0,0,0,0,0,0,0,0,0,0,0,0,0,0,0,0,0,0,0,0,-0.1725,-0.1725,-0.1789,-0.1901,-0.221,-0.1308,-0.0331,0.039,0.039,0.0112,-0.0048,0.0187,0.0545,0.0731,0.0844,0.0988,0.1009,0.1046,0.0966,0.078,0.063,0.0726,0.1004,0.1244,0,0,0,0,0,0,0,0,0,0,0,0,0,0,0,0,0,0,0,0,0,0,-0.158,-0.157,-0.1612,-0.1692,-0.1895,-0.1185,-0.0299,0.0069,0.0123,-0.0027,0.0075,0.0379,0.0747,0.0924,0.0961,0.0929,0.0972,0.1052,0.0929,0.0769,0.0715,0.0721,0.0844,0.0988,0,0,0,0,0,0,0,0,0,0,0,0,0,0,0,0,0,0,0,0,0,0,-0.1393,-0.1399,-0.141,-0.1436,-0.1548,-0.1196,-0.0299,-0.0069,0.0027,0.008,0.0267,0.0555,0.0796,0.0908,0.0902,0.086,0.0961,0.1014,0.094,0.0929,0.094,0.0849,0.0854,0.0892,0,0,0,0,0,0,0,0,0,0,0,0,0,0,0,0,0,0,0,0,0,0,-0.1175,-0.1201,-0.1185,-0.1148,-0.1169,-0.11,-0.0475,-0.0085,0.0021,0.0128,0.0187,0.04,0.0603,0.0769,0.0844,0.0897,0.0961,0.103,0.1191,0.1287,0.1111,0.0918,0.0892,0.0929,0,0,0,0,0,0,0,0,0,0,0,0,0,0,0,0,0,0,0,0,0,0,-0.0934,-0.0993,-0.0982,-0.094,-0.0918,-0.0865,-0.0577,-0.0192,-0.008,-0.0027,0.0032,0.023,0.0454,0.0662,0.0796,0.087,0.0982,0.1239,0.1527,0.1474,0.1121,0.1009,0.0993,0.0924,0,0,0,0,0,0,0,0,0,0,0,0,0,0,0,0,0,0,0,0,0,0,-0.0715,-0.0806,-0.0844,-0.0876,-0.0886,-0.0763,-0.0464,-0.0091,0.0005,-0.0085,-0.0048,0.0123,0.0342,0.0555,0.0705,0.0812,0.103,0.141,0.1634,0.1452,0.1212,0.1175,0.1014,0.086,0,0,0,0,0,0,0,0,0,0,0,0,0,0,0,0,0,0,0,0,0,0,-0.0518,-0.0635,-0.0737,-0.0876,-0.0929,-0.0603,0.0053,0.0358,0.0214,-0.0043,-0.0096,0.0032,0.0246,0.0502,0.071,0.0844,0.103,0.1351,0.1586,0.1548,0.1452,0.1281,0.0934,0.0758,0,0,0,0,0,0,0,0,0,0,0,0,0,0,0,0,0,0,0,0,0,0,-0.031,-0.0422,-0.0561,-0.0715,-0.0651,0.0011,0.0699,0.0726,0.0352,0.0166,0.0005,0.0085,0.032,0.0598,0.0828,0.0956,0.1089,0.1329,0.1596,0.165,0.1516,0.1217,0.087,0.0683,0,0,0,0,0,0,0,0,0,0,0,0,0,0,0,0,0,0,0,0,0,0.0149,-0.0016,-0.0128,-0.024,-0.032,-0.0075,0.0699,0.0998,0.0844,0.0464,0.0566,0.0315,0.0368,0.0598,0.0801,0.0966,0.1127,0.1297,0.1495,0.1639,0.1596,0.1393,0.11,0.0812,0.063,0,0,0,0,0,0,0,0,0,0,0,0,0,0,0,0,0,0,0,0,0,0.04,0.0283,0.0187,0.0117,0.0069,0.0304,0.0828,0.0972,0.0945,0.0796,0.0673,0.0502,0.0678,0.0972,0.1078,0.1164,0.1324,0.1522,0.1623,0.1591,0.142,0.1175,0.0918,0.0694,0.0555,0,0,0,0,0,0,0,0,0,0,0,0,0,0,0,0,0,0,0,0,0,0,0.0481,0.0411,0.0331,0.0267,0.0427,0.0758,0.0758,0.0651,0.0721,0.0598,0.0614,0.1127,0.1388,0.1324,0.1351,0.1516,0.1586,0.1543,0.1388,0.1164,0.0913,0.0705,0.0545,0.0481,0,0,0,0,0,0,0,0,0,0,0,0,0,0,0,0,0,0,0,0,0,0,0,0.0486,0.0331,0,0,0,0,0,0,0.0529,0.0902,0.1324,0.0988,0.0603,0.0838,0.1393,0.1474,0.1463,0,0,0,0,0,0,0,0,0,0,0,0,0,0,0,0,0,0,0,0,0,0,0,0,0,0,0,0,0,0,0,0,0,0,0,0,0,0,0,0,0,0.0555,0.0918,0,0,0,0,0,0,0,0,0,0,0,0,0,0,0,0,0,0,0,0,0,0,0,0,0,0,0,0,0,0,0,0,0,0,0,0,0,0,0,0,0,0,0,0,0,0,0,0,0,0,0,0,0,0,0,0,0,0,0,0,0,0,0,0,0,0,0,0,0,0,0,0,0,0,0,0,0,0,0,0,0,0,0,0,0,0,0,0,0,0,0,0,0,0,0,0,0,0,0,0,0,0,0,0,0,0,0,0,0,0,0,0,0,0,0,0,0,0,0,0,0,0,0,0,0,0,0,0,0,0,0,0,0,0,0,0,0,0,0,0,0,0,0,0,0,0,0,0,0,0,0,0,0,0,0,0,0,0,0,0,0,0,0,0,0,0,0,0,0,0,0,0,0,0,0,0,0,0,0,0,0,0,0,0,0,0,0,0,0,0,0,0,0,0,0,0,0,0,0,0,0,0,0,0,0,0,0,0,0,0,0,0,0,0,0,0,0,0,0,0,0,0,0,0,0,0,0,0,0,0,0,0,0,0,0,0,0,0,0,0,0,0,0,0,0,0,0,0,0,0,0,0,0,0,0,0,0,0,0,0,0,0,0,0,0,0,0,0,0,0,0,0,0,0,0,0,0,0,0,0,0,0,0,0,0,0,0,0,0,0,0,0,0,0,0,0,0,0,0,0,0,0,0,0,0,0,0,0,0,0,0,0,0,0,0,0,0,0,0,0,0,0,0,0,0,0,0,0,0,0,0,0,0,0,0,0,0,0,0,0,0,0,0,0,0,0,0,0,0,0,0,0,0,0,0,0,0,0,0,0,0,0,0,0,0,0,0,0,0,0,0,0,0,0,0,0,0,0,0,0,0,0,0,0,0,0,0,0,0,0,0,0,0,0,0,0,0,0,0,0,0,0,0,0,0,0,0,0,0,0,0,0,0,0,0,0,0,0,0,0,0,0,0,0,0,0,0,0,0,0,0,0,0,0,0,0,0,0,0,0,0,0,0,0,0,0,0,0,0,0,0,0,0,0,0,0,0,0,0,0,0,0,0,0,0,0,0,0,0,0,0,0,0,0,0,0,0,0,0,0,0,0,0,0,0,0,0,0,0,0,0,0,0,0,0,0,0,0,0,0,0,0,0,0,0,0,0,0,0,0,0,0,0,0,0,0,0,0,0,0,0,0,0,0,0,0,0,0,0,0,0,0,0,0,0,0,0,0,0,0,0,0,0,0,0,0,0,0,0,0,0,0,0,0,0,0,0,0,0,0,0]}]],[[{"header":{"parameterUnit":"kt","parameterCategory":2,"dx":1,"dy":1,"la1":29.46422004699707,"la2":30.564109802246094,"lo1":-89.4342041015625,"lo2":-87.934326171875,"nx":46,"ny":34,"refTime":"2022-09-27T00:00:00:Z","depth":"20","parameterNumber":2,"parameterNumberName":"U-component_of_CURRENTS"},"data":[0,0,0,0,0,0,0,0,0,0,0,0,0,0,0,0,0,0,0,-0.2242,-0.2274,-0.299,-0.3753,-0.4111,-0.4036,-0.4405,-0.4869,-0.5142,-0.5254,-0.5195,-0.5099,-0.5152,-0.543,-0.5852,-0.6145,-0.6081,-0.5665,-0.5045,-0.4517,-0.4218,-0.3882,-0.3406,-0.2846,-0.2274,-0.1805,-0.1474,0,0,0,0,0,0,0,0,0,0,0,0,0,0,0,0,0,0,0,0,0,-0.2066,-0.2333,-0.3043,-0.3647,-0.3903,-0.4175,-0.4389,-0.4528,-0.4538,-0.4469,-0.4298,-0.4031,-0.3855,-0.3962,-0.4271,-0.4533,-0.4602,-0.4485,-0.418,-0.3849,-0.3567,-0.3348,-0.3348,-0.331,-0.3145,0,0,0,0,0,0,0,0,0,0,0,0,0,0,0,0,0,0,0,0,0,0,-0.2136,-0.1933,-0.2547,-0.2947,-0.3508,-0.3844,-0.3956,-0.41,-0.4261,-0.4394,-0.4496,-0.4533,-0.449,-0.4453,-0.4506,-0.4656,-0.4901,-0.5045,-0.4891,-0.4474,-0.4031,-0.3695,-0.3481,-0.3438,0,0,0,0,0,0,0,0,0,0,0,0,0,0,0,0,0,0,0,0,0,0,0,0,-0.1618,-0.1938,-0.1794,-0.2702,-0.2953,-0.3049,-0.2814,-0.2488,-0.2547,-0.2979,-0.3657,-0.4325,-0.4843,-0.5142,-0.5291,-0.5419,-0.5425,-0.5238,-0.496,-0.4746,-0.4602,-0.4474,0,0,0,0,0,0,0,0,0,0,0,0,0,0,0,0,0,0,0,0,0,0,0,0,-0.1714,-0.1415,-0.1244,-0.0545,-0.1255,-0.1025,-0.1014,-0.1185,-0.1511,-0.1858,-0.2125,-0.2541,-0.3545,-0.4421,-0.4501,-0.465,-0.4907,-0.4912,-0.4832,-0.4875,-0.4955,-0.4987,0,0,0,0,0,0,0,0,0,0,0,0,0,0,0,0,0,0,0,0,0,0,0,0,0,-0.1335,-0.1506,-0.086,-0.0577,-0.1153,-0.1132,-0.1041,-0.1196,-0.157,-0.2104,-0.2686,-0.3251,-0.362,-0.3839,-0.3962,-0.4058,-0.4138,-0.4122,-0.4132,-0.4175,-0.417,0,0,0,0,0,0,0,0,0,0,0,0,0,0,0,0,0,0,0,0,0,0,0,0,0,-0.1345,-0.1383,-0.1329,-0.1196,-0.1575,-0.1991,-0.2205,-0.2322,-0.2509,-0.2856,-0.3251,-0.3518,-0.3647,-0.3711,-0.3769,-0.3865,-0.3882,-0.3673,-0.3369,-0.3203,-0.3134,0,0,0,0,0,0,0,0,0,0,0,0,0,0,0,0,0,0,0,0,0,0,0,0,0,-0.1239,-0.1233,-0.1634,-0.1463,-0.1596,-0.2013,-0.2306,-0.2451,-0.2611,-0.283,-0.3017,-0.3166,-0.3268,-0.3262,-0.3294,-0.3294,-0.3219,-0.3049,-0.2776,-0.2515,-0.2296,0,0,0,0,0,0,0,0,0,0,0,0,0,0,0,0,0,0,0,0,0,0,0,0,0,-0.1105,-0.1175,-0.1554,-0.1532,-0.1447,-0.1506,-0.1623,-0.1746,-0.1869,-0.2002,-0.2136,-0.2306,-0.2483,-0.2536,-0.2531,-0.2563,-0.2621,-0.2611,-0.2467,-0.2258,-0.2002,0,0,0,0,0,0,0,0,0,0,0,0,0,0,0,0,0,0,0,0,0,0,0,0,0,-0.0934,-0.1073,-0.1249,-0.1297,-0.1127,-0.0982,-0.0929,-0.0838,-0.0918,-0.1057,-0.1217,-0.1548,-0.1837,-0.1917,-0.1949,-0.2045,-0.2109,-0.213,-0.2157,-0.2125,-0.1981,0,0,0,0,0,0,0,0,0,0,0,0,0,0,0,0,0,0,0,0,0,0,0,0,-0.0737,-0.0806,-0.0945,-0.1036,-0.1052,-0.071,-0.0577,-0.0497,-0.0502,-0.078,-0.1105,-0.1217,-0.1207,-0.1356,-0.1538,-0.1623,-0.1725,-0.1847,-0.1885,-0.1906,-0.1991,-0.1997,0,0,0,0,0,0,0,0,0,0,0,0,0,0,0,0,0,0,0,0,0,0,0,0,-0.0678,-0.0796,-0.1009,-0.1089,-0.1148,-0.0961,-0.095,-0.1089,-0.1255,-0.1297,-0.1265,-0.1159,-0.11,-0.1228,-0.1351,-0.141,-0.1559,-0.189,-0.2141,-0.2104,-0.2002,-0.1986,0,0,0,0,0,0,0,0,0,0,0,0,0,0,0,0,0,0,0,0,0,0,0,0,-0.0683,-0.0801,-0.0982,-0.1175,-0.1244,-0.1345,-0.1436,-0.1436,-0.1351,-0.1212,-0.1095,-0.1025,-0.1036,-0.1116,-0.1185,-0.1319,-0.1655,-0.1965,-0.2056,-0.2109,-0.2072,-0.2013,0,0,0,0,0,0,0,0,0,0,0,0,0,0,0,0,0,0,0,0,0,0,0,0,-0.0715,-0.0747,-0.0812,-0.0902,-0.0988,-0.1004,-0.0998,-0.1014,-0.1009,-0.0993,-0.1036,-0.1127,-0.1244,-0.1345,-0.1452,-0.1628,-0.1687,-0.1532,-0.157,-0.1858,-0.2024,-0.2029,0,0,0,0,0,0,0,0,0,0,0,0,0,0,0,0,0,0,0,0,0,0,0,0,-0.0747,-0.0721,-0.0667,-0.0625,-0.0694,-0.094,-0.1319,-0.166,-0.1826,-0.1879,-0.1895,-0.1901,-0.1917,-0.1981,-0.2024,-0.1847,-0.1426,-0.1148,-0.141,-0.1922,-0.22,-0.2141,0,0,0,0,0,0,0,0,0,0,0,0,0,0,0,0,0,0,0,0,0,0,0,0,-0.0828,-0.0812,-0.078,-0.0854,-0.1132,-0.1479,-0.1741,-0.1959,-0.2098,-0.2114,-0.2088,-0.2093,-0.2162,-0.2194,-0.2018,-0.1543,-0.118,-0.1292,-0.1575,-0.1959,-0.2205,-0.2168,0,0,0,0,0,0,0,0,0,0,0,0,0,0,0,0,0,0,0,0,0,0,0,0,-0.1089,-0.1201,-0.1287,-0.1127,-0.079,-0.0529,-0.0609,-0.0966,-0.1239,-0.1367,-0.1506,-0.1725,-0.1943,-0.2056,-0.1997,-0.1703,-0.1399,-0.1468,-0.1757,-0.197,-0.2056,-0.2013,0,0,0,0,0,0,0,0,0,0,0,0,0,0,0,0,0,0,0,0,0,0,0,0,0,-0.1602,-0.1233,-0.0128,0.0785,0.0924,0.0699,0.0368,-0.0053,-0.0529,-0.0934,-0.1351,-0.1757,-0.1943,-0.2024,-0.2072,-0.2109,0,0,0,0,0,0,0,0,0,0,0,0,0,0,0,0,0,0,0,0,0,0,0,0,0,0,0,0,0,0,0,0,0,0,0,0,0,0,-0.1511,-0.1442,-0.1351,0,0,0,0,0,0,0,0,0,0,0,0,0,0,0,0,0,0,0,0,0,0,0,0,0,0,0,0,0,0,0,0,0,0,0,0,0,0,0,0,0,0,0,0,0,0,0,0,0,0,0,0,0,0,0,0,0,0,0,0,0,0,0,0,0,0,0,0,0,0,0,0,0,0,0,0,0,0,0,0,0,0,0,0,0,0,0,0,0,0,0,0,0,0,0,0,0,0,0,0,0,0,0,0,0,0,0,0,0,0,0,0,0,0,0,0,0,0,0,0,0,0,0,0,0,0,0,0,0,0,0,0,0,0,0,0,0,0,0,0,0,0,0,0,0,0,0,0,0,0,0,0,0,0,0,0,0,0,0,0,0,0,0,0,0,0,0,0,0,0,0,0,0,0,0,0,0,0,0,0,0,0,0,0,0,0,0,0,0,0,0,0,0,0,0,0,0,0,0,0,0,0,0,0,0,0,0,0,0,0,0,0,0,0,0,0,0,0,0,0,0,0,0,0,0,0,0,0,0,0,0,0,0,0,0,0,0,0,0,0,0,0,0,0,0,0,0,0,0,0,0,0,0,0,0,0,0,0,0,0,0,0,0,0,0,0,0,0,0,0,0,0,0,0,0,0,0,0,0,0,0,0,0,0,0,0,0,0,0,0,0,0,0,0,0,0,0,0,0,0,0,0,0,0,0,0,0,0,0,0,0,0,0,0,0,0,0,0,0,0,0,0,0,0,0,0,0,0,0,0,0,0,0,0,0,0,0,0,0,0,0,0,0,0,0,0,0,0,0,0,0,0,0,0,0,0,0,0,0,0,0,0,0,0,0,0,0,0,0,0,0,0,0,0,0,0,0,0,0,0,0,0,0,0,0,0,0,0,0,0,0,0,0,0,0,0,0,0,0,0,0,0,0,0,0,0,0,0,0,0,0,0,0,0,0,0,0,0,0,0,0,0,0,0,0,0,0,0,0,0,0,0,0,0,0,0,0,0,0,0,0,0,0,0,0,0,0,0,0,0,0,0,0,0,0,0,0,0,0,0,0,0,0,0,0,0,0,0,0,0,0,0,0,0,0,0,0,0,0,0,0,0,0,0,0,0,0,0,0,0,0,0,0,0,0,0,0,0,0,0,0,0,0,0,0,0,0,0,0,0,0,0,0,0,0,0,0,0,0,0,0,0,0,0,0,0,0,0,0,0,0,0,0,0,0,0,0,0,0,0,0,0,0,0,0,0,0,0,0,0,0,0,0,0,0,0,0,0,0,0,0,0,0,0,0,0,0,0,0,0,0,0,0,0,0,0,0,0,0,0,0,0,0,0,0,0,0,0,0,0,0,0,0,0,0,0,0,0,0,0,0,0,0,0,0,0,0,0,0,0,0,0,0,0,0,0,0,0,0,0,0,0,0,0,0,0,0,0,0,0,0,0,0,0,0,0,0,0,0,0,0,0,0,0,0,0,0,0,0,0,0,0,0,0,0,0,0,0,0,0,0,0,0,0,0,0,0,0,0,0,0,0,0,0,0,0,0,0,0,0,0,0,0,0,0,0,0,0,0,0,0,0,0,0,0,0,0,0,0,0]}],[{"header":{"parameterUnit":"kt","parameterCategory":2,"dx":1,"dy":1,"la1":29.46422004699707,"la2":30.564109802246094,"lo1":-89.4342041015625,"lo2":-87.934326171875,"nx":46,"ny":34,"refTime":"2022-09-27T00:00:00:Z","depth":"20","parameterNumber":3,"parameterNumberName":"V-component_of_CURRENTS"},"data":[0,0,0,0,0,0,0,0,0,0,0,0,0,0,0,0,0,0,0,-0.2344,-0.2274,-0.3075,-0.3001,-0.1842,-0.1212,-0.0897,-0.0299,0.0481,0.0934,0.1073,0.0988,0.079,0.0577,0.0464,0.0432,0.0582,0.1014,0.134,0.1719,0.2306,0.2878,0.3428,0.394,0.4293,0.4586,0.4827,0,0,0,0,0,0,0,0,0,0,0,0,0,0,0,0,0,0,0,0,0,-0.2002,-0.2381,-0.3145,-0.1954,-0.1036,-0.0566,0.0,0.0395,0.0545,0.0571,0.0539,0.0481,0.0454,0.0454,0.0459,0.0502,0.055,0.0763,0.1068,0.1324,0.1692,0.2205,0.2776,0.3364,0.3924,0,0,0,0,0,0,0,0,0,0,0,0,0,0,0,0,0,0,0,0,0,0,-0.2162,-0.2104,-0.2894,-0.1532,-0.0432,-0.0171,0.0043,0.0149,0.0187,0.0187,0.0214,0.0347,0.0598,0.0801,0.0982,0.11,0.118,0.1212,0.1207,0.1265,0.1527,0.1975,0.2381,0.284,0,0,0,0,0,0,0,0,0,0,0,0,0,0,0,0,0,0,0,0,0,0,0,0,-0.1965,-0.2547,-0.1089,-0.0448,-0.0694,-0.094,-0.11,-0.1297,-0.1404,-0.1308,-0.0817,-0.0064,0.087,0.1474,0.1682,0.1799,0.1927,0.2013,0.2162,0.2424,0.2686,0.2969,0,0,0,0,0,0,0,0,0,0,0,0,0,0,0,0,0,0,0,0,0,0,0,0,-0.2173,-0.2013,-0.2088,-0.1249,-0.1137,-0.1815,-0.204,-0.212,-0.2152,-0.2168,-0.204,-0.1303,0.0059,0.0897,0.1078,0.1244,0.1426,0.1692,0.205,0.2408,0.2782,0.315,0,0,0,0,0,0,0,0,0,0,0,0,0,0,0,0,0,0,0,0,0,0,0,0,0,-0.2056,-0.1917,-0.0988,-0.0769,-0.1111,-0.1329,-0.1345,-0.1367,-0.1287,-0.102,-0.0486,0.0262,0.0726,0.0929,0.1068,0.1143,0.1319,0.1612,0.1991,0.2429,0.284,0,0,0,0,0,0,0,0,0,0,0,0,0,0,0,0,0,0,0,0,0,0,0,0,0,-0.2248,-0.2168,-0.0833,0.0053,-0.0091,-0.0133,-0.0021,-0.0016,0.008,0.0406,0.0737,0.0972,0.1169,0.1265,0.1148,0.1068,0.1062,0.1159,0.1522,0.2013,0.2397,0,0,0,0,0,0,0,0,0,0,0,0,0,0,0,0,0,0,0,0,0,0,0,0,0,-0.213,-0.2189,-0.1329,0.0133,0.0545,0.0475,0.0513,0.0513,0.063,0.078,0.0908,0.1078,0.1249,0.1271,0.1095,0.0972,0.0918,0.0902,0.1175,0.1623,0.1933,0,0,0,0,0,0,0,0,0,0,0,0,0,0,0,0,0,0,0,0,0,0,0,0,0,-0.1933,-0.2168,-0.1415,-0.0048,0.0673,0.0614,0.0464,0.0326,0.0448,0.0646,0.071,0.0924,0.1127,0.1164,0.1073,0.0993,0.086,0.0753,0.094,0.1335,0.1591,0,0,0,0,0,0,0,0,0,0,0,0,0,0,0,0,0,0,0,0,0,0,0,0,0,-0.1751,-0.2024,-0.1265,-0.0096,0.0481,0.0497,0.0278,0.0043,0.0256,0.0598,0.0737,0.0902,0.1073,0.1078,0.1105,0.1025,0.0838,0.0667,0.0758,0.1041,0.1292,0,0,0,0,0,0,0,0,0,0,0,0,0,0,0,0,0,0,0,0,0,0,0,0,-0.1452,-0.1564,-0.1799,-0.1175,-0.0107,0.0224,0.0235,0.0064,0.0075,0.0438,0.0801,0.0956,0.095,0.0988,0.1025,0.1111,0.0988,0.0854,0.0774,0.0763,0.0881,0.103,0,0,0,0,0,0,0,0,0,0,0,0,0,0,0,0,0,0,0,0,0,0,0,0,-0.1276,-0.1313,-0.1474,-0.1137,-0.0251,0.0085,0.0096,0.0117,0.0331,0.0609,0.0844,0.0934,0.0897,0.0924,0.1025,0.1073,0.1009,0.102,0.102,0.0924,0.0902,0.0934,0,0,0,0,0,0,0,0,0,0,0,0,0,0,0,0,0,0,0,0,0,0,0,0,-0.1062,-0.1014,-0.1084,-0.0998,-0.0443,0.0021,0.0075,0.0192,0.0288,0.0454,0.0657,0.0822,0.0897,0.0956,0.1014,0.1078,0.126,0.1351,0.1191,0.1014,0.095,0.0961,0,0,0,0,0,0,0,0,0,0,0,0,0,0,0,0,0,0,0,0,0,0,0,0,-0.0876,-0.0817,-0.0828,-0.079,-0.0507,-0.0128,-0.0021,0.0032,0.0096,0.0288,0.0513,0.0721,0.0854,0.0934,0.1046,0.1324,0.1612,0.1516,0.1164,0.1078,0.1041,0.0956,0,0,0,0,0,0,0,0,0,0,0,0,0,0,0,0,0,0,0,0,0,0,0,0,-0.0747,-0.0763,-0.0801,-0.0699,-0.0395,-0.0037,0.0107,0.0016,0.0037,0.0224,0.0432,0.0635,0.0774,0.0892,0.1121,0.1564,0.1778,0.1516,0.1239,0.1223,0.1068,0.0897,0,0,0,0,0,0,0,0,0,0,0,0,0,0,0,0,0,0,0,0,0,0,0,0,-0.0651,-0.0763,-0.0828,-0.0502,0.0256,0.063,0.0582,0.0347,0.0214,0.031,0.047,0.0667,0.0806,0.0929,0.1127,0.1431,0.1628,0.1527,0.1399,0.1281,0.0998,0.0801,0,0,0,0,0,0,0,0,0,0,0,0,0,0,0,0,0,0,0,0,0,0,0,0,-0.0464,-0.0582,-0.0406,0.0379,0.1068,0.1249,0.1084,0.0908,0.0726,0.0646,0.0721,0.0854,0.0934,0.102,0.1132,0.1276,0.1324,0.1335,0.1313,0.1169,0.0902,0.0726,0,0,0,0,0,0,0,0,0,0,0,0,0,0,0,0,0,0,0,0,0,0,0,0,0,-0.0171,0.0288,0.1089,0.0822,0.0566,0.0518,0.063,0.0747,0.078,0.095,0.1078,0.1078,0.1143,0.1265,0.141,0.1511,0,0,0,0,0,0,0,0,0,0,0,0,0,0,0,0,0,0,0,0,0,0,0,0,0,0,0,0,0,0,0,0,0,0,0,0,0,0,0.0844,0.1127,0.1175,0,0,0,0,0,0,0,0,0,0,0,0,0,0,0,0,0,0,0,0,0,0,0,0,0,0,0,0,0,0,0,0,0,0,0,0,0,0,0,0,0,0,0,0,0,0,0,0,0,0,0,0,0,0,0,0,0,0,0,0,0,0,0,0,0,0,0,0,0,0,0,0,0,0,0,0,0,0,0,0,0,0,0,0,0,0,0,0,0,0,0,0,0,0,0,0,0,0,0,0,0,0,0,0,0,0,0,0,0,0,0,0,0,0,0,0,0,0,0,0,0,0,0,0,0,0,0,0,0,0,0,0,0,0,0,0,0,0,0,0,0,0,0,0,0,0,0,0,0,0,0,0,0,0,0,0,0,0,0,0,0,0,0,0,0,0,0,0,0,0,0,0,0,0,0,0,0,0,0,0,0,0,0,0,0,0,0,0,0,0,0,0,0,0,0,0,0,0,0,0,0,0,0,0,0,0,0,0,0,0,0,0,0,0,0,0,0,0,0,0,0,0,0,0,0,0,0,0,0,0,0,0,0,0,0,0,0,0,0,0,0,0,0,0,0,0,0,0,0,0,0,0,0,0,0,0,0,0,0,0,0,0,0,0,0,0,0,0,0,0,0,0,0,0,0,0,0,0,0,0,0,0,0,0,0,0,0,0,0,0,0,0,0,0,0,0,0,0,0,0,0,0,0,0,0,0,0,0,0,0,0,0,0,0,0,0,0,0,0,0,0,0,0,0,0,0,0,0,0,0,0,0,0,0,0,0,0,0,0,0,0,0,0,0,0,0,0,0,0,0,0,0,0,0,0,0,0,0,0,0,0,0,0,0,0,0,0,0,0,0,0,0,0,0,0,0,0,0,0,0,0,0,0,0,0,0,0,0,0,0,0,0,0,0,0,0,0,0,0,0,0,0,0,0,0,0,0,0,0,0,0,0,0,0,0,0,0,0,0,0,0,0,0,0,0,0,0,0,0,0,0,0,0,0,0,0,0,0,0,0,0,0,0,0,0,0,0,0,0,0,0,0,0,0,0,0,0,0,0,0,0,0,0,0,0,0,0,0,0,0,0,0,0,0,0,0,0,0,0,0,0,0,0,0,0,0,0,0,0,0,0,0,0,0,0,0,0,0,0,0,0,0,0,0,0,0,0,0,0,0,0,0,0,0,0,0,0,0,0,0,0,0,0,0,0,0,0,0,0,0,0,0,0,0,0,0,0,0,0,0,0,0,0,0,0,0,0,0,0,0,0,0,0,0,0,0,0,0,0,0,0,0,0,0,0,0,0,0,0,0,0,0,0,0,0,0,0,0,0,0,0,0,0,0,0,0,0,0,0,0,0,0,0,0,0,0,0,0,0,0,0,0,0,0,0,0,0,0,0,0,0,0,0,0,0,0,0,0,0,0,0,0,0,0,0,0,0,0,0,0,0,0,0,0,0,0,0,0,0,0,0,0,0,0,0,0,0,0,0,0,0,0,0,0,0,0,0,0,0,0,0,0,0,0,0,0,0,0,0,0,0,0,0,0,0,0,0,0,0,0,0,0,0,0,0,0,0,0,0,0,0,0,0,0,0,0,0,0,0,0]}]],[[{"header":{"parameterUnit":"kt","parameterCategory":2,"dx":1,"dy":1,"la1":29.46422004699707,"la2":30.564109802246094,"lo1":-89.4342041015625,"lo2":-87.934326171875,"nx":46,"ny":34,"refTime":"2022-09-27T00:00:00:Z","depth":"25","parameterNumber":2,"parameterNumberName":"U-component_of_CURRENTS"},"data":[0,0,0,0,0,0,0,0,0,0,0,0,0,0,0,0,0,0,0,0,0,-0.0897,-0.0422,-0.1442,-0.1559,-0.1965,-0.3113,-0.3577,-0.3679,-0.3588,-0.3348,-0.3102,-0.3171,-0.37,-0.433,-0.4458,-0.4143,-0.4015,-0.3951,-0.3636,-0.3289,-0.2979,-0.2632,-0.22,-0.1746,-0.1356,0,0,0,0,0,0,0,0,0,0,0,0,0,0,0,0,0,0,0,0,0,0,0,-0.0486,-0.1351,-0.1623,-0.1821,-0.2258,-0.2504,-0.2531,-0.2269,-0.1709,-0.1111,-0.0769,-0.087,-0.1308,-0.1639,-0.1799,-0.22,-0.2926,-0.339,-0.3321,-0.3027,-0.275,-0.2552,-0.2477,0,0,0,0,0,0,0,0,0,0,0,0,0,0,0,0,0,0,0,0,0,0,0,0,-0.0566,-0.118,-0.1682,-0.2013,-0.2072,-0.1821,-0.1559,-0.1426,-0.1415,-0.1484,-0.1612,-0.1757,-0.2018,-0.2525,-0.3001,-0.323,-0.3289,-0.3225,-0.3059,-0.2904,-0.2776,-0.2563,0,0,0,0,0,0,0,0,0,0,0,0,0,0,0,0,0,0,0,0,0,0,0,0,0,-0.047,-0.0534,-0.0667,-0.0822,-0.0678,-0.0363,-0.0214,-0.0256,-0.0529,-0.1041,-0.1703,-0.2429,-0.3118,-0.355,-0.3844,-0.4191,-0.4399,-0.4367,-0.4282,-0.4271,-0.4255,0,0,0,0,0,0,0,0,0,0,0,0,0,0,0,0,0,0,0,0,0,0,0,0,0,0,-0.0507,-0.031,-0.0379,-0.0464,-0.0593,-0.0806,-0.1116,-0.1431,-0.165,-0.165,-0.1548,-0.1618,-0.1874,-0.2178,-0.2718,-0.3294,-0.3529,-0.362,-0.3689,-0.3748,0,0,0,0,0,0,0,0,0,0,0,0,0,0,0,0,0,0,0,0,0,0,0,0,0,0,-0.0235,-0.1025,-0.0603,-0.0876,-0.1084,-0.1607,-0.2173,-0.2563,-0.2686,-0.2515,-0.2205,-0.1842,-0.1367,-0.1137,-0.1452,-0.2232,-0.2862,-0.3022,-0.2942,-0.2798,0,0,0,0,0,0,0,0,0,0,0,0,0,0,0,0,0,0,0,0,0,0,0,0,0,0,0,-0.0625,-0.0742,-0.0571,-0.1062,-0.1383,-0.1682,-0.1922,-0.2088,-0.2109,-0.2034,-0.2045,-0.2162,-0.2007,-0.1933,-0.2093,-0.2557,-0.2926,-0.2851,-0.2387,0,0,0,0,0,0,0,0,0,0,0,0,0,0,0,0,0,0,0,0,0,0,0,0,0,0,0,-0.0342,-0.1164,-0.1089,-0.1169,-0.1388,-0.1388,-0.1324,-0.1297,-0.1276,-0.1276,-0.1426,-0.1564,-0.1767,-0.2114,-0.2189,-0.2306,-0.2477,-0.2301,-0.205,0,0,0,0,0,0,0,0,0,0,0,0,0,0,0,0,0,0,0,0,0,0,0,0,0,0,0,-0.0235,-0.1046,-0.1159,-0.0854,-0.0406,-0.0475,-0.0641,-0.0561,-0.0491,-0.0577,-0.0822,-0.1207,-0.1821,-0.2301,-0.2413,-0.2312,-0.2013,-0.1564,-0.1249,0,0,0,0,0,0,0,0,0,0,0,0,0,0,0,0,0,0,0,0,0,0,0,0,0,0,-0.0481,0.0,-0.0822,-0.0982,-0.0438,0.0075,-0.0486,-0.0961,-0.0785,-0.0619,-0.0529,-0.071,-0.1335,-0.1874,-0.197,-0.1885,-0.1853,-0.1901,-0.1815,-0.1442,0,0,0,0,0,0,0,0,0,0,0,0,0,0,0,0,0,0,0,0,0,0,0,0,0,0,-0.0454,0.0155,-0.0448,-0.1383,-0.1095,-0.0726,-0.1014,-0.1052,-0.0609,-0.0288,-0.039,-0.0908,-0.1522,-0.1789,-0.1666,-0.1329,-0.134,-0.1762,-0.1874,-0.1847,0,0,0,0,0,0,0,0,0,0,0,0,0,0,0,0,0,0,0,0,0,0,0,0,0,0,0,0.0059,-0.0107,-0.1329,-0.181,-0.1506,-0.1159,-0.0774,-0.0539,-0.0566,-0.1025,-0.1495,-0.1639,-0.1559,-0.1361,-0.1084,-0.0993,-0.1292,-0.1746,-0.1842,0,0,0,0,0,0,0,0,0,0,0,0,0,0,0,0,0,0,0,0,0,0,0,0,0,0,0,-0.0598,-0.0176,-0.0454,-0.1068,-0.1164,-0.1201,-0.1287,-0.1319,-0.1319,-0.1367,-0.1351,-0.1249,-0.1121,-0.0908,-0.0715,-0.0657,-0.0747,-0.1367,-0.1826,0,0,0,0,0,0,0,0,0,0,0,0,0,0,0,0,0,0,0,0,0,0,0,0,0,0,0,-0.0812,-0.0475,-0.0331,-0.024,-0.0075,-0.0246,-0.0587,-0.0667,-0.0571,-0.04,-0.031,-0.0406,-0.0497,-0.0358,-0.0139,-0.0176,-0.0513,-0.1265,-0.1778,0,0,0,0,0,0,0,0,0,0,0,0,0,0,0,0,0,0,0,0,0,0,0,0,0,0,0,-0.0609,-0.0635,-0.0662,-0.0737,-0.0865,-0.103,-0.1089,-0.102,-0.0924,-0.0801,-0.0651,-0.0518,-0.0267,0.0091,0.0192,-0.0133,-0.0715,-0.1436,-0.1874,0,0,0,0,0,0,0,0,0,0,0,0,0,0,0,0,0,0,0,0,0,0,0,0,0,0,0,-0.0801,-0.0822,-0.0603,-0.0454,-0.0603,-0.0796,-0.0854,-0.0876,-0.0956,-0.1046,-0.1025,-0.0763,-0.0272,0.0064,0,0,0,0,0,0,0,0,0,0,0,0,0,0,0,0,0,0,0,0,0,0,0,0,0,0,0,0,0,0,0,0,0,0,0.078,0.0982,0.0796,0.0432,0.0053,-0.0342,-0.0934,0,0,0,0,0,0,0,0,0,0,0,0,0,0,0,0,0,0,0,0,0,0,0,0,0,0,0,0,0,0,0,0,0,0,0,0,0,0,0,0,0,0,0,0,0,0,0,0,0,0,0,0,0,0,0,0,0,0,0,0,0,0,0,0,0,0,0,0,0,0,0,0,0,0,0,0,0,0,0,0,0,0,0,0,0,0,0,0,0,0,0,0,0,0,0,0,0,0,0,0,0,0,0,0,0,0,0,0,0,0,0,0,0,0,0,0,0,0,0,0,0,0,0,0,0,0,0,0,0,0,0,0,0,0,0,0,0,0,0,0,0,0,0,0,0,0,0,0,0,0,0,0,0,0,0,0,0,0,0,0,0,0,0,0,0,0,0,0,0,0,0,0,0,0,0,0,0,0,0,0,0,0,0,0,0,0,0,0,0,0,0,0,0,0,0,0,0,0,0,0,0,0,0,0,0,0,0,0,0,0,0,0,0,0,0,0,0,0,0,0,0,0,0,0,0,0,0,0,0,0,0,0,0,0,0,0,0,0,0,0,0,0,0,0,0,0,0,0,0,0,0,0,0,0,0,0,0,0,0,0,0,0,0,0,0,0,0,0,0,0,0,0,0,0,0,0,0,0,0,0,0,0,0,0,0,0,0,0,0,0,0,0,0,0,0,0,0,0,0,0,0,0,0,0,0,0,0,0,0,0,0,0,0,0,0,0,0,0,0,0,0,0,0,0,0,0,0,0,0,0,0,0,0,0,0,0,0,0,0,0,0,0,0,0,0,0,0,0,0,0,0,0,0,0,0,0,0,0,0,0,0,0,0,0,0,0,0,0,0,0,0,0,0,0,0,0,0,0,0,0,0,0,0,0,0,0,0,0,0,0,0,0,0,0,0,0,0,0,0,0,0,0,0,0,0,0,0,0,0,0,0,0,0,0,0,0,0,0,0,0,0,0,0,0,0,0,0,0,0,0,0,0,0,0,0,0,0,0,0,0,0,0,0,0,0,0,0,0,0,0,0,0,0,0,0,0,0,0,0,0,0,0,0,0,0,0,0,0,0,0,0,0,0,0,0,0,0,0,0,0,0,0,0,0,0,0,0,0,0,0,0,0,0,0,0,0,0,0,0,0,0,0,0,0,0,0,0,0,0,0,0,0,0,0,0,0,0,0,0,0,0,0,0,0,0,0,0,0,0,0,0,0,0,0,0,0,0,0,0,0,0,0,0,0,0,0,0,0,0,0,0,0,0,0,0,0,0,0,0,0,0,0,0,0,0,0,0,0,0,0,0,0,0,0,0,0,0,0,0,0,0,0,0,0,0,0,0,0,0,0,0,0,0,0,0,0,0,0,0,0,0,0,0,0,0,0,0,0,0,0,0,0,0,0,0,0,0,0,0,0,0,0,0,0,0,0,0,0,0,0,0,0,0,0,0,0,0,0,0,0,0,0,0,0,0,0,0,0,0,0,0,0,0,0,0,0,0,0,0,0,0,0,0,0,0,0,0,0,0,0,0,0,0,0,0,0,0,0,0,0,0,0,0,0,0,0,0,0,0,0,0,0,0,0,0,0,0,0,0,0,0,0,0,0,0,0,0,0,0,0,0,0,0,0,0,0,0,0,0,0,0,0,0,0,0,0,0,0,0,0,0,0,0,0,0,0,0,0,0,0,0,0,0,0,0,0,0,0,0,0,0,0,0,0,0,0,0,0,0,0,0,0,0,0,0,0,0,0,0,0,0,0,0,0,0,0,0,0,0,0,0,0,0,0,0,0,0,0,0,0,0,0]}],[{"header":{"parameterUnit":"kt","parameterCategory":2,"dx":1,"dy":1,"la1":29.46422004699707,"la2":30.564109802246094,"lo1":-89.4342041015625,"lo2":-87.934326171875,"nx":46,"ny":34,"refTime":"2022-09-27T00:00:00:Z","depth":"25","parameterNumber":3,"parameterNumberName":"V-component_of_CURRENTS"},"data":[0,0,0,0,0,0,0,0,0,0,0,0,0,0,0,0,0,0,0,0,0,-0.1484,-0.3075,-0.315,-0.2867,-0.3198,-0.2253,-0.1367,-0.0838,-0.0571,-0.0529,-0.0838,-0.1281,-0.1564,-0.1532,-0.1308,-0.1426,-0.1271,-0.0876,-0.063,-0.0203,0.04,0.1062,0.1714,0.2274,0.2686,0,0,0,0,0,0,0,0,0,0,0,0,0,0,0,0,0,0,0,0,0,0,0,-0.2168,-0.2974,-0.2664,-0.2525,-0.1495,-0.0812,-0.0464,-0.0384,-0.0571,-0.0812,-0.0972,-0.1078,-0.1308,-0.189,-0.2098,-0.213,-0.1863,-0.1265,-0.0667,-0.0235,0.0139,0.0481,0.0822,0,0,0,0,0,0,0,0,0,0,0,0,0,0,0,0,0,0,0,0,0,0,0,0,-0.1495,-0.2525,-0.2146,-0.1917,-0.1207,-0.0934,-0.0876,-0.0908,-0.1068,-0.1255,-0.1281,-0.1111,-0.0902,-0.0753,-0.0833,-0.087,-0.0822,-0.0657,-0.0256,0.0096,0.0363,0.0577,0,0,0,0,0,0,0,0,0,0,0,0,0,0,0,0,0,0,0,0,0,0,0,0,0,-0.0806,-0.1959,-0.181,-0.1692,-0.142,-0.126,-0.1207,-0.1281,-0.1458,-0.1548,-0.1436,-0.1073,-0.0422,0.0021,0.0027,-0.0096,-0.0005,0.0342,0.0678,0.094,0.1244,0,0,0,0,0,0,0,0,0,0,0,0,0,0,0,0,0,0,0,0,0,0,0,0,0,0,-0.0443,-0.1639,-0.1463,-0.1484,-0.1303,-0.1153,-0.102,-0.0982,-0.103,-0.1191,-0.1116,-0.0822,-0.0651,-0.0593,-0.0246,0.0358,0.1132,0.173,0.204,0.228,0,0,0,0,0,0,0,0,0,0,0,0,0,0,0,0,0,0,0,0,0,0,0,0,0,0,-0.0918,-0.1682,-0.1255,-0.1287,-0.1404,-0.1495,-0.1511,-0.1442,-0.1297,-0.1137,-0.0988,-0.0769,-0.0742,-0.0689,-0.0475,-0.0219,0.0747,0.1639,0.2104,0.2269,0,0,0,0,0,0,0,0,0,0,0,0,0,0,0,0,0,0,0,0,0,0,0,0,0,0,0,-0.1805,-0.1159,-0.0828,-0.095,-0.1153,-0.1431,-0.166,-0.1692,-0.1516,-0.1137,-0.0796,-0.0555,-0.0182,0.016,0.024,0.0785,0.1559,0.2002,0.2141,0,0,0,0,0,0,0,0,0,0,0,0,0,0,0,0,0,0,0,0,0,0,0,0,0,0,0,-0.1287,-0.1436,0.0155,0.0107,-0.0283,-0.0715,-0.0966,-0.1084,-0.1164,-0.0998,-0.0753,-0.0326,0.0192,0.0699,0.0753,0.0982,0.1276,0.1586,0.1943,0,0,0,0,0,0,0,0,0,0,0,0,0,0,0,0,0,0,0,0,0,0,0,0,0,0,0,-0.0876,-0.1383,-0.0262,0.0513,-0.0561,-0.1335,-0.1217,-0.1191,-0.1292,-0.1271,-0.0849,-0.0021,0.0513,0.0635,0.0609,0.0646,0.0854,0.1191,0.1308,0,0,0,0,0,0,0,0,0,0,0,0,0,0,0,0,0,0,0,0,0,0,0,0,0,0,-0.1244,-0.0763,-0.1233,-0.0838,-0.0192,-0.1111,-0.165,-0.1367,-0.1217,-0.1308,-0.1089,-0.04,0.0432,0.0513,0.0278,0.0411,0.0657,0.0737,0.1041,0.1164,0,0,0,0,0,0,0,0,0,0,0,0,0,0,0,0,0,0,0,0,0,0,0,0,0,0,-0.1239,-0.079,-0.1255,-0.1292,-0.0892,-0.0977,-0.1073,-0.0849,-0.0721,-0.0625,-0.0336,0.0091,0.0368,0.0171,-0.008,0.0123,0.0763,0.0801,0.0897,0.1041,0,0,0,0,0,0,0,0,0,0,0,0,0,0,0,0,0,0,0,0,0,0,0,0,0,0,0,-0.0737,-0.0972,-0.142,-0.1078,-0.0833,-0.0651,-0.0288,0.0069,0.0166,0.0085,0.0075,-0.0016,-0.0053,-0.0128,0.032,0.0886,0.0854,0.0945,0.0956,0,0,0,0,0,0,0,0,0,0,0,0,0,0,0,0,0,0,0,0,0,0,0,0,0,0,0,-0.0678,-0.0593,-0.0683,-0.0625,-0.0865,-0.0774,-0.055,-0.0176,-0.0144,-0.0278,-0.0358,-0.0224,0.0096,0.0416,0.0897,0.078,0.0481,0.0828,0.0972,0,0,0,0,0,0,0,0,0,0,0,0,0,0,0,0,0,0,0,0,0,0,0,0,0,0,0,-0.0646,-0.0379,-0.0187,-0.0187,-0.0352,-0.0395,-0.0294,-0.0048,0.0053,0.0096,0.0155,0.0395,0.0844,0.1153,0.1009,0.0278,0.0011,0.0651,0.095,0,0,0,0,0,0,0,0,0,0,0,0,0,0,0,0,0,0,0,0,0,0,0,0,0,0,0,-0.0625,-0.0278,0.0139,0.0251,0.0214,0.0219,0.0347,0.0481,0.0571,0.0609,0.0635,0.0774,0.0918,0.0689,0.0117,-0.0069,0.0262,0.0822,0.0892,0,0,0,0,0,0,0,0,0,0,0,0,0,0,0,0,0,0,0,0,0,0,0,0,0,0,0,-0.0427,0.0374,0.0817,0.0865,0.0699,0.0609,0.055,0.0587,0.0673,0.0737,0.0801,0.0892,0.0854,0.0614,0,0,0,0,0,0,0,0,0,0,0,0,0,0,0,0,0,0,0,0,0,0,0,0,0,0,0,0,0,0,0,0,0,0,0.0908,0.0715,0.0699,0.0796,0.0769,0.0822,0.0966,0,0,0,0,0,0,0,0,0,0,0,0,0,0,0,0,0,0,0,0,0,0,0,0,0,0,0,0,0,0,0,0,0,0,0,0,0,0,0,0,0,0,0,0,0,0,0,0,0,0,0,0,0,0,0,0,0,0,0,0,0,0,0,0,0,0,0,0,0,0,0,0,0,0,0,0,0,0,0,0,0,0,0,0,0,0,0,0,0,0,0,0,0,0,0,0,0,0,0,0,0,0,0,0,0,0,0,0,0,0,0,0,0,0,0,0,0,0,0,0,0,0,0,0,0,0,0,0,0,0,0,0,0,0,0,0,0,0,0,0,0,0,0,0,0,0,0,0,0,0,0,0,0,0,0,0,0,0,0,0,0,0,0,0,0,0,0,0,0,0,0,0,0,0,0,0,0,0,0,0,0,0,0,0,0,0,0,0,0,0,0,0,0,0,0,0,0,0,0,0,0,0,0,0,0,0,0,0,0,0,0,0,0,0,0,0,0,0,0,0,0,0,0,0,0,0,0,0,0,0,0,0,0,0,0,0,0,0,0,0,0,0,0,0,0,0,0,0,0,0,0,0,0,0,0,0,0,0,0,0,0,0,0,0,0,0,0,0,0,0,0,0,0,0,0,0,0,0,0,0,0,0,0,0,0,0,0,0,0,0,0,0,0,0,0,0,0,0,0,0,0,0,0,0,0,0,0,0,0,0,0,0,0,0,0,0,0,0,0,0,0,0,0,0,0,0,0,0,0,0,0,0,0,0,0,0,0,0,0,0,0,0,0,0,0,0,0,0,0,0,0,0,0,0,0,0,0,0,0,0,0,0,0,0,0,0,0,0,0,0,0,0,0,0,0,0,0,0,0,0,0,0,0,0,0,0,0,0,0,0,0,0,0,0,0,0,0,0,0,0,0,0,0,0,0,0,0,0,0,0,0,0,0,0,0,0,0,0,0,0,0,0,0,0,0,0,0,0,0,0,0,0,0,0,0,0,0,0,0,0,0,0,0,0,0,0,0,0,0,0,0,0,0,0,0,0,0,0,0,0,0,0,0,0,0,0,0,0,0,0,0,0,0,0,0,0,0,0,0,0,0,0,0,0,0,0,0,0,0,0,0,0,0,0,0,0,0,0,0,0,0,0,0,0,0,0,0,0,0,0,0,0,0,0,0,0,0,0,0,0,0,0,0,0,0,0,0,0,0,0,0,0,0,0,0,0,0,0,0,0,0,0,0,0,0,0,0,0,0,0,0,0,0,0,0,0,0,0,0,0,0,0,0,0,0,0,0,0,0,0,0,0,0,0,0,0,0,0,0,0,0,0,0,0,0,0,0,0,0,0,0,0,0,0,0,0,0,0,0,0,0,0,0,0,0,0,0,0,0,0,0,0,0,0,0,0,0,0,0,0,0,0,0,0,0,0,0,0,0,0,0,0,0,0,0,0,0,0,0,0,0,0,0,0,0,0,0,0,0,0,0,0,0,0,0,0,0,0,0,0,0,0,0,0,0,0,0,0,0,0,0,0,0,0,0,0,0,0,0,0,0,0,0,0,0,0,0,0,0,0,0,0,0,0,0,0,0,0,0,0,0,0,0,0,0,0,0,0,0,0,0,0,0,0,0,0,0,0,0,0,0,0,0,0,0,0,0,0,0,0,0,0,0,0,0,0,0,0,0,0,0,0,0,0,0,0,0,0,0,0,0,0,0,0,0,0,0,0,0,0,0,0,0,0,0,0,0,0,0,0,0,0,0,0,0,0,0,0,0,0,0,0,0,0,0,0,0,0,0,0,0,0]}]]]